     2              OBSERVATION DATA    GPS                 RINEX VERSION / TYPE
ASRINEXO V2.9.5 UX USGS 24-MAY-99 16:01                     PGM / RUN BY / DATE
                                                            COMMENT
Original Marker Name: hp74 HPGN_07-04_1991_CDOT             COMMENT
Campaign Name: usgs monitor surveys                         COMMENT
4-Character Station Name: HP74                              COMMENT
6-Character Antenna Code: DMRCHT                            COMMENT
Vertical Measurement Point: BCR                             COMMENT
Vertical Offset to Rinex Ref. Point: 0.0348                 COMMENT
Radial Measurement Point: ECF                               COMMENT
Radial Offset to Rinex Ref. Point: 0.1897                   COMMENT
Antenna Height from Field Measurement: 1.4830 m             COMMENT
Additional Antenna Identification Info.:                    COMMENT
Turborogue and Ashtech Choke Ring                           COMMENT
Original XYZ: -2516959.7832 -4627994.7231 3583992.3989      COMMENT
New XYZ position is based on association with SCEC monument COMMENT
E1E9I9U4+0011. Position of that monument is believed to be  COMMENT
valid to within 1 m horizontally; vertical accuracy         COMMENT
should be no worse than 3-times this value.                 COMMENT
                                                            COMMENT
Revised Rinex header created by UCSD GPS archive for        COMMENT
GSAC on 09-Dec-1999 (1999:343) 07:09:32 GMT                 COMMENT
For assistance contact dagnew@ucsd.edu or hjohnson@ucsd.edu COMMENT
                                                            COMMENT
HP74 HPGN_07-04_1991_CDOT                                   MARKER NAME
GDH US GEOLOGICAL SURVEY                                    OBSERVER / AGENCY
579 ASHTECH Z-XII3 1E95                                     REC # / TYPE / VERS
975 DORNE-MARGOL. TYPE T                                    ANT # / TYPE
 -2516978.0000 -4627970.0000  3583979.0000                  APPROX POSITION XYZ
        1.4360        0.0000        0.0000                  ANTENNA: DELTA H/E/N
     1     1     0                                          WAVELENGTH FACT L1/2
     5    C1    L1    L2    P1    P2                        # / TYPES OF OBSERV
    30                                                      INTERVAL
  1999     5    20    17    57   30.000000                  TIME OF FIRST OBS
  1999     5    20    23    58   30.000000                  TIME OF LAST OBS
                                                            END OF HEADER
 99  5 20 17 57 30.0000000  0  8 30 04 05 06 08 09 10 24
  23220880.564                                    23220880.579    23221011.6844
  21709545.731      468984.062 9    349625.66449  21709545.944    21709553.1764
  20888428.916       80669.041 9     60167.48449  20888428.282    20888434.4874
  25014969.991      -15579.03949                  25014969.987    25014980.8114
  21678009.155      273195.858 9    204606.73749  21678008.947    21678016.5854
  22741146.622      492958.256 9    367966.03749  22741146.812    22741154.4184
  23662250.205      -95853.807 9    -72199.04549  23662248.826    23662260.5284
  20492168.032      246171.622 9    179143.20149  20492167.767    20492174.6124
 99  5 20 17 58  0.0000000  0  8 30 04 05 06 08 09 10 24
  23214848.063      -34488.02049                  23214847.645    23214854.3554
  21735119.283      603374.027 9    454345.06349  21735119.890    21735126.8544
  20891894.512       98882.537 9     74359.83049  20891893.913    20891900.6134
  25013193.662      -29809.87619    -22853.32649  25013193.207    25013204.2144
  21692870.107      351290.356 9    265459.56049  21692869.359    21692877.1974
  22768054.008      634357.153 9    478146.91049  22768054.354    22768061.8224
  23656290.435     -127170.599 9    -96601.57649  23656289.312    23656300.6064
  20504309.095      309973.073 9    228858.63249  20504309.092    20504315.6684
 99  5 20 17 58 30.0010000  0  8 30 04 05 06 08 09 10 24
  23208551.965     -167581.76919    -60268.01349  23208552.184    23208557.7434
  21760476.991      736628.056 9    558179.32349  21760477.385    21760484.3904
  20895142.992      115953.637 9     87661.99949  20895142.644    20895149.1144
  25011142.202      -40587.221 9    -31251.16249  25011141.397    25011153.0704
  21707564.382      428509.245 9    325630.09549  21707563.566    21707571.7344
  22794725.758      774516.489 9    587361.87749  22794725.780    22794733.9354
  23650069.783     -159859.691 9   -122073.43549  23650069.098    23650079.2924
  20516264.077      372797.314 9    277812.59949  20516263.556    20516270.7674
 99  5 20 17 59  0.0010000  0  8 30 04 05 06 08 09 10 24
  23202006.694     -201975.526 9    -87068.29549  23202005.706    23202013.2664
  21785629.452      868804.730 9    661174.08449  21785630.092    21785637.0034
  20898188.380      131956.998 9    100132.15849  20898188.295    20898194.1424
  25008827.880      -52745.405 9    -40725.01249  25008826.670    25008840.7754
  21722103.367      504911.368 9    385164.17449  21722103.261    21722110.3014
  22821169.930      913481.186 9    695645.96349  22821169.483    22821178.2094
  23643596.762     -193876.073 9   -148579.53149  23643595.709    23643606.4424
  20528040.687      434684.238 9    326036.18249  20528040.543    20528047.1674
 99  5 20 17 59 30.0010000  0  8 30 04 05 06 08 09 10 24
  23195226.716     -237604.346 9   -114830.97349  23195226.019    23195233.8874
  21810587.660      999960.245 9    763373.13849  21810588.024    21810595.1084
  20901044.852      146967.310 9    111828.51549  20901044.628    20901050.8184
  25006262.974      -66221.454 9    -51225.77449  25006262.964    25006276.3474
  21736498.436      580557.014 9    444108.78949  21736498.036    21736505.3464
  22847398.806     1051315.703 9    803049.38049  22847398.985    22847407.6504
  23636881.793     -229163.579 9   -176076.12349  23636880.508    23636890.5764
  20539649.855      495690.964 9    373573.89749  20539649.706    20539656.7324
 99  5 20 18  0  0.0010000  0  8 30 04 05 06 08 09 10 24
  23188220.773     -274420.255 9   -143518.63349  23188220.199    23188228.1864
  21835360.188     1130140.205 9    864812.02549  21835360.564    21835367.6064
  20903721.403      161032.555 9    122788.45649  20903720.935    20903727.5734
  25003453.713      -80984.505 9    -62729.39549  25003454.119    25003465.0784
  21750756.393      655483.481 9    502493.01349  21750756.105    21750763.4684
  22873424.839     1188083.468 9    909621.55649  22873425.047    22873433.6144
  23629935.090     -265667.851 9   -204520.83749  23629933.987    23629944.9524
  20551100.447      555863.986 9    420461.97749  20551100.339    20551107.2564
 99  5 20 18  0 30.0010000  0  8 30 04 05 06 08 09 10 24
  23181001.965     -312354.132 9   -173077.45449  23181002.186    23181009.1264
  21859957.134     1259397.596 9    965532.02049  21859957.396    21859964.6824
  20906231.775      174224.391 9    133067.81249  20906231.577    20906237.8684
  25000409.541      -96983.255 9    -75195.90449  25000410.266    25000422.5864
  21764885.848      729734.127 9    560350.62349  21764885.533    21764893.6604
  22899262.774     1323863.003 9   1015423.68949  22899262.480    22899271.6104
  23622770.377     -303317.189 9   -233857.81749  23622768.648    23622779.1434
  20562406.658      615278.710 9    466759.16749  20562406.652    20562413.6614
 99  5 20 18  1  0.0010000  0  8 30 04 05 06 08 09 10 24
  23173583.362     -351339.093 9   -203455.30249  23173583.822    23173590.3154
  21884384.050     1387761.414 9   1065555.72149  21884384.606    21884391.2354
  20908589.110      186611.587 9    142720.17449  20908588.635    20908595.1114
  24997140.056     -114164.276 9    -88583.68649  24997142.109    24997153.0394
  21778895.566      803355.630 9    617717.98349  21778895.075    21778903.4954
  22924924.238     1458714.782 9   1120502.91049  22924924.385    22924933.0254
  23615403.017     -342031.132 9   -264024.36049  23615400.768    23615412.9534
  20573582.953      674010.464 9    512524.17149  20573583.125    20573590.1664
 99  5 20 18  1 30.0010000  0  8 30 04 05 06 08 09 10 24
  23165968.810     -391352.914 9   -234634.86149  23165969.213    23165976.7604
  21908641.413     1515234.201 9   1164885.11449  21908641.923    21908648.6014
  20910797.215      198215.078 9    151761.85449  20910796.547    20910803.2054
  24993650.034     -132508.074 9   -102877.51449  24993650.876    24993661.7434
  21792790.819      876375.751 9    674616.74049  21792790.155    21792797.8254
  22950414.763     1592668.025 9   1224881.96149  22950414.928    22950423.5314
  23607840.319     -381771.452 9   -294990.68949  23607838.324    23607850.1994
  20584636.317      732096.257 9    557785.82649  20584636.233    20584643.3654
 99  5 20 18  2  0.0010000  0  8 30 04 05 06 08 09 10 24
  23158165.422     -432359.401 9   -266587.92149  23158165.526    23158172.4744
  21932735.396     1641848.734 9   1263545.74549  21932736.003    21932742.3754
  20912862.471      209068.212 9    160218.84349  20912862.087    20912868.4984
  24989946.284     -151971.995 9   -118044.18549  24989947.839    24989957.0344
  21806578.104      948828.679 9    731073.52049  21806577.610    21806585.2674
  22975742.246     1725764.326 9   1328593.26949  22975742.714    22975751.4624
  23600090.302     -422496.358 9   -326724.24449  23600088.479    23600100.4184
  20595571.981      789563.461 9    602565.46349  20595571.882    20595579.1564
 99  5 20 18  2 30.0010000  0  8 30 04 05 06 08 09 10 24
  23150181.425     -474315.530 9   -299280.95849  23150182.172    23150188.6414
  21956670.778     1767629.708 9   1361556.84049  21956671.313    21956677.9124
  20914790.506      219200.283 9    168113.96049  20914790.142    20914796.5944
  24986038.834     -172508.519 9   -134046.59149  24986039.775    24986048.7324
  21820264.340     1020750.486 9    787116.44649  21820264.006    21820271.8364
  23000907.859     1858010.085 9   1431641.81649  23000908.013    23000917.0184
  23592157.198     -464183.710 9   -359207.76549  23592155.371    23592168.3934
  20606394.698      846437.120 9    646882.59149  20606394.780    20606401.7124
 99  5 20 18  3  0.0010000  0  8 30 04 05 06 08 09 10 24
  23142023.913     -517183.477 9   -332684.51949  23142024.040    23142031.6164
  21980454.067     1892610.921 9   1458944.74949  21980454.508    21980460.7874
  20916586.165      228636.395 9    175466.77449  20916585.779    20916591.9004
  24981933.381     -194084.100 9   -150858.67649  24981933.038    24981944.2584
  21833853.609     1092162.087 9    842761.80949  21833853.748    21833861.0444
  23025911.903     1989406.897 9   1534028.83949  23025912.323    23025921.0674
  23584043.381     -506821.473 9   -392431.85449  23584042.867    23584055.3324
  20617106.065      902725.520 9    690743.67749  20617105.825    20617113.1244
 99  5 20 18  3 30.0010000  0  8 30 04 05 06 08 09 10 24
  23133697.587     -560938.356 9   -366779.18149  23133696.675    23133703.7944
  22004094.997     2016844.572 9   1555750.14649  22004095.662    22004101.9844
  20918254.462      237403.349 9    182298.16949  20918254.364    20918260.4464
  24977636.435     -216664.402 9   -168453.67149  24977635.783    24977646.6384
  21847349.412     1163082.388 9    898024.34849  21847349.235    21847356.8924
  23050759.377     2119980.080 9   1635774.07049  23050759.931    23050768.4404
  23575752.149     -550392.318 9   -426383.01949  23575751.567    23575763.1504
  20627706.842      958432.877 9    734152.00649  20627706.666    20627713.6884
 99  5 20 18  4  0.0010000  0  8 30 04 05 06 08 09 10 24
  23125206.835     -605557.045 9   -401546.95749  23125206.882    23125214.7664
  22027602.047     2140374.740 9   1652007.37049  22027602.448    22027609.0134
  20919801.003      245530.134 9    188630.72949  20919800.843    20919806.9904
  24973154.027     -240218.051 9   -186807.12549  24973153.436    24973165.0014
  21860756.130     1233534.899 9    952922.35849  21860755.354    21860762.9354
  23075453.051     2249745.067 9   1736889.52849  23075453.656    23075461.9654
  23567290.998     -594856.301 9   -461030.14949  23567289.565    23567302.1534
  20638199.489     1013571.924 9    777117.49249  20638199.312    20638206.2994
 99  5 20 18  4 30.0010000  0  8 30 04 05 06 08 09 10 24
  23116553.877     -651028.173 9   -436978.96449  23116554.392    23116561.7324
  22050979.017     2263220.740 9   1747731.46849  22050979.365    22050986.3804
  20921231.693      253047.839 9    194488.67749  20921231.423    20921237.8254
  24968488.967     -264732.206 9   -205909.01649  24968489.265    24968499.7684
  21874078.268     1303543.299 9   1007474.30749  21874077.771    21874085.5454
  23099993.498     2378705.317 9   1837377.91849  23099993.617    23100002.4604
  23558667.116     -640175.669 9   -496343.80049  23558666.934    23558677.5674
  20648589.048     1068169.394 9    819660.97249  20648589.129    20648596.1344
 99  5 20 18  5  0.0010000  0  8 30 04 05 06 08 09 10 24
  23107735.527     -697369.189 9   -473088.80749  23107735.817    23107743.1424
  22074223.144     2385369.592 9   1842912.33749  22074223.773    22074230.4654
  20922548.976      259969.801 9    199882.41949  20922548.501    20922554.7674
  24963639.313     -290216.816 9   -225767.10649  24963639.552    24963650.7514
  21887318.866     1373122.839 9   1061692.09349  21887318.974    21887326.0424
  23124383.020     2506872.854 9   1937248.62049  23124383.203    23124391.8174
  23549884.091     -686331.083 9   -532308.92149  23549883.975    23549894.1904
  20658875.106     1122222.791 9    861780.50349  20658875.158    20658881.8904
 99  5 20 18  5 30.0010000  0  8 30 04 05 06 08 09 10 24
  23098764.241     -744513.431 9   -509824.54349  23098764.228    23098771.7714
  22097347.737     2506889.437 9   1937603.06749  22097348.264    22097354.6084
  20923768.329      266377.608 9    204875.51849  20923767.667    20923774.2614
  24958618.000     -316604.041 9   -246328.49249  24958617.549    24958629.8214
  21900495.551     1442365.879 9   1115647.67749  21900495.512    21900502.9024
  23148639.149     2634339.041 9   2036572.81849  23148639.440    23148648.4384
  23540961.646     -733219.358 9   -568845.10049  23540961.761    23540971.4704
  20669073.363     1175814.924 9    903540.61049  20669073.198    20669080.2064
 99  5 20 18  6  0.0010000  0  8 30 04 05 06 08 09 10 24
  23089652.132     -792397.803 9   -547137.00549  23089652.636    23089659.7404
  22120360.050     2627819.905 9   2031834.53849  22120360.363    22120367.5024
  20924900.365      272326.547 9    209511.04949  20924899.743    20924906.3544
  24953433.212     -343847.540 9   -267557.16949  24953433.268    24953445.7834
  21913621.055     1511340.340 9   1169393.96449  21913620.906    21913628.9284
  23172772.404     2761159.999 9   2135394.23449  23172772.433    23172781.0054
  23531912.319     -780775.225 9   -605901.48749  23531911.956    23531921.1024
  20679197.082     1229015.165 9    944995.33849  20679196.980    20679203.8324
 99  5 20 18  6 30.0010000  0  8 30 04 05 06 08 09 10 24
  23080406.067     -840986.156 9   -584998.02049  23080407.007    23080414.0754
  22143263.519     2748178.055 9   2125620.04949  22143264.147    22143270.4314
  20925951.036      277848.120 9    213813.56949  20925950.576    20925957.0574
  24948092.353     -371913.534 9   -289426.68949  24948092.975    24948104.3844
  21926701.062     1580075.796 9   1222954.01149  21926701.151    21926708.4094
  23196789.354     2887369.493 9   2233739.17649  23196790.066    23196798.9154
  23522739.380     -828979.454 9   -643463.10149  23522738.277    23522748.3024
  20689254.835     1281868.850 9    986180.03049  20689254.807    20689261.9354
 99  5 20 18  7  0.0010000  0  8 30 04 05 06 08 09 10 24
  23071033.122     -890241.076 9   -623378.44149  23071032.976    23071040.3374
  22166064.223     2867996.251 9   2218984.81949  22166064.323    22166071.4274
  20926923.196      282957.142 9    217794.62749  20926922.623    20926929.1314
  24942600.035     -400775.372 9   -311916.40549  24942601.197    24942611.7164
  21939739.297     1648591.012 9   1276342.45149  21939739.155    21939746.3194
  23220694.906     3012993.052 9   2331627.55649  23220695.397    23220703.7724
  23513443.874     -877827.355 9   -681526.25249  23513442.732    23513453.0484
  20699251.362     1334400.931 9   1027114.12149  20699251.566    20699258.3464
 99  5 20 18  7 30.0010000  0  8 30 04 05 06 08 09 10 24
  23061541.534     -940119.247 9   -662244.51049  23061542.326    23061549.2524
  22188772.058     2987326.353 9   2311969.25149  22188772.672    22188779.0314
  20927820.211      287671.046 9    221467.79449  20927819.872    20927826.3054
  24936964.024     -430394.666 9   -334996.31749  24936965.008    24936974.9134
  21952737.936     1716898.690 9   1329569.17549  21952737.676    21952745.1574
  23244493.182     3138053.471 9   2429077.11549  23244493.552    23244502.2234
  23504029.597     -927298.497 9   -720075.08049  23504027.570    23504039.2134
  20709193.883     1386648.953 9   1067826.86349  20709193.853    20709200.8984
 99  5 20 18  8  0.0010000  0  8 30 04 05 06 08 09 10 24
  23051937.958     -990586.458 9   -701569.57649  23051938.745    23051945.0594
  22211392.005     3106194.805 9   2404593.95449  22211391.953    22211399.1594
  20928646.500      292012.983 9    224851.12549  20928645.920    20928652.4124
  24931191.265     -460733.608 9   -358636.96549  24931190.646    24931201.3574
  21965699.774     1785013.024 9   1382645.24049  21965699.203    21965706.5464
  23268185.432     3262556.644 9   2526092.46849  23268186.090    23268192.9774
  23494500.916     -977370.561 9   -759092.14749  23494500.586    23494509.7344
  20719086.999     1438637.845 9   1108337.68749  20719086.915    20719094.0724
 99  5 20 18  8 30.0010000  0  8 30 04 05 06 08 09 10 24
  23042226.426    -1041620.853 9   -741336.60149  23042226.249    23042234.8354
  22233926.741     3224615.792 9   2496869.98149  22233927.053    22233934.1124
  20929405.403      296001.124 9    227958.76649  20929404.845    20929411.3984
  24925284.526     -491772.474 9   -382823.06049  24925286.263    24925294.4434
  21978624.432     1852932.532 9   1435569.48649  21978623.945    21978631.7494
  23291771.343     3386501.356 9   2622672.65649  23291771.662    23291780.0094
  23484860.499    -1028030.376 9   -798567.21149  23484859.950    23484869.1644
  20728930.300     1490364.495 9   1148644.16049  20728930.300    20728937.1774
 99  5 20 18  9  0.0010000  0  8 30 04 05 06 08 09 10 24
  23032415.063    -1093179.492 9   -781512.13149  23032416.020    23032423.2604
  22256383.576     3342627.028 9   2588826.72149  22256383.696    22256391.0364
  20930101.046      299656.503 9    230807.11249  20930100.483    20930107.0374
  24919247.131     -523501.544 9   -407546.93849  24919247.214    24919256.9194
  21991516.050     1920678.470 9   1488358.47149  21991515.561    21991523.4154
  23315255.098     3509908.528 9   2718833.98249  23315254.315    23315263.7984
  23475114.818    -1079243.427 9   -838473.35349  23475113.637    23475123.8784
  20738725.282     1541837.265 9   1188752.81349  20738725.299    20738732.2324
 99  5 20 18  9 30.0010000  0  8 30 04 05 06 08 09 10 24
  23022508.382    -1145239.717 9   -822078.49849  23022508.089    23022516.3124
  22278761.665     3460224.803 9   2680461.28249  22278761.644    22278769.1984
  20930737.544      303001.151 9    233413.32649  20930737.152    20930743.7164
  24913080.595     -555903.834 9   -432795.45749  24913080.663    24913090.2414
  22004377.538     1988265.502 9   1541023.63749  22004377.197    22004385.1084
  23338641.838     3632806.534 9   2814598.54649  23338642.024    23338651.3524
  23465270.900    -1130972.576 9   -878781.66249  23465269.682    23465280.1904
  20748474.801     1593070.962 9   1228675.17349  20748474.610    20748481.5514
 99  5 20 18 10  0.0010000  0  8 30 04 05 06 08 09 10 24
  23012510.973    -1197776.215 9   -863015.99849  23012510.820    23012518.4664
  22301059.646     3577401.422 9   2771767.66149  22301060.417    22301067.2174
  20931321.212      306068.405 9    235803.39649  20931320.728    20931327.1224
  24906790.188     -588961.706 9   -458554.76349  24906789.249    24906800.5454
  22017211.201     2055706.222 9   1593574.79949  22017210.832    22017218.5124
  23361934.877     3755211.914 9   2909979.24549  23361935.209    23361944.0464
  23455332.270    -1183199.042 9   -919477.48049  23455331.502    23455341.2484
  20758180.680     1644075.692 9   1268419.11349  20758180.541    20758187.3054
 99  5 20 18 10 30.0010000  0  8 30 04 05 06 08 09 10 24
  23002426.277    -1250770.965 9   -904310.56949  23002426.372    23002434.1724
  22323279.404     3694166.475 9   2862753.35049  22323279.355    22323286.8704
  20931857.380      308885.782 9    237998.74749  20931857.237    20931863.1984
  24900375.232     -622672.127 9   -484822.56149  24900375.429    24900384.8954
  22030020.870     2123021.084 9   1646027.88649  22030020.544    22030027.9464
  23385140.002     3877156.140 9   3005000.60449  23385139.745    23385149.1924
  23445302.042    -1235908.123 9   -960549.38149  23445300.776    23445310.6264
  20767846.430     1694869.660 9   1307998.82249  20767846.299    20767853.1034
 99  5 20 18 11  0.0010000  0  8 30 04 05 06 08 09 10 24
  22992254.298    -1304225.615 9   -945963.51549  22992254.983    22992262.2574
  22345419.866     3810515.255 9   2953414.65749  22345420.377    22345427.8324
  20932350.638      311477.427 9    240018.20749  20932350.335    20932356.7714
  24893838.765     -657023.579 9   -511589.87349  24893838.814    24893849.5694
  22042809.105     2190223.848 9   1698393.62949  22042808.761    22042816.6244
  23408262.055     3998663.345 9   3099681.42149  23408262.707    23408271.6884
  23435183.694    -1289079.897 9  -1001981.80049  23435183.170    23435193.2054
  20777478.500     1745486.406 9   1347440.43749  20777478.061    20777485.2814
 99  5 20 18 11 30.0010000  0  8 30 04 05 06 08 09 10 24
  22981994.515    -1358140.929 9   -987975.42249  22981994.916    22982002.1224
  22367480.336     3926443.596 9   3043748.35649  22367480.725    22367487.5864
  20932807.019      313875.698 9    241886.99149  20932806.560    20932812.9344
  24887185.350     -691988.191 9   -538834.96649  24887184.621    24887194.5254
  22055579.398     2257331.813 9   1750685.50449  22055578.631    22055586.7434
  23431303.833     4119747.808 9   3194032.82049  23431304.306    23431313.0884
  23424980.850    -1342695.883 9  -1043760.37349  23424979.644    23424989.8564
  20787081.034     1795948.174 9   1386761.28949  20787081.073    20787088.1924
 99  5 20 18 12  0.0010000  0  8 30 04 05 06 08 09 10 24
  22971647.363    -1412516.119 9  -1030345.65749  22971647.909    22971655.0744
  22389465.968     4041978.704 9   3133775.63749  22389466.635    22389473.2324
  20933230.208      316099.711 9    243619.98149  20933229.837    20933236.1924
  24880416.118     -727561.160 9   -566554.09349  24880415.337    24880426.7254
  22068334.655     2324360.571 9   1802915.64849  22068334.080    22068342.1104
  23454262.828     4240396.619 9   3288044.75749  23454264.600    23454272.1724
  23414695.504    -1396745.126 9  -1085876.55849  23414693.945    23414705.0854
  20796656.046     1846264.873 9   1425969.10049  20796655.965    20796663.0354
 99  5 20 18 12 30.0010000  0  8 30 04 05 06 08 09 10 24
  22961211.539    -1467357.792 9  -1073079.39149  22961211.774    22961219.2724
  22411378.317     4157128.342 9   3223502.56449  22411379.035    22411385.5184
  20933617.396      318134.512 9    245205.53549  20933616.959    20933623.3214
  24873528.295     -763755.149 9   -594757.12549  24873528.205    24873539.0174
  22081076.256     2391318.139 9   1855090.32149  22081075.859    22081083.3884
  23477137.641     4360602.561 9   3381711.58849  23477138.345    23477146.8734
  23404329.982    -1451215.365 9  -1128320.79549  23404329.370    23404340.0254
  20806203.367     1896436.069 9   1465063.52549  20806203.485    20806210.2004
 99  5 20 18 13  0.0010000  0  8 30 04 05 06 08 09 10 24
  22950685.705    -1522671.677 9  -1116181.09349  22950686.061    22950693.0504
  22433218.433     4271898.163 9   3312933.52149  22433218.946    22433225.8974
  20933965.069      319961.579 9    246629.21349  20933964.658    20933971.0454
  24866522.800     -800568.695 9   -623442.92949  24866521.905    24866533.2464
  22093802.810     2458196.141 9   1907202.99949  22093802.799    22093810.4284
  23499924.121     4480345.382 9   3475017.56249  23499924.191    23499933.8254
  23393884.532    -1506105.492 9  -1171092.22649  23393883.372    23393894.1854
  20815720.721     1946449.680 9   1504035.16149  20815720.846    20815727.5254
 99  5 20 18 13 30.0010000  0  8 30 04 05 06 08 09 10 24
  22940073.324    -1578439.880 9  -1159636.81349  22940074.157    22940080.9294
  22454991.572     4386316.235 9   3402090.39349  22454992.422    22454998.9074
  20934272.399      321576.394 9    247887.50049  20934272.395    20934278.5544
  24859401.569     -837989.152 9   -652601.64049  24859401.175    24859412.2294
  22106516.730     2525007.424 9   1959263.68849  22106516.577    22106523.8474
  23522620.662     4599616.221 9   3567955.75749  23522621.298    23522630.1904
  23383361.079    -1561406.056 9  -1214183.48749  23383360.566    23383371.4864
  20825205.482     1996292.490 9   1542873.70849  20825205.170    20825212.1634
 99  5 20 18 14  0.0010000  0  8 30 04 05 06 08 09 10 24
  22929375.623    -1634657.495 9  -1203442.70749  22929376.213    22929383.1934
  22476696.904     4500377.776 9   3490969.44549  22476696.917    22476704.3064
  20934534.797      322954.967 9    248961.70349  20934534.413    20934540.5324
  24852164.110     -876021.213 9   -682236.90049  24852162.596    24852174.1784
  22119215.638     2591740.262 9   2011263.26149  22119215.036    22119222.6614
  23545225.132     4718404.048 9   3660517.56249  23545225.080    23545234.4904
  23372760.622    -1617111.929 9  -1257590.56549  23372760.505    23372771.3434
  20834655.809     2045954.390 9   1581571.28049  20834655.738    20834662.3764
 99  5 20 18 14 30.0010000  0  8 30 04 05 06 08 09 10 24
  22918600.454    -1691281.907 9  -1247565.58949  22918600.443    22918607.2744
  22498337.421     4614099.482 9   3579583.68949  22498337.945    22498344.4884
  20934755.602      324115.351 9    249865.89749  20934755.211    20934761.5604
  24844817.648     -914625.929 9   -712318.38249  24844816.931    24844827.4034
  22131902.291     2658409.522 9   2063213.28249  22131901.533    22131909.6964
  23567743.987     4836740.775 9   3752727.87749  23567744.650    23567753.1634
  23362088.946    -1673192.629 9  -1301289.70049  23362087.863    23362098.3504
  20844075.753     2095456.506 9   1620144.35249  20844075.697    20844082.5044
 99  5 20 18 15  0.0010000  0  8 30 04 05 06 08 09 10 24
  22907754.824    -1748275.539 9  -1291976.17149  22907754.342    22907761.8994
  22519919.236     4727512.419 9   3667957.32649  22519919.764    22519927.1064
  20934942.447      325097.101 9    250630.88649  20934942.161    20934948.6544
  24837370.841     -953757.929 9   -742810.75649  24837369.997    24837380.7054
  22144581.635     2725040.258 9   2115133.27149  22144581.255    22144589.1584
  23590182.496     4954655.436 9   3844609.31149  23590183.006    23590191.9984
  23351351.689    -1729617.681 9  -1345257.18049  23351351.366    23351361.3764
  20853472.370     2144835.985 9   1658621.85649  20853472.391    20853479.1154
 99  5 20 18 15 30.0010000  0  8 30 04 05 06 08 09 10 24
  22896844.364    -1805609.436 9  -1336651.91349  22896844.624    22896851.5594
  22541442.928     4840619.763 9   3756092.84849  22541443.334    22541449.9344
  20935101.040      325930.336 9    251280.15349  20935100.482    20935107.0524
  24829828.122     -993394.681 9   -773696.44249  24829827.308    24829838.1024
  22157257.589     2791652.575 9   2167038.91049  22157257.050    22157265.1094
  23612545.152     5072171.460 9   3936180.10749  23612545.485    23612553.7454
  23340553.146    -1786364.851 9  -1389475.64949  23340553.171    23340562.6604
  20862851.553     2194123.569 9   1697027.75949  20862851.428    20862858.1864
 99  5 20 18 16  0.0010000  0  8 30 04 05 06 08 09 10 24
  22885875.823    -1863248.524 9  -1381565.45849  22885875.668    22885882.6824
  22562910.623     4953432.484 9   3843998.79349  22562910.992    22562918.2164
  20935236.840      326643.981 9    251836.23349  20935236.288    20935242.9044
  24822191.796    -1033523.422 9   -804965.53049  24822192.374    24822201.5134
  22169932.109     2858258.176 9   2218939.31949  22169931.466    22169939.7444
  23634837.706     5189319.025 9   4027463.78549  23634837.932    23634847.2904
  23329697.547    -1843411.692 9  -1433927.63849  23329697.027    23329707.7074
  20872220.199     2243355.709 9   1735390.45749  20872220.183    20872226.9304
 99  5 20 18 16 30.0010000  0  8 30 04 05 06 08 09 10 24
  22874851.128    -1921183.350 9  -1426709.46249  22874851.790    22874858.9324
  22584324.991     5065965.247 9   3931686.59249  22584325.737    22584332.0514
  20935358.331      327282.218 9    252333.55449  20935358.003    20935364.4104
  24814463.417    -1074139.086 9   -836614.01249  24814463.844    24814473.0234
  22182608.420     2924872.748 9   2270846.70949  22182608.430    22182616.2954
  23657061.918     5306106.937 9   4118467.20649  23657061.817    23657072.0824
  23318785.923    -1900753.042 9  -1478609.11249  23318785.181    23318795.1274
  20881579.481     2292539.076 9   1773715.14649  20881579.553    20881586.4724
 99  5 20 18 17  0.0010000  0  8 30 04 05 06 08 09 10 24
  22863770.255    -1979413.516 9  -1472083.58349  22863770.351    22863777.9194
  22605686.423     5178220.374 9   4019158.05349  22605686.669    22605693.8294
  20935470.234      327869.829 9    252791.42749  20935469.796    20935476.2704
  24806641.564    -1115244.761 9   -868644.36349  24806642.049    24806651.0584
  22195290.648     2991518.169 9   2322778.15449  22195290.280    22195298.5354
  23679219.272     5422544.562 9   4209197.68149  23679219.058    23679229.0924
  23307819.560    -1958381.532 9  -1523514.33949  23307819.342    23307828.2294
  20890931.251     2341682.520 9   1812008.73349  20890931.279    20890938.1474
 99  5 20 18 17 30.0020000  0  8 30 04 05 06 08 09 10 24
  22852637.650    -2037915.831 9  -1517669.77849  22852637.918    22852645.3264
  22626997.917     5290213.097 9   4106425.03649  22626998.525    22627005.3114
  20935578.504      328438.850 9    253234.80849  20935578.261    20935584.5774
  24798727.612    -1156834.396 9   -901051.79249  24798727.438    24798738.0294
  22207981.718     3058210.004 9   2374745.75849  22207981.664    22207989.2544
  23701314.870     5538657.590 9   4299675.21449  23701315.741    23701324.6164
  23296801.494    -2016280.718 9  -1568630.50149  23296800.471    23296810.8914
  20900276.582     2390792.549 9   1850276.27249  20900276.500    20900283.5534
 99  5 20 18 18  0.0020000  0  8 30 04 05 06 08 09 10 24
  22841432.150    -2096801.329 9  -1563554.54649  22841432.425    22841439.7614
  22648237.320     5401826.897 9   4193396.76249  22648237.891    22648245.1764
  20935663.989      328887.918 9    253584.72149  20935664.001    20935670.0574
  24790700.022    -1199019.150 9   -933922.92149  24790698.816    24790710.0654
  22220658.925     3124828.888 9   2426656.52549  22220658.478    22220667.4294
  23723324.656     5654318.723 9   4389800.63749  23723325.873    23723333.9644
  23285712.239    -2074555.102 9  -1614039.02449  23285711.148    23285721.9104
  20909588.281     2439726.215 9   1888406.39549  20909588.083    20909594.9294
 99  5 20 18 18 30.0020000  0  8 30 04 05 06 08 09 10 24
  22830144.331    -2156119.697 9  -1609776.62049  22830144.430    22830151.6234
  22669399.044     5513031.921 9   4280049.95449  22669399.461    22669406.9324
  20935720.060      329182.222 9    253814.03549  20935719.763    20935726.1034
  24782553.331    -1241828.295 9   -967280.57849  24782552.646    24782563.6164
  22233318.549     3191355.220 9   2478495.15449  22233318.234    22233326.2754
  23745241.378     5769490.462 9   4479544.69849  23745242.261    23745250.9194
  23274545.846    -2133234.152 9  -1659762.86349  23274544.928    23274554.6334
  20918858.510     2488441.635 9   1926366.44749  20918858.536    20918865.1944
 99  5 20 18 19  0.0020000  0  8 30 04 05 06 08 09 10 24
  22818787.239    -2215802.012 9  -1656282.29549  22818787.482    22818795.0014
  22690493.370     5623882.782 9   4366427.16649  22690493.548    22690501.1344
  20935754.393      329362.608 9    253954.58249  20935754.119    20935760.2154
  24774301.244    -1285190.737 9  -1001069.39249  24774300.619    24774312.7334
  22245970.222     3257840.055 9   2530301.44449  22245970.285    22245978.1074
  23767077.368     5884238.172 9   4568958.35349  23767077.375    23767086.4524
  23263316.511    -2192244.561 9  -1705744.91149  23263316.321    23263325.5264
  20928101.849     2537015.400 9   1964216.11949  20928101.707    20928108.5954
 99  5 20 18 19 30.0020000  0  8 30 04 05 06 08 09 10 24
  22807368.681    -2275807.433 9  -1703039.74149  22807368.627    22807375.7414
  22711527.193     5734416.078 9   4452556.93449  22711527.856    22711535.2784
  20935769.910      329443.851 9    254017.87749  20935769.588    20935775.9204
  24765950.354    -1329073.299 9  -1035263.50749  24765950.199    24765960.6004
  22258615.431     3324290.098 9   2582080.63849  22258615.441    22258623.5604
  23788837.982     5998590.400 9   4658063.82949  23788839.429    23788847.4684
  23252031.845    -2251546.246 9  -1751953.92749  23252031.024    23252041.2934
  20937323.689     2585476.302 9   2001977.84549  20937323.563    20937330.4044
 99  5 20 18 20  0.0020000  0  8 30 04 05 06 08 09 10 24
  22795893.099    -2336111.969 9  -1750030.25649  22795893.261    22795900.4494
  22732506.818     5844663.736 9   4538464.12249  22732507.153    22732514.6754
  20935769.746      329442.656 9    254016.93549  20935769.378    20935775.8164
  24757507.403    -1373442.433 9  -1069836.74949  24757507.234    24757517.6974
  22271258.040     3390726.825 9   2633849.44649  22271258.409    22271265.7534
  23810528.755     6112575.277 9   4746883.06649  23810529.413    23810538.3754
  23240699.954    -2311095.186 9  -1798355.58649  23240698.389    23240708.2954
  20946530.674     2633858.991 9   2039678.62949  20946530.938    20946537.3544
 99  5 20 18 20 30.0020000  0  8 30 04 05 06 08 09 10 24
  22784365.604    -2396689.712 9  -1797233.66849  22784365.552    22784373.1654
  22753435.034     5954641.767 9   4624161.21349  22753435.604    22753442.7754
  20935756.963      329375.163 9    253964.33149  20935756.427    20935762.7284
  24748974.601    -1418282.775 9  -1104777.18449  24748975.861    24748983.4504
  22283900.306     3457161.749 9   2685616.85049  22283900.237    22283907.7264
  23832152.805     6226209.503 9   4835429.05949  23832152.754    23832162.7004
  23229324.221    -2370873.875 9  -1844936.28549  23229323.274    23229332.3464
  20955731.306     2682208.262 9   2077353.36949  20955731.329    20955737.9244
 99  5 20 18 21  0.0020000  0  8 30 04 05 06 08 09 10 24
  22772795.010    -2457493.855 9  -1844613.49349  22772794.702    22772801.7744
  22774315.035     6064366.708 9   4709661.08649  22774315.609    22774323.5674
  20935736.622      329268.439 9    253881.16149  20935736.221    20935742.9114
  24740355.917    -1463576.856 9  -1140071.14049  24740356.767    24740364.8824
  22296544.450     3523607.004 9   2737392.30249  22296544.254    22296552.2964
  23853713.921     6339513.019 9   4923717.36849  23853713.917    23853724.2934
  23217908.940    -2430861.265 9  -1891679.60349  23217908.376    23217917.7074
  20964927.974     2730536.933 9   2115012.05849  20964927.793    20964934.6924
 99  5 20 18 21 30.0020000  0  8 30 04 05 06 08 09 10 24
  22761186.449    -2518496.442 9  -1892147.93849  22761186.738    22761193.5474
  22795151.316     6173861.269 9   4794981.44049  22795152.085    22795159.0404
  20935714.908      329154.329 9    253792.23549  20935714.576    20935720.6974
  24731653.738    -1509308.505 9  -1175706.06449  24731653.493    24731663.3384
  22309194.846     3590085.326 9   2789193.53249  22309195.256    22309202.5954
  23875214.608     6452499.034 9   5011758.26849  23875214.673    23875224.3714
  23206455.836    -2491047.070 9  -1938577.50549  23206455.405    23206463.6464
  20974120.477     2778843.728 9   2152653.69849  20974120.628    20974127.4544
 99  5 20 18 22  0.0020000  0  8 30 04 05 06 08 09 10 24
  22749540.273    -2579696.721 9  -1939836.44749  22749540.731    22749547.6174
  22815941.892     6283116.020 9   4880114.93149  22815942.722    22815949.7184
  20935696.627      329058.139 9    253717.26849  20935696.349    20935702.6504
  24722869.388    -1555469.607 9  -1211675.65649  24722867.385    24722878.5514
  22321856.696     3656623.138 9   2841041.11149  22321856.420    22321864.2784
  23896654.344     6565164.529 9   5099549.38049  23896654.061    23896664.2414
  23194964.630    -2551433.996 9  -1985632.15849  23194963.731    23194973.5844
  20983312.027     2827145.265 9   2190291.23949  20983312.055    20983318.9714
 99  5 20 18 22 30.0020000  0  8 30 04 05 06 08 09 10 24
  22737859.727    -2641077.475 9  -1987665.57049  22737859.887    22737866.8924
  22836685.750     6392125.166 9   4965057.04749  22836685.931    22836694.1344
  20935682.988      328986.261 9    253661.24949  20935682.619    20935688.8564
  24714003.266    -1602059.215 9  -1247979.15749  24714001.053    24714014.0694
  22334532.264     3723234.194 9   2892945.75749  22334531.825    22334540.2844
  23918031.133     6677500.579 9   5187083.82149  23918031.721    23918040.8924
  23183434.921    -2612022.218 9  -2032843.65449  23183432.933    23183443.0224
  20992502.907     2875443.560 9   2227926.25549  20992502.793    20992509.8894
 99  5 20 18 23  0.0020000  0  8 30 04 05 06 08 09 10 24
  22726147.405    -2702626.746 9  -2035626.01549  22726147.505    22726155.2744
  22857385.439     6500902.216 9   5049818.30449  22857386.001    22857393.0914
  20935674.890      328943.476 9    253627.89649  20935674.584    20935680.8374
  24705061.276    -1649045.667 9  -1284591.89649  24705060.672    24705073.2504
  22347224.697     3789932.954 9   2944918.74049  22347224.708    22347232.2744
  23939349.029     6789526.868 9   5274376.86349  23939349.273    23939358.9814
  23171871.353    -2672789.027 9  -2080194.31549  23171870.658    23171879.8444
  21001695.378     2923750.449 9   2265567.96549  21001695.299    21001702.1444
 99  5 20 18 23 30.0020000  0  8 30 04 05 06 08 09 10 24
  22714400.776    -2764355.999 9  -2083726.69449  22714401.277    22714407.8184
  22878042.652     6609455.607 9   5134405.28349  22878043.560    22878050.2484
  20935673.255      328934.661 9    253621.01749  20935672.875    20935679.2024
  24696047.702    -1696409.976 9  -1321499.04849  24696046.902    24696059.4474
  22359935.330     3856726.841 9   2996965.84249  22359935.339    22359943.2034
  23960609.880     6901252.186 9   5361435.40649  23960610.285    23960620.9014
  23160277.419    -2733714.666 9  -2127668.73449  23160276.484    23160285.7694
  21010896.460     2972102.572 9   2303244.92749  21010896.469    21010903.2904
 99  5 20 18 24  0.0020000  0  8 30 04 05 06 08 09 10 24
  22702619.187    -2826269.317 9  -2131970.81049  22702619.194    22702626.2694
  22898657.176     6717784.863 9   5218817.59849  22898657.769    22898665.0154
  20935677.673      328957.621 9    253638.89149  20935677.402    20935683.7154
  24686963.829    -1744144.237 9  -1358694.49249  24686963.491    24686975.4564
  22372667.226     3923632.669 9   3049100.18349  22372667.225    22372674.9264
  23981813.547     7012678.543 9   5448260.98349  23981813.646    23981824.3334
  23148658.692    -2794771.096 9  -2175245.08049  23148658.207    23148667.1514
  21020109.415     3020516.875 9   2340970.33649  21020109.451    21020116.2044
 99  5 20 18 24 30.0020000  0  8 30 04 05 06 08 09 10 24
  22690805.003    -2888352.826 9  -2180347.54049  22690805.692    22690812.2004
  22919232.695     6825909.653 9   5303070.60549  22919233.065    22919240.5624
  20935688.497      329014.308 9    253683.05449  20935688.105    20935694.4334
  24677813.272    -1792231.386 9  -1396164.91749  24677813.105    24677823.9514
  22385420.383     3990650.053 9   3101321.45749  22385419.706    22385427.4574
  24002960.854     7123808.612 9   5534855.68649  24002960.946    24002970.1334
  23137019.612    -2855933.988 9  -2222904.38649  23137019.275    23137028.0854
  21029330.616     3068974.532 9   2378729.53149  21029330.587    21029337.5864
 99  5 20 18 25  0.0020000  0  8 30 04 05 06 08 09 10 24
  22678958.288    -2950607.450 9  -2228857.60849  22678958.164    22678965.4834
  22939772.051     6933844.502 9   5387175.58649  22939772.716    22939780.3014
  20935708.391      329118.879 9    253764.52549  20935707.801    20935714.3634
  24668598.267    -1840657.123 9  -1433899.15049  24668598.145    24668607.5224
  22398196.766     4057790.055 9   3153638.27249  22398196.231    22398204.4774
  24024054.359     7234655.126 9   5621229.43649  24024055.273    24024064.1204
  23125364.439    -2917182.376 9  -2270630.30549  23125363.704    23125373.7114
  21038560.893     3117479.796 9   2416525.81949  21038560.897    21038567.5654
 99  5 20 18 25 30.0020000  0  8 30 04 05 06 08 09 10 24
  22667082.642    -3013014.167 9  -2277486.18249  22667082.425    22667089.6664
  22960276.915     7041598.030 9   5471139.29949  22960277.051    22960285.4644
  20935742.698      329299.381 9    253905.15849  20935742.397    20935748.9304
  24659316.838    -1889431.595 9  -1471905.16249  24659317.080    24659326.5144
  22411000.586     4125074.485 9   3206067.62049  22411000.277    22411008.6594
  24045094.589     7345221.343 9   5707384.78449  24045094.947    24045104.9624
  23113697.403    -2978493.405 9  -2318405.02449  23113696.801    23113706.1574
  21047800.152     3166032.396 9   2454358.99849  21047800.201    21047806.7584
 99  5 20 18 26  0.0020000  0  8 30 04 05 06 08 09 10 24
  22655182.172    -3075551.714 9  -2326216.70849  22655182.164    22655189.7904
  22980748.547     7149177.173 9   5554967.11349  22980749.668    22980756.0824
  20935796.007      329579.409 9    254123.33949  20935795.610    20935802.2464
  24649968.704    -1938556.877 9  -1510184.49749  24649968.592    24649977.7204
  22423832.835     4192508.468 9   3258613.50249  22423832.384    22423840.8554
  24066082.614     7455512.910 9   5793326.09849  24066083.177    24066093.8744
  23102019.889    -3039859.363 9  -2366222.55649  23102018.565    23102028.3334
  21057043.036     3214603.856 9   2492206.87149  21057042.953    21057049.6754
 99  5 20 18 26 30.0020000  0  8 30 04 05 06 08 09 10 24
  22643261.006    -3138197.402 9  -2375031.49649  22643261.007    22643268.3984
  23001188.703     7256590.715 9   5638665.89549  23001189.278    23001196.9894
  20935869.748      329966.562 9    254424.99849  20935869.239    20935875.8454
  24640554.164    -1988031.315 9  -1548735.94449  24640554.269    24640563.4924
  22436691.326     4260079.588 9   3311266.23349  22436691.172    22436699.2144
  24087020.075     7565539.066 9   5879060.59049  24087020.293    24087029.9854
  23090332.545    -3101277.075 9  -2414080.39949  23090330.976    23090341.1174
  21066290.962     3263201.786 9   2530075.36849  21066290.860    21066297.7164
 99  5 20 18 27  0.0020000  0  8 30 04 05 06 08 09 10 24
  22631322.040    -3200937.097 9  -2423919.53649  22631322.611    22631329.7034
  23021595.670     7363830.058 9   5722228.92349  23021596.390    23021603.2454
  20935963.432      330458.812 9    254808.55449  20935963.104    20935969.4074
  24631071.395    -2037863.763 9  -1587566.34949  24631070.874    24631081.2874
  22449574.365     4327779.900 9   3364019.65549  22449574.033    22449582.3784
  24107910.217     7675315.992 9   5964600.88449  24107910.671    24107920.4334
  23078635.517    -3162745.070 9  -2461977.43949  23078633.764    23078643.9994
  21075548.388     3311849.809 9   2567982.90449  21075548.361    21075555.4744
 99  5 20 18 27 30.0020000  0  8 30 04 05 06 08 09 10 24
  22619369.814    -3263746.495 9  -2472861.89049  22619369.976    22619377.3904
  23041970.781     7470901.410 9   5805661.05649  23041971.185    23041978.4324
  20936080.786      331075.321 9    255288.94149  20936080.353    20936086.8544
  24621520.435    -2088054.302 9  -1626675.79649  24621520.206    24621531.3844
  22462480.964     4395604.397 9   3416869.83449  22462480.368    22462488.7834
  24128753.395     7784846.466 9   6049949.13549  24128753.412    24128764.0524
  23066930.319    -3224255.871 9  -2509907.81849  23066929.387    23066938.6164
  21084816.450     3360553.649 9   2605933.92149  21084816.805    21084823.3864
 99  5 20 18 28  0.0020000  0  8 30 04 05 06 08 09 10 24
  22607406.883    -3326611.597 9  -2521847.65349  22607407.328    22607414.7474
  23062317.277     7577822.796 9   5888976.33249  23062317.680    23062324.9644
  20936222.255      331818.660 9    255868.16149  20936221.765    20936228.3374
  24611906.122    -2138578.942 9  -1666045.55649  24611906.372    24611915.7144
  22475409.618     4463545.077 9   3469810.55349  22475409.248    22475418.0584
  24149552.366     7894145.924 9   6135117.37849  24149552.623    24149562.3994
  23055218.910    -3285799.138 9  -2557863.51649  23055217.725    23055227.2554
  21094097.661     3409326.388 9   2643938.63749  21094097.690    21094104.3184
 99  5 20 18 28 30.0020000  0  8 30 04 05 06 08 09 10 24
  22595433.868    -3389530.026 9  -2570874.97349  22595433.797    22595441.5204
  23082634.059     7684587.828 9   5972169.77849  23082634.405    23082641.9564
  20936386.406      332681.582 9    256540.55749  20936385.902    20936392.5114
  24602229.535    -2189430.499 9  -1705670.05749  24602229.461    24602240.7124
  22488360.881     4531604.264 9   3522843.60749  22488360.732    22488368.9374
  24170306.859     8003210.948 9   6220102.93349  24170307.644    24170317.8454
  23043502.432    -3347368.776 9  -2605839.75549  23043501.356    23043511.2404
  21103397.604     3458197.848 9   2682020.27049  21103397.552    21103404.4734
 99  5 20 18 29  0.0020000  0  8 30 04 05 06 08 09 10 24
  22583450.047    -3452505.260 9  -2619946.54749  22583450.253    22583457.4484
  23102920.370     7791192.604 9   6055238.34349  23102920.911    23102928.8564
  20936577.111      333683.749 9    257321.45749  20936576.989    20936583.6344
  24592490.856    -2240606.126 9  -1745547.08049  24592489.414    24592500.6544
  22501337.076     4599793.711 9   3575978.16049  22501336.649    22501344.8784
  24191015.588     8112034.288 9   6304900.16149  24191016.138    24191025.7324
  23031780.675    -3408966.716 9  -2653838.05049  23031779.741    23031788.8724
  21112714.361     3507157.955 9   2720170.98249  21112714.292    21112721.0174
 99  5 20 18 29 30.0020000  0  8 30 04 05 06 08 09 10 24
  22571455.404    -3515537.547 9  -2669062.58649  22571455.736    22571462.9604
  23123177.707     7897645.523 9   6138188.58649  23123177.677    23123186.2514
  20936795.992      334833.852 9    258217.62349  20936795.778    20936802.1784
  24582693.556    -2292089.346 9  -1785663.83249  24582693.605    24582703.3614
  22514340.358     4668125.967 9   3629223.98549  22514340.027    22514348.4234
  24211676.913     8220609.445 9   6389504.00449  24211678.104    24211686.8054
  23020054.346    -3470588.794 9  -2701855.15749  23020053.509    23020062.4504
  21122047.976     3556206.174 9   2758390.35049  21122047.851    21122054.6884
 99  5 20 18 30  0.0020000  0  8 30 04 05 06 08 09 10 24
  22559449.007    -3578631.073 9  -2718226.34849  22559449.258    22559456.1354
  23143404.687     8003939.103 9   6221014.66049  23143404.824    23143413.1834
  20937042.450      336128.556 9    259226.46649  20937042.117    20937048.6024
  24572842.831    -2343854.262 9  -1826000.04649  24572841.526    24572852.0784
  22527372.573     4736611.032 9   3682588.89149  22527372.245    22527380.4674
  24232292.774     8328945.247 9   6473921.35149  24232293.123    24232303.0124
  23008322.850    -3532237.876 9  -2749893.31649  23008321.970    23008331.5724
  21131402.059     3605362.165 9   2796693.69449  21131402.185    21131409.0714
 99  5 20 18 30 30.0020000  0  8 30 04 05 06 08 09 10 24
  22547433.650    -3641771.865 9  -2767426.93449  22547434.296    22547441.2344
  23163599.912     8110065.435 9   6303710.41149  23163600.283    23163608.6684
  20937318.388      337578.354 9    260356.16549  20937318.046    20937324.3884
  24562940.262    -2395891.508 9  -1866548.51249  24562939.651    24562950.4074
  22540436.225     4805260.588 9   3736081.96449  22540436.570    22540444.2634
  24252861.124     8437032.525 9   6558145.03149  24252861.074    24252870.8994
  22996587.353    -3593908.263 9  -2797948.05949  22996586.564    22996596.2364
  21140775.775     3654621.043 9   2835077.21449  21140775.676    21140782.6334
 99  5 20 18 31  0.0020000  0  8 30 04 05 06 08 09 10 24
  22535412.086    -3704945.650 9  -2816653.23249  22535412.678    22535419.5814
  23183765.065     8216033.811 9   6386283.08449  23183765.673    23183774.0244
  20937625.924      339194.244 9    261615.28649  20937625.483    20937631.8424
  24552989.261    -2448185.408 9  -1907296.94449  24552989.599    24552999.1714
  22553529.922     4874067.745 9   3789697.84849  22553529.586    22553537.9034
  24273383.631     8544879.785 9   6642181.68649  24273383.966    24273394.0324
  22984851.816    -3655579.139 9  -2846003.20049  22984850.709    22984860.4954
  21150166.084     3703967.041 9   2873528.61649  21150165.955    21150173.0024
 99  5 20 18 31 30.0020000  0  8 30 04 05 06 08 09 10 24
  22523386.228    -3768143.144 9  -2865898.00749  22523386.744    22523393.2034
  23203901.784     8321852.678 9   6468739.24749  23203902.133    23203910.9554
  20937965.073      340976.703 9    263004.20149  20937964.699    20937971.0344
  24542992.154    -2500720.755 9  -1948233.54649  24542992.990    24543001.8924
  22566651.343     4943021.067 9   3843427.64449  22566651.232    22566659.4344
  24293861.517     8652490.961 9   6726034.36649  24293862.519    24293872.9334
  22973120.226    -3717228.647 9  -2894041.68749  22973119.530    22973128.9764
  21159573.620     3753403.936 9   2912050.84849  21159573.532    21159580.3954
 99  5 20 18 32  0.0020000  0  8 30 04 05 06 08 09 10 24
  22511356.601    -3831359.637 9  -2915157.58749  22511357.122    22511364.2784
  23224007.431     8427508.407 9   6551068.29749  23224008.374    23224015.7344
  20938336.505      342928.533 9    264525.09349  20938336.381    20938342.5554
  24532946.054    -2553515.234 9  -1989372.01649  24532946.015    24532955.4164
  22579798.404     5012108.691 9   3897262.07849  22579797.881    22579806.4314
  24314291.964     8759851.284 9   6809691.58549  24314292.715    24314302.9544
  22961395.134    -3778843.893 9  -2942053.47949  22961393.958    22961403.0144
  21168995.772     3802917.570 9   2950632.87149  21168995.559    21169002.5164
 99  5 20 18 32 30.0020000  0  8 30 04 05 06 08 09 10 24
  22499324.591    -3894588.430 9  -2964426.74449  22499324.891    22499331.9254
  23244082.423     8533002.355 9   6633271.29349  23244082.806    23244091.1464
  20938742.551      345062.086 9    266187.58449  20938742.061    20938748.6724
  24522845.033    -2606595.911 9  -2030733.52549  24522843.998    24522854.2054
  22592969.695     5081323.670 9   3951195.75849  22592968.963    22592977.7744
  24334675.016     8866963.510 9   6893155.46449  24334675.725    24334686.1184
  22949680.132    -3840405.797 9  -2990023.70749  22949679.028    22949688.1764
  21178429.114     3852490.277 9   2989260.92249  21178429.219    21178435.8924
 99  5 20 18 33  0.0020000  0  8 30 04 05 06 08 09 10 24
  22487289.841    -3957831.623 9  -3013707.11849  22487289.813    22487296.7074
  23264128.390     8638343.541 9   6715355.25249  23264129.568    23264136.5144
  20939186.323      347394.063 9    268004.69449  20939185.813    20939192.4184
  24512688.269    -2659968.808 9  -2072322.73149  24512687.420    24512697.8444
  22606166.147     5150671.862 9   4005233.24449  22606165.647    22606174.4874
  24355012.951     8973838.348 9   6976434.37949  24355013.105    24355023.7604
  22937976.952    -3901905.430 9  -3037945.39449  22937975.430    22937984.7574
  21187878.360     3902146.208 9   3027953.82649  21187878.617    21187885.2334
 99  5 20 18 33 30.0020000  0  8 30 04 05 06 08 09 10 24
  22475252.605    -4021087.564 9  -3062997.43449  22475253.176    22475259.6064
  23284145.667     8743534.463 9   6797322.12749  23284146.441    23284154.1674
  20939669.331      349932.032 9    269982.31349  20939668.689    20939675.3204
  24502472.886    -2713650.514 9  -2114152.55949  24502473.041    24502483.1034
  22619391.775     5220172.957 9   4059389.85349  22619391.891    22619400.2594
  24375305.487     9080475.885 9   7059528.37149  24375306.147    24375316.8404
  22926283.772    -3963353.197 9  -3085826.68449  22926282.025    22926291.7934
  21197347.227     3951905.084 9   3066726.95349  21197347.502    21197353.9464
 99  5 20 18 34  0.0020000  0  8 30 04 05 06 08 09 10 24
  22463213.599    -4084353.236 9  -3112295.33549  22463213.991    22463220.4574
  23304132.816     8848567.509 9   6879165.97449  23304133.094    23304140.5784
  20940192.131      352679.528 9    272123.19849  20940191.707    20940198.0414
  24492196.654    -2767653.041 9  -2156232.38049  24492197.115    24492206.4624
  22632649.197     5289840.575 9   4113676.22949  22632648.923    22632657.6164
  24395553.336     9186879.091 9   7142439.75849  24395553.410    24395564.7374
  22914600.024    -4024751.298 9  -3133669.27449  22914598.963    22914607.8444
  21206838.658     4001782.377 9   3105592.34649  21206838.931    21206845.5884
 99  5 20 18 34 30.0020000  0  8 30 04 05 06 08 09 10 24
  22451171.916    -4147633.023 9  -3161604.23249  22451172.377    22451178.9694
  23324091.763     8953452.228 9   6960894.24049  23324092.587    23324099.9384
  20940755.768      355641.590 9    274431.28049  20940755.347    20940761.8984
  24481862.621    -2821960.740 9  -2198550.00949  24481863.778    24481871.0934
  22645938.805     5359677.673 9   4168094.65949  22645938.753    22645947.4354
  24415756.757     9293047.854 9   7225168.46349  24415757.533    24415767.7824
  22902924.402    -4086107.180 9  -3181478.96249  22902923.336    22902932.0784
  21216354.627     4051788.975 9   3144558.49849  21216354.523    21216361.4404
 99  5 20 18 35  0.0020000  0  8 30 04 05 06 08 09 10 24
  22439127.733    -4210925.338 9  -3210922.88849  22439128.155    22439134.5694
  23344023.742     9058195.204 9   7042512.05549  23344024.288    23344032.1504
  20941356.747      358799.825 9    276892.22849  20941356.401    20941363.0994
  24471473.966    -2876553.672 9  -2241089.87649  24471473.391    24471482.9434
  22659261.956     5429690.987 9   4222650.41049  22659261.350    22659270.5624
  24435911.625     9398961.054 9   7307698.04249  24435912.820    24435922.3954
  22891256.195    -4147423.916 9  -3229258.15049  22891255.683    22891264.2214
  21225893.758     4101917.403 9   3183619.59049  21225893.799    21225900.6034
 99  5 20 18 35 30.0020000  0  8 30 04 05 06 08 09 10 24
  22427082.993    -4274220.890 9  -3260244.07049  22427083.153    22427090.0054
  23363928.635     9162795.641 9   7124018.79949  23363929.068    23363936.8414
  20941991.791      362136.507 9    279492.22149  20941991.391    20941997.9254
  24461032.498    -2931424.175 9  -2283846.05349  24461031.141    24461041.2584
  22672617.506     5499874.786 9   4277339.00449  22672617.194    22672626.1934
  24456017.098     9504615.131 9   7390025.69549  24456017.112    24456028.1894
  22879595.600    -4208700.282 9  -3277005.87149  22879594.746    22879603.1224
  21235451.617     4152144.161 9   3222757.30049  21235451.363    21235458.4064
 99  5 20 18 36  0.0020000  0  8 30 04 05 06 08 09 10 24
  22415040.248    -4337505.870 9  -3309557.01349  22415040.460    22415047.5364
  23383806.825     9267255.789 9   7205416.23049  23383807.317    23383815.9354
  20942659.796      365646.826 9    282227.51749  20942659.419    20942665.8644
  24450542.428    -2986548.929 9  -2326800.36049  24450541.013    24450551.2684
  22686002.529     5570213.235 9   4332148.08849  22686002.237    22686011.7524
  24476074.321     9610016.482 9   7472156.40349  24476074.486    24476084.9624
  22867943.403    -4269932.654 9  -3324719.31249  22867942.383    22867950.9804
  21245024.755     4202451.283 9   3261957.62949  21245024.815    21245031.8044
 99  5 20 18 36 30.0020000  0  8 30 04 05 06 08 09 10 24
  22403000.436    -4400774.820 9  -3358857.47049  22403000.645    22403007.6604
  23403660.460     9371587.037 9   7286713.20649  23403660.713    23403669.4004
  20943360.871      369330.959 9    285098.24949  20943360.543    20943366.8524
  24440005.428    -3041919.981 9  -2369946.59849  24440005.286    24440014.8714
  22699415.900     5640700.201 9   4387072.90849  22699416.301    22699424.6294
  24496085.043     9715173.351 9   7554096.61149  24496085.393    24496096.0494
  22856300.408    -4331116.974 9  -3372395.32549  22856300.183    22856308.3234
  21254610.659     4252825.704 9   3301210.39349  21254610.559    21254617.5264
 99  5 20 18 37  0.0020000  0  8 30 04 05 06 08 09 10 24
  22390965.861    -4464016.770 9  -3408136.88549  22390966.287    22390973.0614
  23423489.339     9475788.511 9   7367909.06749  23423489.556    23423498.4224
  20944093.491      373180.889 9    288098.17049  20944093.026    20944099.6844
  24429419.089    -3097551.425 9  -2413295.72949  24429419.315    24429427.2394
  22712855.015     5711322.497 9   4442103.17849  22712854.438    22712863.2234
  24516051.193     9820094.961 9   7635853.49149  24516051.451    24516063.3864
  22844667.741    -4392247.053 9  -3420029.05049  22844666.916    22844675.9524
  21264207.730     4303258.526 9   3340508.66949  21264207.875    21264214.6134
 99  5 20 18 37 30.0020000  0  8 30 04 05 06 08 09 10 24
  22378939.445    -4527216.119 9  -3457383.10449  22378939.722    22378946.2094
  23443293.049     9579857.720 9   7449001.85549  23443293.935    23443302.0194
  20944862.696      377222.756 9    291247.65849  20944862.473    20944868.6934
  24418781.903    -3153451.184 9  -2456853.93449  24418782.229    24418790.0284
  22726317.184     5782066.298 9   4497228.13449  22726316.678    22726325.6344
  24535975.884     9924798.713 9   7717440.61149  24535976.137    24535987.1224
  22833047.162    -4453313.704 9  -3467613.36749  22833046.721    22833054.9694
  21273820.554     4353773.928 9   3379871.29649  21273820.451    21273827.3184
 99  5 20 18 38  0.0020000  0  8 30 04 05 06 08 09 10 24
  22366930.637    -4590322.872 9  -3506557.17649  22366930.846    22366937.1824
  23463080.177     9683839.275 9   7530026.35049  23463080.268    23463088.6834
  20945682.051      381528.292 9    294602.60049  20945681.806    20945688.1584
  24408103.895    -3209564.845 9  -2500578.80049  24408103.202    24408112.1874
  22739810.995     5852976.571 9   4552482.81049  22739810.697    22739819.8574
  24555868.208    10029332.317 9   7798895.12949  24555868.206    24555879.3484
  22821451.994    -4514246.502 9  -3515093.37649  22821450.898    22821460.1784
  21283462.015     4404440.006 9   3419351.32549  21283461.956    21283469.0094
 99  5 20 18 38 30.0020000  0  8 30 04 05 06 08 09 10 24
  22354939.795    -4653335.043 9  -3555657.54249  22354939.897    22354946.3004
  23482850.570     9787733.110 9   7610982.48649  23482850.471    23482859.4724
  20946555.114      386116.493 9    298177.80249  20946554.772    20946561.3254
  24397385.951    -3265887.748 9  -2544466.71549  24397385.771    24397395.1974
  22753339.557     5924069.677 9   4607879.93449  22753339.221    22753348.3604
  24575725.062    10133679.621 9   7880204.47949  24575725.229    24575736.5754
  22809887.980    -4575015.513 9  -3562445.77249  22809887.154    22809896.6264
  21293134.674     4455270.056 9   3458959.12949  21293134.430    21293141.8664
 99  5 20 18 39  0.0020000  0  8 30 04 05 06 08 09 10 24
  22342959.884    -4716289.786 9  -3604713.16249  22342960.280    22342966.5724
  23502590.260     9891465.444 9   7691812.78349  23502591.175    23502599.1364
  20947472.643      390937.876 9    301934.70249  20947472.347    20947479.0074
  24386619.998    -3322461.558 9  -2588550.15749  24386619.145    24386629.3774
  22766892.993     5995292.565 9   4663378.19249  22766892.508    22766901.7154
  24595532.691    10237768.556 9   7961312.50849  24595532.967    24595544.7144
  22798345.965    -4635668.898 9  -3609708.06249  22798344.874    22798354.0304
  21302827.888     4506208.418 9   3498651.33149  21302827.709    21302835.1184
 99  5 20 18 39 30.0020000  0  8 30 04 05 06 08 09 10 24
  22330990.097    -4779191.260 9  -3653727.27149  22330990.377    22330997.2184
  23522296.853     9995024.004 9   7772507.66249  23522296.953    23522305.2174
  20948437.932      396010.097 9    305887.05749  20948437.588    20948444.2104
  24375808.651    -3379274.200 9  -2632819.70649  24375807.819    24375818.7024
  22780473.830     6066659.856 9   4718988.97649  22780473.586    22780482.8174
  24615288.289    10341583.957 9   8042207.40049  24615287.371    24615299.2654
  22786826.392    -4696203.781 9  -3656878.01549  22786825.349    22786834.8354
  21312540.902     4557250.752 9   3538424.55049  21312540.985    21312548.0194
 99  5 20 18 40  0.0020000  0  8 30 04 05 06 08 09 10 24
  22319029.575    -4842044.128 9  -3702703.50849  22319029.617    22319036.3234
  23541968.386    10098398.525 9   7853059.13649  23541969.843    23541976.9344
  20949449.679      401326.440 9    310029.64249  20949449.238    20949455.7534
  24364952.894    -3436321.616 9  -2677272.17949  24364953.114    24364963.0944
  22794086.343     6138193.722 9   4774729.55449  22794086.412    22794094.9924
  24634989.031    10445112.011 9   8122878.38649  24634989.372    24635001.2174
  22775328.112    -4756627.242 9  -3703961.15049  22775327.319    22775336.2774
  21322269.940     4608376.797 9   3578262.99549  21322269.970    21322276.8504
 99  5 20 18 40 30.0020000  0  8 30 04 05 06 08 09 10 24
  22307079.487    -4904842.356 9  -3751637.16849  22307080.070    22307086.4894
  23561605.489    10201591.498 9   7933469.15049  23561606.399    23561614.0164
  20950506.241      406878.305 9    314355.75349  20950505.857    20950512.3424
  24354051.656    -3493609.391 9  -2721911.94749  24354052.450    24354060.1714
  22807734.259     6209913.201 9   4830614.75249  22807734.704    22807742.7594
  24654636.434    10548359.281 9   8203330.58149  24654637.320    24654648.6534
  22763847.864    -4816956.088 9  -3750970.55549  22763846.827    22763855.5584
  21332013.748     4659580.762 9   3618162.16149  21332013.824    21332020.9564
 99  5 20 18 41  0.0020000  0  8 30 04 05 06 08 09 10 24
  22295143.181    -4967568.461 9  -3800514.62449  22295143.533    22295149.6314
  23581211.986    10304623.562 9   8013753.78249  23581212.556    23581220.9564
  20951609.285      412674.562 9    318872.30149  20951608.853    20951615.3744
  24343103.741    -3551141.262 9  -2766741.91549  24343103.280    24343111.6674
  22821417.334     6281817.571 9   4886644.04249  22821416.962    22821425.8404
  24674236.667    10651359.021 9   8283589.85049  24674237.091    24674248.2154
  22752386.749    -4877184.325 9  -3797901.56949  22752386.151    22752394.8454
  21341776.116     4710882.223 9   3658137.29749  21341775.936    21341783.1604
 99  5 20 18 41 30.0020000  0  8 30 04 05 06 08 09 10 24
  22283218.068    -5030235.059 9  -3849345.71449  22283218.329    22283224.4324
  23600791.823    10407515.397 9   8093929.14249  23600793.261    23600799.5374
  20952758.059      418711.606 9    323576.47249  20952757.838    20952764.1474
  24332108.069    -3608922.538 9  -2811766.22149  24332107.852    24332116.8374
  22835134.191     6353899.878 9   4942811.97649  22835133.546    22835142.4054
  24693793.949    10754133.088 9   8363673.28749  24693793.812    24693806.0794
  22740945.863    -4937306.064 9  -3844749.59849  22740944.602    22740954.2374
  21351560.025     4762296.668 9   3698200.47149  21351559.903    21351567.3184
 99  5 20 18 42  0.0020000  0  8 30 04 05 06 08 09 10 24
  22271307.281    -5092826.512 9  -3898118.25349  22271307.545    22271314.3474
  23620348.549    10510286.317 9   8174010.26949  23620348.873    23620356.7044
  20953951.352      424982.474 9    328462.84249  20953951.072    20953957.8584
  24321064.371    -3666956.487 9  -2856987.41949  24321064.308    24321072.3254
  22848882.697     6426148.026 9   4999109.14149  22848882.208    22848891.5024
  24713312.605    10856704.389 9   8443598.72749  24713312.760    24713325.2324
  22729528.938    -4997302.059 9  -3891499.65449  22729528.055    22729536.8784
  21361367.631     4813836.005 9   3738360.96149  21361367.613    21361374.5624
 99  5 20 18 42 30.0020000  0  8 30 04 05 06 08 09 10 24
  22259414.247    -5155324.638 9  -3946818.06749  22259415.048    22259421.1004
  23639885.685    10612954.135 9   8254011.07249  23639886.617    23639893.9714
  20955191.062      431496.692 9    333538.83749  20955190.803    20955197.2494
  24309974.722    -3725232.383 9  -2902397.16949  24309974.415    24309983.4024
  22862658.535     6498540.024 9   5055518.39749  22862658.331    22862666.9464
  24732795.316    10959086.080 9   8523376.43349  24732795.012    24732807.6654
  22718142.680    -5057137.001 9  -3938124.21749  22718141.728    22718150.6284
  21371201.421     4865512.661 9   3778628.45949  21371201.525    21371208.4604
 99  5 20 18 43  0.0020000  0  8 30 04 05 06 08 09 10 24
  22247541.495    -5217716.612 9  -3995435.16549  22247542.007    22247548.3224
  23659404.630    10715526.470 9   8333937.46449  23659405.804    23659413.3504
  20956478.307      438260.885 9    338809.61049  20956477.872    20956484.4654
  24298840.788    -3783742.252 9  -2947989.20149  24298841.022    24298849.4754
  22876459.371     6571063.354 9   5112029.99749  22876458.917    22876467.5624
  24752239.569    11061266.684 9   8602997.41349  24752241.050    24752253.1994
  22706791.390    -5116788.033 9  -3984605.47349  22706790.656    22706800.0854
  21381061.380     4917327.061 9   3819003.29149  21381061.429    21381068.3614
 99  5 20 18 43 30.0020000  0  8 30 04 05 06 08 09 10 24
  22235688.976    -5280002.147 9  -4043969.32149  22235689.592    22235695.7584
  23678903.836    10817994.838 9   8413782.84849  23678904.635    23678912.4814
  20957813.788      445278.956 9    344278.21049  20957813.268    20957820.1074
  24287665.174    -3842470.635 9  -2993751.50149  24287664.999    24287674.2324
  22890287.805     6643732.562 9   5168655.25449  22890287.654    22890296.0484
  24771641.898    11163225.931 9   8682445.89949  24771641.639    24771654.9084
  22695477.244    -5176243.851 9  -4030934.60849  22695476.399    22695485.3014
  21390944.143     4969260.992 9   3859471.26249  21390944.118    21390951.4094
 99  5 20 18 44  0.0020000  0  8 30 04 05 06 08 09 10 24
  22223859.217    -5342168.196 9  -4092410.37349  22223859.482    22223866.0414
  23698382.332    10920354.570 9   8493543.57549  23698382.391    23698391.3024
  20959199.007      452558.429 9    349950.49849  20959198.489    20959205.3214
  24276449.448    -3901409.725 9  -3039677.98249  24276448.954    24276458.7974
  22904146.978     6716562.509 9   5225405.75149  22904146.549    22904155.2044
  24790998.004    11264942.018 9   8761704.90549  24790999.178    24791011.6594
  22684201.737    -5235497.427 9  -4077106.16349  22684201.024    22684209.9584
  21400846.800     5021299.808 9   3900020.96449  21400846.742    21400854.1454
 99  5 20 18 44 30.0020000  0  8 30 04 05 06 08 09 10 24
  22212051.969    -5404215.541 9  -4140758.93049  22212052.156    22212058.8394
  23717838.424    11022596.314 9   8573212.35249  23717838.802    23717847.2914
  20960634.290      460101.191 9    355827.94749  20960633.685    20960640.5014
  24265196.104    -3960545.175 9  -3085757.48949  24265195.375    24265205.1714
  22918037.570     6789557.471 9   5282284.83949  22918037.643    22918045.4584
  24810303.966    11366394.140 9   8840758.20949  24810305.633    24810316.9804
  22672961.219    -5294566.857 9  -4123134.22949  22672960.396    22672969.1424
  21410769.120     5073441.632 9   3940650.92449  21410769.123    21410776.3924
 99  5 20 18 45  0.0020000  0  8 30 04 05 06 08 09 10 24
  22200264.732    -5466157.361 9  -4189025.26049  22200264.737    22200271.6644
  23737271.005    11124714.396 9   8652784.79149  23737271.709    23737279.6374
  20962119.263      467904.725 9    361908.59549  20962119.187    20962125.5824
  24253905.463    -4019876.718 9  -3131989.79649  24253905.221    24253913.1814
  22931959.880     6862718.059 9   5339292.98649  22931959.645    22931968.5364
  24829559.436    11467579.398 9   8919603.57749  24829561.602    24829572.2204
  22661752.124    -5353470.549 9  -4169033.14349  22661751.396    22661759.9284
  21420710.307     5125682.712 9   3981358.22849  21420710.361    21420717.6134
 99  5 20 18 45 30.0020000  0  8 30 04 05 06 08 09 10 24
  22188497.990    -5527991.700 9  -4237207.83349  22188498.332    22188504.7394
  23756678.140    11226699.238 9   8732253.37849  23756679.373    23756687.2164
  20963656.134      475980.624 9    368201.48149  20963655.773    20963662.3104
  24242578.445    -4079399.789 9  -3178371.33349  24242577.982    24242587.2734
  22945911.752     6936034.599 9   5396422.66749  22945911.266    22945919.7914
  24848768.122    11568519.920 9   8998258.25349  24848768.256    24848780.8104
  22650575.028    -5412206.477 9  -4214801.33749  22650574.024    22650582.8604
  21430670.481     5178023.530 9   4022143.24949  21430670.635    21430677.9734
 99  5 20 18 46  0.0020000  0  8 30 04 05 06 08 09 10 24
  22176755.622    -5589698.147 9  -4285290.75349  22176755.881    22176762.3814
  23776059.761    11328549.258 9   8811616.92849  23776060.236    23776068.1894
  20965246.205      484336.193 9    374712.29049  20965245.962    20965252.4924
  24231216.633    -4139106.237 9  -3224895.77249  24231218.097    24231226.5584
  22959890.564     7009493.779 9   5453663.49949  22959889.569    22959899.6364
  24867933.900    11669234.803 9   9076737.10949  24867935.876    24867946.8324
  22639428.866    -5470779.467 9  -4260442.56949  22639427.830    22639436.3734
  21440654.224     5230487.826 9   4063024.49049  21440654.114    21440661.2574
 99  5 20 18 46 30.0020000  0  8 30 04 05 06 08 09 10 24
  22165039.661    -5651265.741 9  -4333265.48549  22165040.082    22165046.5494
  23795412.483    11430247.049 9   8890861.84849  23795413.878    23795420.9784
  20966891.611      492982.853 9    381449.92049  20966891.163    20966897.5584
  24219818.977    -4199002.460 9  -3271568.07649  24219818.878    24219828.8834
  22973893.645     7083081.804 9   5511004.69349  22973893.115    22973901.8934
  24887060.070    11769740.951 9   9155053.33549  24887060.836    24887072.0824
  22628316.054    -5529176.780 9  -4305946.91649  22628314.794    22628324.4604
  21450664.147     5283090.497 9   4104013.55549  21450664.004    21450671.0574
 99  5 20 18 47  0.0020000  0  8 30 04 05 06 08 09 10 24
  22153349.618    -5712697.271 9  -4381134.17949  22153350.035    22153356.6844
  23814730.970    11531765.431 9   8969966.97549  23814731.814    23814739.0914
  20968591.095      501913.803 9    388409.07349  20968590.867    20968597.3874
  24208381.628    -4259107.203 9  -3318402.86049  24208381.256    24208391.7374
  22987920.446     7156793.264 9   5568442.09949  22987920.344    22987930.5734
  24906146.186    11870036.967 9   9233205.78449  24906146.374    24906157.9924
  22617239.441    -5587384.156 9  -4351303.24749  22617238.332    22617247.1394
  21460697.946     5335818.537 9   4145100.30949  21460697.818    21460705.3694
 99  5 20 18 47 30.0020000  0  8 30 04 05 06 08 09 10 24
  22141690.149    -5773967.745 9  -4428877.38249  22141690.207    22141697.3694
  23834014.487    11633100.117 9   9048928.96649  23834014.795    23834022.8754
  20970345.805      511134.472 9    395593.98349  20970345.462    20970351.9784
  24196905.519    -4319413.756 9  -3365394.93449  24196904.721    24196915.0774
  23001973.560     7230642.487 9   5625986.84249  23001973.145    23001982.6304
  24925191.708    11970120.446 9   9311192.61449  24925192.069    24925203.3684
  22606199.249    -5645400.145 9  -4396510.45649  22606198.474    22606207.2134
  21470757.258     5388680.195 9   4186291.17549  21470757.204    21470764.6754
 99  5 20 18 48  0.0020000  0  8 30 04 05 06 08 09 10 24
  22130063.085    -5835068.234 9  -4476488.12449  22130063.746    22130070.0224
  23853264.572    11734259.606 9   9127754.42049  23853265.368    23853272.9054
  20972155.041      520641.831 9    403002.29249  20972154.709    20972161.0704
  24185390.914    -4379922.229 9  -3412544.34149  24185390.203    24185400.7714
  23016057.451     7304654.029 9   5683658.07549  23016057.275    23016066.5064
  24944191.300    12069962.889 9   9388991.59549  24944191.206    24944204.1414
  22595197.274    -5703215.839 9  -4441561.57349  22595196.361    22595205.0354
  21480844.064     5441686.598 9   4227594.83749  21480844.051    21480851.2694
 99  5 20 18 48 30.0020000  0  8 30 04 05 06 08 09 10 24
  22118467.090    -5896005.548 9  -4523971.72449  22118467.504    22118474.2654
  23872484.889    11835262.542 9   9206457.89649  23872484.223    23872492.6614
  20974020.846      530446.399 9    410642.18649  20974020.558    20974027.0564
  24173836.268    -4440641.261 9  -3459857.80949  24173835.692    24173845.7874
  23030174.844     7378841.061 9   5741466.04149  23030174.532    23030183.5724
  24963142.444    12169551.221 9   9466592.53649  24963142.826    24963156.1664
  22584236.386    -5760815.500 9  -4486444.37449  22584235.709    22584244.3974
  21490956.748     5494829.058 9   4269004.50949  21490956.860    21490964.0674
 99  5 20 18 49  0.0020000  0  8 30 04 05 06 08 09 10 24
  22106903.017    -5956775.138 9  -4571324.63149  22106903.609    22106910.1164
  23891681.170    11936139.572 9   9285063.27449  23891681.343    23891690.2804
  20975942.324      540543.801 9    418510.27149  20975942.137    20975948.7504
  24162243.206    -4501563.374 9  -3507329.52749  24162243.437    24162252.3064
  23044326.525     7453207.616 9   5799413.89349  23044327.164    23044336.0554
  24982042.909    12268873.064 9   9543985.84849  24982043.002    24982056.2664
  22573313.908    -5818213.702 9  -4531170.19449  22573313.370    22573321.6084
  21501093.629     5548098.403 9   4310513.05449  21501093.713    21501100.8074
 99  5 20 18 49 30.0020000  0  8 30 04 05 06 08 09 10 24
  22095371.175    -6017375.725 9  -4618545.84549  22095371.643    22095378.0514
  23910858.549    12036918.395 9   9363592.11949  23910857.148    23910867.4214
  20977923.607      550955.383 9    426623.16749  20977923.166    20977929.8894
  24150613.273    -4562678.953 9  -3554951.97749  24150612.929    24150621.7134
  23058510.202     7527742.539 9   5857492.94049  23058510.016    23058519.4244
  25000891.475    12367920.926 9   9621165.67449  25000892.902    25000904.5744
  22562429.853    -5875410.102 9  -4575738.76049  22562429.615    22562437.7054
  21511254.512     5601494.287 9   4352120.20549  21511254.578    21511261.6444
 99  5 20 18 50  0.0020000  0  8 30 04 05 06 08 09 10 24
  22083868.445    -6077823.483 9  -4665647.97249  22083868.516    22083875.1664
  23930018.508    12137606.110 9   9442049.95349  23930019.103    23930028.2744
  20979966.567      561691.039 9    434988.59049  20979966.252    20979972.8824
  24138946.063    -4623990.081 9  -3602726.82049  24138945.606    24138954.3784
  23072722.907     7602431.032 9   5915691.64149  23072722.397    23072732.5354
  25019687.931    12466695.596 9   9698132.58949  25019687.521    25019701.2254
  22551586.739    -5932390.565 9  -4620139.05749  22551585.642    22551594.7174
  21521437.702     5655007.049 9   4393818.42549  21521437.749    21521444.9614
 99  5 20 18 50 30.0020000  0  8 30 04 05 06 08 09 10 24
  22072393.055    -6138126.884 9  -4712637.62349  22072393.510    22072399.8474
  23949159.887    12238195.200 9   9520430.93349  23949159.862    23949169.5534
  20982072.004      572754.870 9    443609.72649  20982071.964    20982078.1824
  24127243.388    -4685487.529 9  -3650646.85349  24127243.207    24127252.8814
  23086958.819     7677240.224 9   5973984.40649  23086958.401    23086967.0824
  25038436.575    12565220.118 9   9774904.58649  25038437.261    25038451.0024
  22540783.763    -5989160.353 9  -4664375.20349  22540783.191    22540791.7194
  21531639.720     5708618.538 9   4435593.57549  21531639.836    21531646.9394
 99  5 20 18 51  0.0020000  0  8 30 04 05 06 08 09 10 24
  22060946.929    -6198276.656 9  -4759507.56049  22060947.614    22060953.6264
  23968280.647    12338674.792 9   9598726.61249  23968280.834    23968290.0974
  20984238.008      584137.172 9    452479.01849  20984237.605    20984244.1454
  24115509.998    -4747146.735 9  -3698692.94849  24115510.140    24115519.1344
  23101216.602     7752164.183 9   6032366.59949  23101216.321    23101225.1744
  25057140.443    12663508.566 9   9851492.60149  25057140.712    25057154.4544
  22530022.552    -6045710.413 9  -4708440.13849  22530021.391    22530031.0284
  21541860.382     5762328.117 9   4477445.15449  21541860.240    21541867.5804
 99  5 20 18 51 30.0020000  0  8 30 04 05 06 08 09 10 24
  22049529.001    -6258278.600 9  -4806262.30749  22049529.598    22049536.0334
  23987376.959    12439026.216 9   9676922.41049  23987378.184    23987387.1304
  20986464.753      595838.720 9    461597.08049  20986464.373    20986471.1854
  24103746.514    -4808965.660 9  -3746863.47849  24103746.643    24103754.9394
  23115498.200     7827213.923 9   6090846.79849  23115497.684    23115507.1284
  25075799.340    12761561.707 9   9927897.28349  25075799.675    25075813.3654
  22519307.994    -6102015.326 9  -4752314.04349  22519307.438    22519316.1374
  21552100.228     5816138.732 9   4519375.47049  21552100.341    21552107.3914
 99  5 20 18 52  0.0020000  0  8 30 04 05 06 08 09 10 24
  22038140.661    -6318125.236 9  -4852896.03049  22038141.172    22038147.2644
  24006446.505    12539235.039 9   9755007.10549  24006447.502    24006455.6344
  20988747.365      607833.819 9    470943.88349  20988747.023    20988753.6414
  24091949.526    -4870959.332 9  -3795170.18649  24091948.971    24091957.7504
  23129805.865     7902399.937 9   6149433.19149  23129805.699    23129813.6804
  25094414.390    12859381.772 9  10004120.32949  25094416.037    25094427.6434
  22508641.564    -6158068.031 9  -4795991.43049  22508640.612    22508649.4444
  21562360.139     5870054.851 9   4561387.99149  21562360.079    21562367.2284
 99  5 20 18 52 30.0020000  0  8 30 04 05 06 08 09 10 24
  22026786.433    -6377792.624 9  -4899390.08849  22026786.803    22026792.8154
  24025489.235    12639304.383 9   9832983.09949  24025490.469    24025498.7664
  20991085.415      620120.368 9    480517.78549  20991084.774    20991091.8104
  24080119.211    -4933128.413 9  -3843613.57449  24080119.670    24080127.7314
  23144141.880     7977735.856 9   6208136.38349  23144141.714    23144150.1804
  25112986.320    12956975.832 9  10080167.28449  25112987.221    25113000.6824
  22498025.551    -6213855.491 9  -4839462.14249  22498025.411    22498032.7644
  21572641.591     5924084.184 9   4603488.73649  21572641.731    21572648.7094
 99  5 20 18 53  0.0020000  0  8 30 04 05 06 08 09 10 24
  22015469.288    -6437264.099 9  -4945731.48549  22015469.038    22015475.7954
  24044504.936    12739230.762 9   9910847.69749  24044506.425    24044513.5384
  20993478.533      632696.378 9    490317.24249  20993478.108    20993485.0564
  24068253.057    -4995486.071 9  -3892203.90249  24068252.476    24068260.7794
  23158509.708     8053239.265 9   6266970.10049  23158509.747    23158517.4984
  25131510.805    13054321.639 9  10156020.77049  25131512.266    25131525.1824
  22487462.259    -6269366.182 9  -4882717.17649  22487461.354    22487469.6954
  21582944.841     5978227.848 9   4645678.57149  21582944.908    21582952.0504
 99  5 20 18 53 30.0020000  0  8 30 04 05 06 08 09 10 24
  22004192.328    -6496524.281 9  -4991908.23849  22004192.495    22004199.0184
  24063493.957    12839017.193 9   9988603.26649  24063494.320    24063501.1364
  20995929.836      645578.125 9    500354.93449  20995929.600    20995936.4244
  24056346.169    -5058057.447 9  -3940960.76849  24056345.948    24056353.6414
  23172909.569     8128910.125 9   6325934.30249  23172909.199    23172918.5194
  25149986.914    13151411.951 9  10231675.17449  25149987.066    25150001.4414
  22476952.123    -6324597.436 9  -4925754.47449  22476951.710    22476959.4154
  21593270.662     6032490.333 9   4687960.99249  21593270.780    21593277.9554
 99  5 20 18 54  0.0020000  0  8 30 04 05 06 08 09 10 24
  21992956.822    -6555567.053 9  -5037915.57549  21992956.783    21992963.1404
  24082456.770    12938666.549 9  10066252.00449  24082457.122    24082465.5334
  20998442.416      658781.600 9    510643.32749  20998442.191    20998448.8434
  24044400.252    -5120833.734 9  -3989877.28649  24044400.028    24044408.7534
  23187336.986     8204725.905 9   6385011.43249  23187336.651    23187346.3834
  25168416.769    13248261.891 9  10307142.26849  25168417.257    25168431.8144
  22466495.663    -6379546.217 9  -4968571.66349  22466494.889    22466503.5274
  21603619.758     6086875.055 9   4730338.65349  21603619.975    21603627.1994
 99  5 20 18 54 30.0020000  0  8 30 04 05 06 08 09 10 24
  21981762.205    -6614394.632 9  -5083755.23449  21981762.413    21981768.7964
  24101393.058    13038177.507 9  10143792.88749  24101393.183    24101402.2224
  21001019.865      672325.812 9    521197.22249  21001019.477    21001025.9554
  24032419.580    -5183791.871 9  -4038935.50549  24032418.523    24032428.6444
  23201789.744     8280676.320 9   6444193.45249  23201789.345    23201799.1604
  25186802.551    13344878.145 9  10382427.26149  25186803.978    25186817.3174
  22456092.564    -6434214.834 9  -5011170.54849  22456091.641    22456100.1544
  21613990.159     6141371.247 9   4772803.18249  21613990.306    21613997.6364
 99  5 20 18 55  0.0020000  0  8 30 04 05 06 08 09 10 24
  21970606.060    -6673020.427 9  -5129437.65549  21970606.656    21970612.8734
  24120300.706    13137537.485 9  10221216.14949  24120301.633    24120309.4224
  21003659.791      686198.510 9    532007.08549  21003659.449    21003666.0514
  24020403.865    -5246933.504 9  -4088136.72849  24020402.691    24020413.2374
  23216266.151     8356749.838 9   6503471.39849  23216265.694    23216275.4914
  25205140.759    13441243.259 9  10457516.55649  25205140.904    25205154.5294
  22445740.416    -6488615.312 9  -5053560.48849  22445739.208    22445748.3304
  21624381.422     6195977.298 9   4815353.31749  21624381.472    21624388.6294
 99  5 20 18 55 30.0020000  0  8 30 04 05 06 08 09 10 24
  21959484.861    -6731463.257 9  -5174977.51249  21959485.674    21959491.7364
  24139181.266    13236755.268 9  10298528.60649  24139181.422    24139189.3184
  21006361.315      700395.027 9    543069.27549  21006361.029    21006367.6304
  24008355.452    -5310247.340 9  -4137472.11249  24008355.411    24008364.3524
  23230764.282     8432937.459 9   6562838.26149  23230763.747    23230774.0094
  25223432.727    13537366.230 9  10532417.15849  25223433.280    25223447.7974
  22435438.776    -6542750.438 9  -5095743.66149  22435437.920    22435446.4804
  21634795.101     6250701.168 9   4857995.26049  21634795.303    21634802.0874
 99  5 20 18 56  0.0020000  0  8 30 04 05 06 08 09 10 24
  21948399.767    -6789716.221 9  -5220369.41449  21948400.189    21948406.6384
  24158037.124    13335843.313 9  10375739.95649  24158037.499    24158046.4274
  21009125.185      714918.988 9    554386.62349  21009124.905    21009131.6364
  23996281.635    -5373696.125 9  -4186912.66349  23996282.409    23996290.1114
  23245286.740     8509252.979 9   6622304.77149  23245286.713    23245296.4484
  25241681.198    13633260.821 9  10607139.81749  25241681.767    25241694.8094
  22425189.534    -6596610.489 9  -5137712.49649  22425188.975    22425197.7644
  21645233.324     6305554.130 9   4900737.79149  21645233.297    21645240.3844
 99  5 20 18 56 30.0020000  0  8 30 04 05 06 08 09 10 24
  21937354.660    -6847758.815 9  -5265597.39349  21937354.965    21937361.1854
  24176871.008    13434815.690 9  10452861.17949  24176871.300    24176879.7744
  21011949.577      729761.177 9    565951.93449  21011949.250    21011955.9074
  23984181.079    -5437284.935 9  -4236462.32649  23984180.717    23984189.8374
  23259836.843     8585713.633 9   6681884.36749  23259836.780    23259845.7974
  25259882.495    13728906.553 9  10681668.56249  25259882.947    25259896.9324
  22414991.618    -6650200.903 9  -5179471.22149  22414991.145    22414999.4604
  21655696.045     6360535.931 9   4943580.71149  21655695.904    21655703.0734
 99  5 20 18 57  0.0020000  0  8 30 04 05 06 08 09 10 24
  21926353.569    -6905570.062 9  -5310645.09549  21926353.691    21926360.3194
  24195686.090    13533689.170 9  10529905.34449  24195686.964    24195695.5744
  21014835.245      744925.368 9    577768.15749  21014835.202    21014841.5014
  23972051.836    -5501024.029 9  -4286129.11149  23972050.964    23972059.8604
  23274415.914     8662327.011 9   6741582.97549  23274415.118    23274426.3784
  25278035.502    13824299.116 9  10756000.04149  25278035.890    25278049.7314
  22404848.617    -6703503.065 9  -5221005.33449  22404847.727    22404856.1354
  21666187.280     6415667.503 9   4986540.33749  21666187.231    21666194.7034
 99  5 20 18 57 30.0020000  0  8 30 04 05 06 08 09 10 24
  21915396.631    -6963148.774 9  -5355511.60749  21915396.876    21915403.4344
  24214480.947    13632455.952 9  10606866.37649  24214481.703    24214490.3544
  21017781.821      760409.334 9    589833.55549  21017781.443    21017788.1494
  23959893.101    -5564918.092 9  -4335916.64849  23959892.911    23959902.2484
  23289021.111     8739076.945 9   6801387.99149  23289021.516    23289031.0364
  25296141.120    13919442.621 9  10830137.41049  25296141.376    25296154.9774
  22394759.959    -6756519.043 9  -5262316.45249  22394759.081    22394767.8894
  21676702.635     6470926.167 9   5029599.00249  21676702.661    21676709.8314
 99  5 20 18 58  0.0020000  0  8 30 04 05 06 08 09 10 24
  21904487.395    -7020476.605 9  -5400182.62349  21904487.669    21904494.0704
  24233252.594    13731099.982 9  10683731.75149  24233253.478    24233261.5894
  21020791.623      776225.512 9    602157.81849  21020791.329    21020797.9114
  23947703.087    -5628976.593 9  -4385832.30649  23947703.590    23947712.0094
  23303651.087     8815957.164 9   6861294.53849  23303651.238    23303659.4464
  25314197.831    14014331.363 9  10904076.29649  25314198.025    25314212.6124
  22384724.925    -6809253.584 9  -5303408.26649  22384724.308    22384732.6174
  21687239.548     6526298.012 9   5072745.86349  21687239.526    21687246.8154
 99  5 20 18 58 30.0020000  0  8 30 04 05 06 08 09 10 24
  21893625.075    -7077558.170 9  -5444661.74349  21893625.319    21893631.8014
  24251997.952    13829606.310 9  10760489.83149  24251997.791    24252006.7344
  21023864.626      792373.948 9    614740.97749  21023864.501    21023870.9844
  23935477.477    -5693223.189 9  -4435894.52249  23935477.814    23935486.2764
  23318302.746     8892952.616 9   6921290.86749  23318302.365    23318312.1004
  25332202.484    14108946.423 9  10977801.89349  25332203.590    25332218.0154
  22374743.109    -6861708.451 9  -5344282.15049  22374742.448    22374750.8234
  21697795.841     6581771.589 9   5115971.99149  21697795.399    21697803.2104
 99  5 20 18 59  0.0020000  0  8 30 04 05 06 08 09 10 24
  21882808.015    -7134401.952 9  -5488955.58449  21882808.207    21882814.8304
  24270711.660    13927946.542 9  10837118.48049  24270713.025    24270720.6934
  21027002.160      808861.988 9    627588.76849  21027001.800    21027008.5364
  23923217.763    -5757648.607 9  -4486096.08849  23923218.161    23923226.4254
  23332974.091     8970049.292 9   6981366.04849  23332974.268    23332982.5814
  25350156.066    14203289.922 9  11051315.89349  25350157.981    25350172.5654
  22364815.888    -6913876.282 9  -5384932.37449  22364815.121    22364823.5814
  21708370.216     6637340.619 9   5159272.49849  21708370.338    21708377.4764
 99  5 20 18 59 30.0020000  0  8 30 04 05 06 08 09 10 24
  21872035.505    -7191011.765 9  -5533067.10149  21872035.945    21872042.6744
  24289391.386    14026108.200 9  10913607.98849  24289392.583    24289400.1184
  21030205.709      825696.558 9    640706.58149  21030205.622    21030212.0404
  23910928.208    -5822229.706 9  -4536418.96649  23910928.229    23910937.1674
  23347662.577     9047237.220 9   7041512.36849  23347662.989    23347672.2624
  25368055.813    14297352.981 9  11124611.39249  25368057.060    25368072.4244
  22354943.022    -6965758.845 9  -5425360.31149  22354942.355    22354950.5514
  21718960.117     6692990.776 9   5202636.22349  21718960.057    21718967.6814
 99  5 20 19  0  0.0020000  0  8 30 04 05 06 08 09 10 24
  21861307.779    -7247386.439 9  -5576995.40049  21861308.381    21861314.6944
  24308036.088    14124086.511 9  10989954.61049  24308035.987    24308045.8844
  21033476.263      842883.007 9    654098.59249  21033475.938    21033482.5244
  23898607.921    -5886972.147 9  -4586867.57149  23898607.209    23898616.8614
  23362367.410     9124510.412 9   7101725.12249  23362367.659    23362376.7674
  25385896.209    14391104.417 9  11197664.03749  25385897.019    25385912.5224
  22345123.839    -7017359.128 9  -5465568.29449  22345123.043    22345131.2324
  21729565.349     6748721.411 9   5246062.65649  21729565.695    21729572.7584
 99  5 20 19  0 30.0020000  0  8 30 04 05 06 08 09 10 24
  21850623.060    -7303535.043 9  -5620747.54049  21850623.598    21850629.5624
  24326646.968    14221886.669 9  11066162.42149  24326648.092    24326655.3624
  21036810.738      860405.870 9    667752.74549  21036810.409    21036816.9754
  23886257.354    -5951874.116 9  -4637440.47049  23886256.988    23886266.8154
  23377087.497     9201865.058 9   7162001.32649  23377086.060    23377096.8514
  25403676.033    14484535.458 9  11270467.04049  25403676.511    25403691.3264
  22335360.271    -7068666.933 9  -5505548.37349  22335359.612    22335367.5304
  21740185.623     6804530.766 9   5289550.42949  21740185.783    21740192.8004
 99  5 20 19  1  0.0020000  0  8 30 04 05 06 08 09 10 24
  21839981.669    -7359456.394 9  -5664322.60249  21839982.075    21839988.7704
  24345226.353    14319521.912 9  11142241.70949  24345226.680    24345234.3954
  21040208.527      878261.308 9    681666.04149  21040208.287    21040215.0374
  23873878.410    -6016925.295 9  -4688129.63849  23873878.948    23873887.8664
  23391823.560     9279305.365 9   7222344.28549  23391823.977    23391833.3074
  25421398.748    14577667.000 9  11343036.67749  25421400.001    25421413.8804
  22325654.946    -7119668.587 9  -5545289.89449  22325654.311    22325662.4334
  21750820.291     6860415.935 9   5333097.28149  21750820.201    21750827.5334
 99  5 20 19  1 30.0020000  0  8 30 04 05 06 08 09 10 24
  21829383.692    -7415149.165 9  -5707719.55249  21829384.052    21829390.3954
  24363777.775    14417010.998 9  11218207.11549  24363776.608    24363786.3734
  21043668.279      896441.875 9    695832.67449  21043667.952    21043674.5774
  23861468.684    -6082139.082 9  -4738945.53149  23861468.559    23861477.9184
  23406577.867     9356837.885 9   7282759.09349  23406577.244    23406587.6904
  25439066.693    14670511.071 9  11415382.29449  25439068.060    25439082.3134
  22316008.513    -7170360.807 9  -5584790.28849  22316007.529    22316016.0654
  21761468.314     6916371.514 9   5376698.99149  21761468.229    21761475.7054
 99  5 20 19  2  0.0020000  0  8 30 04 05 06 08 09 10 24
  21818828.332    -7470617.754 9  -5750941.81349  21818828.449    21818835.1774
  24382301.353    14514353.105 9  11294057.99449  24382300.635    24382310.0384
  21047189.261      914944.654 9    710250.38349  21047188.864    21047195.5994
  23849023.423    -6147538.653 9  -4789906.18349  23849023.485    23849032.9424
  23421350.444     9434467.655 9   7343249.69249  23421349.787    23421359.5544
  25456681.604    14763077.352 9  11487511.48449  25456682.695    25456696.6994
  22306420.565    -7220745.819 9  -5624051.30649  22306419.897    22306428.0104
  21772130.787     6972403.305 9   5420360.09349  21772130.708    21772138.0114
 99  5 20 19  2 30.0020000  0  8 30 04 05 06 08 09 10 24
  21808314.889    -7525865.777 9  -5793992.20649  21808315.118    21808321.8074
  24400796.328    14611544.924 9  11369791.76649  24400795.910    24400804.8694
  21050770.339      933763.491 9    724914.36849  21050770.005    21050776.7254
  23836543.501    -6213121.134 9  -4841009.35549  23836543.544    23836552.3024
  23436141.816     9512196.470 9   7403817.45849  23436141.367    23436152.3184
  25474247.674    14855386.106 9  11559439.96649  25474248.854    25474263.0174
  22296891.090    -7270823.376 9  -5663072.75349  22296890.184    22296898.5074
  21782809.923     7028522.258 9   5464089.10749  21782810.004    21782817.0404
 99  5 20 19  3  0.0020000  0  8 30 04 05 06 08 09 10 24
  21797846.192    -7580878.952 9  -5836859.59949  21797846.605    21797853.1674
  24419260.667    14708575.984 9  11445400.27549  24419260.578    24419271.0674
  21054412.799      952904.600 9    739829.48449  21054412.723    21054419.1264
  23824029.822    -6278881.270 9  -4892250.97849  23824029.278    23824038.6324
  23450950.555     9590015.860 9   7464455.81049  23450951.204    23450960.6724
  25491765.784    14947443.174 9  11631172.36849  25491765.638    25491782.5584
  22287418.906    -7320599.596 9  -5701859.39349  22287417.762    22287426.7294
  21793506.666     7084733.844 9   5507890.31049  21793506.899    21793514.0674
 99  5 20 19  3 30.0020000  0  8 30 04 05 06 08 09 10 24
  21787423.070    -7635653.217 9  -5879540.82849  21787423.601    21787429.9384
  24437691.671    14805431.424 9  11520871.94049  24437691.608    24437699.8904
  21058117.670      972373.316 9    754999.88249  21058117.409    21058123.9524
  23811484.529    -6344807.865 9  -4943622.29149  23811484.103    23811492.8474
  23465774.363     9667916.026 9   7525157.10449  23465773.723    23465784.7534
  25509232.138    15039227.106 9  11702691.91449  25509233.525    25509247.9574
  22278003.246    -7370079.220 9  -5740414.91649  22278002.000    22278010.6114
  21804223.827     7141052.837 9   5551775.20149  21804223.730    21804231.0314
 99  5 20 19  4  0.0020000  0  8 30 04 05 06 08 09 10 24
  21777046.804    -7690181.174 9  -5922030.13549  21777047.124    21777053.8634
  24456089.985    14902115.912 9  11596210.39949  24456091.310    24456098.6594
  21061887.999      992186.480 9    770438.67949  21061887.629    21061894.2304
  23798911.695    -6410879.114 9  -4995106.32149  23798911.376    23798920.7824
  23480612.781     9745892.164 9   7585917.58649  23480612.940    23480623.3534
  25526644.582    15130729.163 9  11773991.83549  25526645.621    25526661.5464
  22268644.908    -7419257.543 9  -5778735.66149  22268643.649    22268652.4324
  21814963.191     7197488.340 9   5595750.87849  21814963.165    21814970.5174
 99  5 20 19  4 30.0020000  0  8 30 04 05 06 08 09 10 24
  21766719.866    -7744449.776 9  -5964317.34649  21766720.143    21766726.7194
  24474455.918    14998629.237 9  11671415.46349  24474455.877    24474465.5504
  21065722.002     1012334.335 9    786138.27749  21065721.764    21065728.4334
  23786314.434    -6477078.425 9  -5046690.16149  23786313.708    23786323.7984
  23495464.907     9823939.636 9   7646733.65749  23495465.108    23495475.4034
  25544003.186    15221947.695 9  11845070.81549  25544002.825    25544018.9234
  22259346.431    -7468121.077 9  -5816811.11549  22259345.915    22259353.8314
  21825722.512     7254028.637 9   5639808.21549  21825722.477    21825729.8334
 99  5 20 19  5  0.0020000  0  8 30 04 05 06 08 09 10 24
  21756444.485    -7798447.674 9  -6006393.61549  21756444.607    21756450.9534
  24492788.559    15094968.404 9  11746484.83849  24492788.305    24492797.6864
  21069620.642     1032821.412 9    802102.19649  21069620.205    21069627.1714
  23773692.810    -6543404.628 9  -5098372.87049  23773692.505    23773702.1024
  23510330.006     9902055.973 9   7707603.38949  23510330.077    23510340.4704
  25561304.965    15312869.349 9  11915918.45449  25561306.486    25561321.8384
  22250111.054    -7516653.529 9  -5854628.58149  22250110.359    22250118.3864
  21836496.761     7310647.305 9   5683926.62449  21836496.928    21836503.8694
 99  5 20 19  5 30.0020000  0  8 30 04 05 06 08 09 10 24
  21746221.878    -7852167.757 9  -6048253.40949  21746222.074    21746228.4584
  24511092.271    15191155.068 9  11821435.36549  24511092.104    24511101.4884
  21073586.956     1053664.633 9    818343.62549  21073586.640    21073593.3034
  23761046.870    -6609858.691 9  -5150155.20849  23761045.341    23761054.7364
  23525211.941     9980259.906 9   7768541.36849  23525211.835    23525222.0674
  25578549.686    15403489.451 9  11986531.17249  25578551.058    25578566.9214
  22240942.996    -7564832.291 9  -5892170.45049  22240942.376    22240950.2874
  21847285.513     7367342.259 9   5728104.47149  21847285.499    21847292.8444
 99  5 20 19  6  0.0020000  0  8 30 04 05 06 08 09 10 24
  21736055.166    -7905594.025 9  -6089884.25549  21736055.512    21736061.5174
  24529367.536    15287191.640 9  11896268.94949  24529367.782    24529375.3284
  21077618.933     1074852.529 9    834853.63749  21077618.668    21077625.3734
  23748372.706    -6676461.310 9  -5202053.30949  23748373.023    23748381.6024
  23540111.229    10058555.548 9   7829550.80249  23540110.770    23540121.1604
  25595737.681    15493811.277 9  12056911.46049  25595737.560    25595754.3364
  22231841.960    -7612658.594 9  -5929437.66449  22231841.067    22231849.2004
  21858084.564     7424091.252 9   5772324.42949  21858084.413    21858092.0804
 99  5 20 19  6 30.0020000  0  8 30 04 05 06 08 09 10 24
  21725947.409    -7958710.423 9  -6131273.64349  21725947.589    21725953.8424
  24547613.427    15383074.778 9  11970982.97449  24547613.871    24547623.9494
  21081715.892     1096381.942 9    851629.76549  21081715.452    21081722.2984
  23735670.446    -6743212.168 9  -5254066.92349  23735670.937    23735678.3224
  23555030.224    10136954.934 9   7890641.08549  23555030.692    23555040.8494
  25612871.221    15583846.974 9  12127068.78149  25612871.118    25612888.1954
  22222812.615    -7660107.826 9  -5966411.05949  22222811.708    22222819.9794
  21868894.534     7480897.884 9   5816589.29749  21868894.359    21868901.5764
 99  5 20 19  7  0.0020000  0  8 30 04 05 06 08 09 10 24
  21715898.047    -8011520.092 9  -6172424.02549  21715898.216    21715904.4094
  24565832.121    15478814.696 9  12045585.39849  24565831.719    24565841.2054
  21085880.846     1118268.836 9    868684.44249  21085880.589    21085887.3604
  23722940.729    -6810107.893 9  -5306193.40549  23722940.610    23722948.9944
  23569969.727    10215462.227 9   7951815.43749  23569969.710    23569981.1824
  25629950.479    15673596.965 9  12197003.46449  25629951.943    25629966.0264
  22213855.828    -7707175.761 9  -6003087.34549  22213855.288    22213863.4394
  21879717.799     7537774.644 9   5860908.81049  21879717.797    21879724.9964
 99  5 20 19  7 30.0020000  0  8 30 04 05 06 08 09 10 24
  21705905.342    -8064032.323 9  -6213342.62749  21705905.684    21705911.6594
  24584025.031    15574418.182 9  12120081.49849  24584025.943    24584037.0844
  21090112.099     1140503.911 9    886010.43549  21090111.949    21090118.3334
  23710183.915    -6877145.316 9  -5358430.31849  23710183.571    23710191.8424
  23584929.849    10294077.448 9   8013073.89349  23584929.893    23584941.2694
  25646977.797    15763073.603 9  12266725.17049  25646979.406    25646993.7364
  22204969.320    -7753874.810 9  -6039476.18149  22204968.420    22204976.6344
  21890558.698     7594743.939 9   5905300.43049  21890558.712    21890565.9494
 99  5 20 19  8  0.0020000  0  8 30 04 05 06 08 09 10 24
  21695970.241    -8116241.694 9  -6254025.24249  21695970.682    21695976.6944
  24602190.410    15669876.534 9  12194464.51949  24602192.197    24602200.3654
  21094409.141     1163084.605 9    903605.73849  21094408.845    21094415.5204
  23697403.264    -6944307.804 9  -5410764.67849  23697402.789    23697411.7014
  23599908.966    10372792.328 9   8074410.00149  23599909.682    23599919.4104
  25663956.683    15852296.016 9  12336248.83849  25663958.451    25663974.1224
  22196152.226    -7800208.515 9  -6075580.33649  22196151.164    22196159.0944
  21901418.900     7651814.560 9   5949771.00349  21901419.023    21901426.2194
 99  5 20 19  8 30.0020000  0  8 30 04 05 06 08 09 10 24
  21686090.033    -8168162.463 9  -6294482.96949  21686090.362    21686096.6274
  24620327.128    15765184.492 9  12268730.34449  24620326.613    24620336.6194
  21098773.512     1186019.421 9    921476.99549  21098772.863    21098779.9084
  23684600.166    -7011588.226 9  -5463190.92749  23684600.242    23684608.3624
  23614904.458    10451593.064 9   8135813.01549  23614903.982    23614914.8154
  25680885.455    15941256.356 9  12405568.21349  25680885.453    25680902.0804
  22187403.407    -7846183.764 9  -6111405.17549  22187402.681    22187410.9684
  21912299.819     7708994.027 9   5994326.39449  21912299.781    21912307.0704
 99  5 20 19  9  0.0020000  0  8 30 04 05 06 08 09 10 24
  21676266.808    -8219783.667 9  -6334707.27449  21676266.973    21676273.2014
  24638437.128    15860351.868 9  12342886.64449  24638437.675    24638447.0624
  21103205.383     1209309.123 9    939624.77649  21103205.025    21103211.7954
  23671773.850    -7078990.857 9  -5515712.41249  23671773.832    23671781.7344
  23629914.816    10530472.439 9   8197277.31249  23629913.931    23629925.4104
  25697762.297    16029943.062 9  12474674.38449  25697762.149    25697779.1824
  22178718.434    -7891823.302 9  -6146968.41949  22178717.693    22178726.0514
  21923202.604     7766288.393 9   6038971.31149  21923202.633    21923209.8634
 99  5 20 19  9 30.0020000  0  8 30 04 05 06 08 09 10 24
  21666505.201    -8271081.315 9  -6374679.45349  21666505.430    21666511.4324
  24656519.354    15955372.782 9  12416928.78949  24656519.866    24656528.2074
  21107705.102     1232954.938 9    958050.04949  21107704.670    21107711.7274
  23658923.037    -7146522.330 9  -5568334.28049  23658922.988    23658931.1994
  23644938.895    10609424.323 9   8258798.09649  23644939.379    23644950.0824
  25714585.933    16118353.319 9  12543565.14349  25714586.322    25714603.3234
  22170099.160    -7937117.834 9  -6182262.82349  22170098.360    22170106.8074
  21934127.341     7823698.157 9   6083706.15149  21934127.400    21934135.0314
 99  5 20 19 10  0.0020000  0  8 30 04 05 06 08 09 10 24
  21656805.326    -8322054.570 9  -6414398.85849  21656805.526    21656811.8134
  24674572.309    16050240.566 9  12490851.62549  24674572.619    24674582.4254
  21112273.977     1256964.458 9    976758.72549  21112273.597    21112280.6194
  23646046.600    -7214188.565 9  -5621061.17049  23646046.153    23646054.2234
  23659974.227    10688434.866 9   8320364.60549  23659974.990    23659984.0564
  25731353.504    16206466.762 9  12612224.65049  25731355.603    25731370.7734
  22161547.278    -7982058.520 9  -6217281.50749  22161546.690    22161554.7674
  21945071.084     7881207.361 9   6128518.47649  21945071.233    21945078.4984
 99  5 20 19 10 30.0020000  0  7 30 04 05 06 08 10 24
  21647165.988    -8372709.270 9  -6453870.04149  21647166.329    21647172.5014
  24692595.938    16144955.162 9  12564655.10449  24692596.021    24692606.2004
  21116911.597     1281335.636 9    995749.20649  21116911.087    21116918.2144
  23633142.000    -7282002.452 9  -5673903.09349  23633142.366    23633150.2094
  23675021.635    10767508.691 9   8381980.42749  23675022.413    23675031.6234
  22153063.611    -8026640.616 9  -6252020.77149  22153062.864    22153070.9324
  21956032.750     7938810.964 9   6173404.35949  21956033.025    21956040.0834
 99  5 20 19 11  0.0020000  0  7 30 04 05 06 08 10 24
  21637588.723    -8423038.032 9  -6493087.24749  21637588.979    21637595.1774
  24710590.568    16239517.385 9  12638339.86849  24710591.214    24710599.9444
  21121620.876     1306082.924 9   1015032.76649  21121620.676    21121627.5224
  23620212.057    -7349949.652 9  -5726848.91349  23620211.748    23620219.7844
  23690082.327    10846652.362 9   8443650.66349  23690082.397    23690092.7544
  22144652.687    -8070839.992 9  -6286461.81549  22144651.647    22144660.1244
  21967009.827     7996495.782 9   6218353.52849  21967009.866    21967017.0724
 99  5 20 19 11 30.0020000  0  7 30 04 05 06 08 10 24
  21628071.314    -8473052.368 9  -6532059.44649  21628071.378    21628077.9234
  24728555.269    16333922.456 9  12711902.14449  24728555.587    24728564.7954
  21126404.777     1331222.110 9   1034621.70149  21126404.524    21126411.2194
  23607259.976    -7418012.268 9  -5779884.66749  23607259.994    23607267.8604
  23705155.782    10925864.093 9   8505373.92749  23705155.482    23705166.3304
  22136318.976    -8114633.146 9  -6320586.31549  22136317.926    22136326.4114
  21978000.928     8054254.266 9   6263360.10149  21978001.276    21978008.3824
 99  5 20 19 12  0.0020000  0  7 30 04 05 06 08 10 24
  21618613.518    -8522753.539 9  -6570787.61749  21618613.675    21618620.2154
  24746490.425    16428172.670 9  12785343.78149  24746490.551    24746499.7004
  21131263.013     1356752.042 9   1054515.11649  21131262.751    21131269.3784
  23594288.889    -7486175.442 9  -5832998.78249  23594288.994    23594296.7994
  23720243.795    11005152.655 9   8567157.06449  23720243.917    23720254.3034
  22128060.850    -8158029.967 9  -6354401.99749  22128060.023    22128068.2494
  21989005.456     8112082.764 9   6308421.23349  21989005.518    21989012.7214
 99  5 20 19 12 30.0020000  0  7 30 04 05 06 08 10 24
  21609220.319    -8572114.641 9  -6609250.79949  21609220.488    21609227.1214
  24764397.319    16522274.384 9  12858669.68049  24764398.174    24764406.7524
  21136196.960     1382679.843 9   1074718.55649  21136196.646    21136203.3444
  23581300.374    -7554430.669 9  -5886184.60649  23581300.066    23581309.0044
  23735347.102    11084520.337 9   8629001.84149  23735347.041    23735358.2224
  22119880.054    -8201020.538 9  -6387901.12349  22119879.406    22119887.1494
  22000023.733     8169984.054 9   6353539.08149  22000023.790    22000031.3454
 99  5 20 19 13  0.0020000  0  7 30 04 05 06 08 10 24
  21599894.400    -8621122.660 9  -6647438.85449  21599894.904    21599900.9524
  24782276.941    16616233.196 9  12931884.22849  24782275.038    24782288.4314
  21141208.222     1409014.044 9   1095238.67949  21141207.676    21141214.6884
  23568298.645    -7622755.461 9  -5939424.63849  23568298.397    23568307.2774
  23750463.293    11163956.569 9   8690900.01549  23750463.236    23750473.6034
  22111778.591    -8243593.804 9  -6421075.07249  22111777.995    22111786.0584
  22011057.166     8227965.092 9   6398719.07449  22011057.022    22011064.8824
 99  5 20 19 13 30.0020000  0  7 30 04 05 06 08 10 24
  21590636.971    -8669770.905 9  -6685346.57049  21590637.373    21590643.5204
  24800131.390    16710059.807 9  13004995.74849  24800129.957    24800141.4054
  21146294.070     1435740.228 9   1116064.23249  21146293.925    21146300.9314
  23555281.200    -7691162.635 9  -5992728.86749  23555280.928    23555289.0494
  23765592.918    11243462.680 9   8752852.65349  23765593.612    23765603.9004
  22103756.617    -8285749.471 9  -6453923.62349  22103755.698    22103764.0064
  22022111.522     8286056.028 9   6443984.69449  22022111.899    22022118.8134
 99  5 20 19 14  0.0020000  0  7 30 04 05 06 08 10 24
  21581449.934    -8718049.211 9  -6722966.01949  21581450.263    21581456.6084
  24817961.150    16803755.375 9  13078005.18249  24817961.373    24817972.2714
  21151453.608     1462853.802 9   1137191.64749  21151453.324    21151460.4414
  23542246.394    -7759659.999 9  -6046103.38049  23542245.922    23542254.5124
  23780736.262    11323040.648 9   8814861.29549  23780737.538    23780747.5994
  22095813.203    -8327492.372 9  -6486450.53549  22095812.367    22095820.6934
  22033189.005     8344268.372 9   6489344.92349  22033189.260    22033196.2434
 99  5 20 19 14 30.0020000  0  7 30 04 05 06 08 10 24
  21572333.703    -8765955.315 9  -6760295.44749  21572334.024    21572340.3744
  24835766.759    16897323.247 9  13150915.09049  24835768.116    24835777.4324
  21156688.202     1490361.356 9   1158626.06349  21156688.000    21156694.8944
  23529196.298    -7828238.465 9  -6099541.08849  23529195.567    23529204.2034
  23795892.961    11402689.871 9   8876925.45549  23795893.246    23795904.0554
  22087951.787    -8368804.162 9  -6518641.51649  22087950.820    22087958.7584
  22044291.631     8402612.810 9   6534808.08049  22044291.834    22044299.0714
 99  5 20 19 15  0.0020000  0  7 30 04 05 06 08 10 24
  21563284.731    -8813507.716 9  -6797349.25849  21563285.028    21563291.4504
  24853545.029    16990747.045 9  13223712.76349  24853546.078    24853555.3434
  21161995.087     1518248.988 9   1180356.64149  21161994.806    21162001.6404
  23516129.253    -7896906.315 9  -6153048.45749  23516129.562    23516138.1294
  23811065.629    11482421.867 9   8939054.11349  23811066.042    23811077.7194
  22080171.272    -8409690.354 9  -6550500.86249  22080170.696    22080178.7704
  22055418.956     8461086.830 9   6580372.21249  22055418.991    22055426.3324
 99  5 20 19 15 30.0020000  0  7 30 04 05 06 08 10 24
  21554303.127    -8860706.524 9  -6834127.54249  21554303.636    21554310.1184
  24871295.127    17084021.993 9  13296394.42749  24871297.419    24871305.4684
  21167374.576     1546517.984 9   1202384.38849  21167374.342    21167381.2214
  23503041.833    -7965681.507 9  -6206639.45649  23503041.433    23503049.7664
  23826256.046    11562247.330 9   9001255.62949  23826256.676    23826268.0554
  22072471.226    -8450154.546 9  -6582031.37649  22072470.916    22072478.4254
  22066568.408     8519677.294 9   6626027.07549  22066568.602    22066575.8474
 99  5 20 19 16  0.0020000  0  7 30 04 05 06 08 10 24
  21545389.074    -8907550.613 9  -6870629.42449  21545389.457    21545395.5464
  24889014.511    17177136.008 9  13368950.70849  24889014.674    24889025.2494
  21172827.166     1575171.351 9   1224711.63749  21172826.937    21172833.8714
  23489936.940    -8034547.640 9  -6260301.32449  23489936.126    23489945.2994
  23841463.448    11642162.439 9   9063526.95949  23841463.978    23841476.2754
  22064851.304    -8490197.619 9  -6613233.74449  22064850.702    22064858.6414
  22077734.028     8578352.765 9   6671748.17949  22077733.953    22077741.3744
 99  5 20 19 16 30.0020000  0  7 30 04 05 06 08 10 24
  21536541.988    -8954042.486 9  -6906856.84849  21536542.132    21536548.7014
  24906703.260    17270090.745 9  13441382.86349  24906704.287    24906713.5424
  21178352.589     1604207.353 9   1247337.04649  21178352.232    21178359.1264
  23476814.652    -8103504.941 9  -6314034.25349  23476814.150    23476822.0994
  23856687.496    11722164.307 9   9125865.92349  23856688.608    23856699.6664
  22057315.072    -8529800.620 9  -6644093.19549  22057314.219    22057322.5604
  22088912.565     8637096.267 9   6717522.29449  22088912.404    22088920.2044
 99  5 20 19 17  0.0020000  0  7 30 04 05 06 08 10 24
  21527761.636    -9000183.474 9  -6942810.85549  21527761.931    21527768.3384
  24924364.488    17362900.872 9  13513702.36649  24924363.862    24924374.5364
  21183952.328     1633634.029 9   1270266.87549  21183951.995    21183958.9504
  23463674.942    -8172553.979 9  -6367838.63449  23463674.846    23463682.3234
  23871926.685    11802244.678 9   9188266.05349  23871926.549    23871937.9554
  22049864.144    -8568955.593 9  -6674603.53749  22049863.327    22049871.3984
  22100103.818     8695906.529 9   6763348.43049  22100103.657    22100111.4144
 99  5 20 19 17 30.0020000  0  7 30 04 05 06 08 10 24
  21519050.667    -9045960.036 9  -6978480.89349  21519050.951    21519057.1104
  24942000.643    17455579.936 9  13585919.71749  24942001.012    24942011.0324
  21189627.305     1663456.257 9   1293504.93049  21189627.096    21189634.0564
  23450520.068    -8241683.066 9  -6421705.40649  23450519.713    23450528.5844
  23887175.916    11882378.569 9   9250707.87549  23887175.313    23887187.1054
  22042499.448    -8607657.181 9  -6704760.59449  22042498.896    22042506.9864
  22111309.677     8754793.459 9   6809234.31149  22111309.269    22111317.4674
 99  5 20 19 18  0.0020000  0  7 30 04 05 06 08 10 24
  21510410.102    -9091366.555 9  -7013862.58849  21510410.453    21510416.7004
  24959611.740    17548126.756 9  13658034.01149  24959612.140    24959622.5944
  21195375.748     1693664.079 9   1317043.44849  21195375.467    21195382.5974
  23437351.569    -8310884.396 9  -6475628.47549  23437351.329    23437359.9694
  23902431.175    11962544.957 9   9313174.98749  23902430.642    23902442.3744
  22035221.050    -8645905.480 9  -6734564.44249  22035220.534    22035228.6704
  22122531.383     8813763.981 9   6855185.32649  22122531.670    22122539.3604
 99  5 20 19 18 30.0020000  0  7 30 04 05 06 08 10 24
  21501840.890    -9136398.407 9  -7048952.33249  21501841.095    21501847.4514
  24977198.056    17640544.024 9  13730047.37649  24977198.475    24977208.4894
  21201196.962     1724254.354 9   1340879.99249  21201196.597    21201203.7234
  23424164.647    -8380182.322 9  -6529626.79849  23424164.328    23424173.0194
  23917690.124    12042730.669 9   9375657.17949  23917689.988    23917701.3034
  22028027.447    -8683708.288 9  -6764021.15249  22028026.804    22028034.5334
  22133770.894     8872827.851 9   6901209.08149  22133770.739    22133778.3234
 99  5 20 19 19  0.0020000  0  7 30 04 05 06 08 10 24
  21493345.903    -9181039.876 9  -7083737.88349  21493346.146    21493352.3034
  24994759.306    17732829.584 9  13801958.10749  24994759.418    24994769.8684
  21207091.565     1755230.347 9   1365017.09349  21207091.326    21207098.3844
  23410960.006    -8449573.032 9  -6583697.43549  23410959.850    23410969.1084
  23932954.010    12122943.044 9   9438160.14449  23932954.161    23932965.1684
  22020914.788    -8721085.487 9  -6793146.21449  22020914.108    22020921.8824
  22145031.176     8932001.138 9   6947318.09049  22145030.854    22145038.8654
 99  5 20 19 19 30.0020000  0  7 30 04 05 06 08 10 24
  21484927.143    -9225280.696 9  -7118211.24749  21484927.284    21484933.5744
  25012294.073    17824974.911 9  13873759.57249  25012294.069    25012305.4074
  21213059.946     1786593.974 9   1389456.24049  21213059.774    21213066.7724
  23397736.574    -8519061.882 9  -6637844.55649  23397736.274    23397744.9124
  23948225.694    12203194.451 9   9500693.53249  23948226.158    23948237.1874
  22013882.287    -8758041.513 9  -6821943.09549  22013881.517    22013889.2734
  22156311.349     8991278.753 9   6993508.39549  22156310.965    22156319.1034
 99  5 20 19 20  0.0020000  0  7 30 04 05 06 08 10 24
  21476583.441    -9269126.808 9  -7152377.04349  21476583.641    21476589.8474
  25029801.582    17916977.240 9  13945449.59249  25029802.968    25029811.7914
  21219102.720     1818348.815 9   1414200.22849  21219102.421    21219109.4804
  23384494.105    -8588652.007 9  -6692070.56549  23384494.291    23384502.1314
  23963506.997    12283496.516 9   9563266.38349  23963507.059    23963517.3314
  22006929.323    -8794579.511 9  -6850414.23049  22006928.191    22006936.4774
  22167608.197     9050644.074 9   7039767.04349  22167608.194    22167616.0954
 99  5 20 19 20 30.0020000  0  7 30 04 05 06 08 10 24
  21468315.541    -9312575.126 9  -7186232.87049  21468315.784    21468322.1234
  25047282.691    18008840.115 9  14017030.97849  25047283.686    25047293.7344
  21225220.881     1850499.987 9   1439253.05249  21225220.556    21225227.7074
  23371234.078    -8658333.773 9  -6746368.00949  23371234.021    23371242.6564
  23978801.398    12363868.474 9   9625893.71549  23978800.492    23978812.9264
  22000057.671    -8830689.910 9  -6878552.17249  22000057.007    22000065.1844
  22178921.664     9110096.571 9   7086093.63049  22178921.672    22178929.3054
 99  5 20 19 21  0.0020000  0  7 30 04 05 06 08 10 24
  21460121.236    -9355636.757 9  -7219787.37949  21460121.497    21460127.5354
  25064734.357    18100548.788 9  14088492.17249  25064734.455    25064745.7944
  21231412.681     1883037.955 9   1464607.27549  21231412.349    21231419.6674
  23357961.418    -8728082.135 9  -6800717.33649  23357960.770    23357969.5204
  23994107.994    12444305.012 9   9688571.34349  23994107.595    23994119.7614
  21993268.565    -8866366.640 9  -6906352.18849  21993267.338    21993275.4694
  22190248.799     9169621.305 9   7132476.49749  22190248.970    22190256.6154
 99  5 20 19 21 30.0020000  0  8 30 17 04 05 06 08 10 24
  21451999.504    -9398316.772 9  -7253044.52949  21451999.670    21452005.9614
  25825583.545    -2646284.637 9   -869877.26749  25825582.861    25825599.2034
  25082153.993    18192089.545 9  14159822.57749  25082155.305    25082164.9524
  21237677.782     1915961.172 9   1490261.69049  21237677.262    21237684.5294
  23344676.767    -8797893.099 9  -6855115.44249  23344675.827    23344684.8114
  24009422.476    12524781.572 9   9751280.13949  24009422.852    24009434.1754
  21986564.557    -8901595.669 9  -6933803.34649  21986563.469    21986571.8094
  22201586.440     9229200.909 9   7178902.12649  22201586.342    22201594.2124
 99  5 20 19 22  0.0020000  0  8 30 17 04 05 06 08 10 24
  21443957.621    -9440576.861 9  -7285974.46449  21443957.947    21443964.1924
  25806763.470    -2745187.496 9   -946944.22149  25806762.610    25806778.8764
  25099544.949    18283478.497 9  14231034.67149  25099545.156    25099554.5594
  21244017.878     1949278.757 9   1516223.39449  21244017.573    21244024.7604
  23331386.097    -8867735.970 9  -6909538.41649  23331385.728    23331393.8954
  24024745.142    12605302.641 9   9814023.63849  24024744.136    24024756.7304
  21979949.822    -8936355.944 9  -6960889.24849  21979949.238    21979957.0904
  22212940.254     9288865.354 9   7225393.86149  22212939.992    22212947.4884
 99  5 20 19 22 30.0020000  0  8 30 17 04 05 06 08 10 24
  21435997.393    -9482408.401 9  -7318570.46849  21435997.678    21436003.9764
  25787946.823    -2844071.240 9  -1023996.30649  25787943.798    25787959.2204
  25116905.210    18374707.313 9  14302121.99949  25116906.258    25116914.4784
  21250432.787     1982988.771 9   1542490.89849  21250432.322    21250439.6034
  23318089.768    -8937608.555 9  -6963984.53349  23318090.052    23318097.4054
  24040073.579    12685854.274 9   9876790.95149  24040073.513    24040085.8394
  21973425.392    -8970642.417 9  -6987605.94449  21973424.495    21973432.9564
  22224311.714     9348622.900 9   7271958.14649  22224311.689    22224319.2824
 99  5 20 19 23  0.0020000  0  8 30 17 04 05 06 08 10 24
  21428120.530    -9523801.691 9  -7350824.97949  21428120.901    21428127.0124
  25769138.106    -2942907.004 9  -1101010.97749  25769135.269    25769151.2814
  25134236.468    18465783.659 9  14373090.48249  25134236.330    25134247.4224
  21256924.034     2017100.852 9   1569071.70049  21256923.668    21256930.7194
  23304786.363    -9007518.570 9  -7018459.82349  23304786.012    23304794.6284
  24055406.034    12766426.969 9   9939574.65749  24055406.788    24055418.5474
  21966990.522    -9004457.964 9  -7013955.69249  21966990.229    21966998.0614
  22235702.098     9408479.804 9   7318599.83949  22235702.274    22235709.4404
 99  5 20 19 23 30.0020000  0  8 30 17 04 05 06 08 10 24
  21420327.749    -9564752.813 9  -7382734.94449  21420327.916    21420334.2254
  25750343.481    -3041674.016 9  -1177972.09049  25750342.179    25750356.5734
  25151542.051    18556724.028 9  14443953.03149  25151542.120    25151546.8814
  21263492.974     2051620.840 9   1595970.34449  21263492.780    21263499.9514
  23291471.572    -9077487.778 9  -7072981.23849  23291471.600    23291479.2844
  24070742.998    12847022.081 9  10002375.84649  24070743.211    24070754.6314
  21960644.988    -9037803.866 9  -7039939.48549  21960644.402    21960652.1774
  22247112.434     9468441.259 9   7365323.01949  22247112.345    22247120.5674
 99  5 20 19 24  0.0020000  0  8 30 17 04 05 06 08 10 24
  21412617.019    -9605272.577 9  -7414308.78849  21412617.313    21412623.3274
  25731560.888    -3140377.977 9  -1254884.09049  25731561.111    25731573.3194
  25168823.302    18647536.655 9  14514716.02649  25168824.166    25168830.9724
  21270136.442     2086531.715 9   1623173.57449  21270136.361    21270143.2604
  23278143.634    -9147525.859 9  -7127556.32049  23278143.517    23278151.7924
  24086086.984    12927654.012 9  10065205.71849  24086087.489    24086099.5474
  21954388.341    -9070682.913 9  -7065559.48649  21954387.284    21954395.4414
  22258541.326     9528500.194 9   7412122.14849  22258541.093    22258548.8834
 99  5 20 19 24 30.0020000  0  8 30 17 04 05 06 08 10 24
  21404985.062    -9645378.406 9  -7445560.08849  21404985.437    21404991.3934
  25712791.596    -3239006.321 9  -1331737.12749  25712791.435    25712804.4784
  25186081.370    18738228.045 9  14585384.59249  25186082.408    25186091.0314
  21276857.601     2121851.286 9   1650695.25949  21276857.558    21276864.2474
  23264802.734    -9217633.068 9  -7182185.26949  23264802.812    23264810.9334
  24101440.899    13008337.254 9  10128075.56849  24101441.209    24101453.1904
  21948224.055    -9103076.205 9  -7090800.98349  21948223.311    21948231.3224
  22269987.181     9588648.396 9   7458990.83849  22269987.259    22269995.2144
 99  5 20 19 25  0.0020000  0  8 30 17 04 05 06 08 10 24
  21397427.145    -9685095.614 9  -7476508.56449  21397427.759    21397433.4444
  25694032.442    -3337588.098 9  -1408553.89749  25694032.641    25694047.2984
  25203314.113    18828786.302 9  14655949.40149  25203314.119    25203324.8934
  21283654.561     2157568.880 9   1678527.09949  21283654.273    21283661.2704
  23251445.616    -9287825.179 9  -7236880.37249  23251444.990    23251453.5154
  24116803.127    13089063.870 9  10190979.20149  24116803.594    24116814.1314
  21942149.749    -9134996.698 9  -7115674.06549  21942148.886    21942157.2634
  22281445.480     9648862.241 9   7505910.67549  22281445.416    22281453.4074
 99  5 20 19 25 30.0020000  0  8 30 17 04 05 06 08 10 24
  21389945.248    -9724413.578 9  -7507145.94149  21389945.509    21389951.7274
  25675276.746    -3436151.260 9  -1485356.17349  25675275.736    25675290.2394
  25220520.789    18919207.692 9  14726407.54549  25220520.437    25220531.7324
  21290527.343     2193685.754 9   1706670.07449  21290527.045    21290534.7034
  23238075.950    -9358082.605 9  -7291626.37049  23238075.325    23238084.2914
  24132172.828    13169830.793 9  10253914.26449  24132172.904    24132185.4434
  21936170.207    -9166419.141 9  -7140159.05549  21936169.526    21936177.6084
  22292916.164     9709141.066 9   7552881.14349  22292916.135    22292924.1704
 99  5 20 19 26  0.0020000  0  8 30 17 04 05 06 08 10 24
  21382542.483    -9763315.439 9  -7537459.08849  21382542.704    21382549.0494
  25656522.192    -3534707.585 9  -1562153.11749  25656520.960    25656534.5864
  25237698.553    19009478.139 9  14796748.08949  25237698.515    25237710.1884
  21297477.180     2230207.417 9   1735128.46649  21297476.924    21297484.3004
  23224697.311    -9428387.597 9  -7346409.44349  23224697.117    23224705.7304
  24147549.646    13250635.309 9  10316878.59549  24147549.439    24147561.1884
  21930288.001    -9197330.196 9  -7164245.56649  21930287.178    21930295.2984
  22304401.205     9769495.299 9   7599910.37349  22304401.124    22304409.3984
 99  5 20 19 26 30.0020000  0  8 30 17 04 05 06 08 10 24
  21375219.975    -9801795.661 9  -7567443.68249  21375219.883    21375226.3904
  25637767.268    -3633266.558 9  -1638952.12049  25637766.244    25637779.4754
  25254846.509    19099591.739 9  14866966.40449  25254847.693    25254860.2264
  21304506.635     2267147.368 9   1763912.79949  21304505.947    21304513.5334
  23211309.829    -9498739.076 9  -7401228.72249  23211309.105    23211318.1014
  24162929.003    13331453.948 9  10379853.94349  24162928.163    24162941.3344
  21924502.392    -9227733.876 9  -7187936.71549  21924501.693    21924509.5254
  22315901.320     9829928.840 9   7647001.40049  22315901.313    22315909.3944
 99  5 20 19 27  0.0020000  0  8 30 17 04 05 06 08 10 24
  21367982.158    -9839830.084 9  -7597080.89549  21367982.414    21367988.8804
  25619012.816    -3731820.110 9  -1715746.93249  25619011.377    25619025.2084
  25271968.084    19189565.597 9  14937075.80949  25271969.649    25271979.5364
  21311617.149     2304513.512 9   1793029.21849  21311616.815    21311624.2684
  23197916.930    -9569118.835 9  -7456070.04649  23197916.866    23197924.7654
  24178313.138    13412297.560 9  10442848.70849  24178313.122    24178325.4474
  21918814.334    -9257625.223 9  -7211228.64449  21918813.761    21918821.3464
  22327418.494     9890451.816 9   7694162.12449  22327418.979    22327426.6644
 99  5 20 19 27 30.0020000  0  8 30 17 04 05 06 08 10 24
  21360825.455    -9877438.507 9  -7626386.16449  21360825.738    21360832.3324
  25600258.443    -3830374.752 9  -1792542.55549  25600256.961    25600269.8854
  25289056.791    19279366.664 9  15007050.55749  25289057.999    25289068.9364
  21318802.995     2342275.081 9   1822453.76949  21318802.600    21318809.8114
  23184514.291    -9639549.958 9  -7510951.38849  23184514.375    23184522.0694
  24193699.196    13493150.555 9  10505850.83149  24193699.940    24193711.0434
  21913219.699    -9287025.266 9  -7234137.74749  21913219.034    21913226.9804
  22338948.388     9951041.489 9   7741374.82149  22338948.308    22338956.2124
 99  5 20 19 28  0.0020000  0  8 30 17 04 05 06 08 10 24
  21353754.093    -9914598.895 9  -7655342.31549  21353754.443    21353761.0014
  25581515.184    -3928871.075 9  -1869292.73449  25581514.386    25581527.8714
  25306120.023    19369034.687 9  15076921.63649  25306120.357    25306132.7124
  21326073.503     2380481.633 9   1852225.05449  21326073.167    21326080.4514
  23171106.274    -9710009.882 9  -7565855.17949  23171105.677    23171114.4954
  24209095.500    13574058.141 9  10568895.46949  24209095.722    24209107.0864
  21907721.241    -9315919.618 9  -7256652.80849  21907720.481    21907728.6434
  22350497.838    10011733.852 9   7788667.53249  22350497.692    22350505.7154
 99  5 20 19 28 30.0020000  0  8 30 17 04 05 06 08 10 24
  21346765.445    -9951324.779 9  -7683959.89849  21346765.862    21346772.1934
  25562783.233    -4027305.183 9  -1945994.45649  25562780.655    25562794.4474
  25323157.712    19458567.273 9  15146687.18849  25323158.672    25323169.6344
  21333426.289     2419120.695 9   1882333.36249  21333425.967    21333433.1084
  23157690.591    -9780509.489 9  -7620789.88449  23157690.085    23157698.7034
  24224500.303    13655009.851 9  10631974.50049  24224500.138    24224512.4204
  21902315.889    -9344324.851 9  -7278786.74049  21902315.163    21902323.3304
  22362063.143    10072510.066 9   7836025.58249  22362063.116    22362071.1444
 99  5 20 19 29  0.0020000  0  8 30 17 04 05 06 08 10 24
  21339858.762    -9987620.095 9  -7712241.96349  21339859.033    21339865.2364
  25544062.043    -4125685.294 9  -2022654.09749  25544060.955    25544074.8884
  25340165.396    19547941.288 9  15216329.19749  25340168.416    25340175.7164
  21340856.909     2458168.993 9   1912760.55949  21340856.353    21340863.7874
  23144264.827    -9851061.714 9  -7675765.59849  23144264.059    23144273.2094
  24239911.622    13735995.636 9  10695080.08149  24239911.478    24239923.4934
  21897002.062    -9372248.998 9  -7300545.80249  21897000.952    21897009.3654
  22373642.802    10133361.365 9   7883442.13849  22373643.379    22373651.2874
 99  5 20 19 29 30.0020000  0  8 30 17 04 05 06 08 10 24
  21333041.192   -10023446.754 9  -7740158.84549  21333041.483    21333047.6564
  25525353.817    -4223997.138 9  -2099260.52149  25525351.057    25525365.8684
  25357145.835    19637172.902 9  15285860.24049  25357145.843    25357158.0324
  21348369.167     2497645.828 9   1943521.67549  21348368.852    21348376.3174
  23130830.839    -9921657.013 9  -7730774.88349  23130830.749    23130839.1134
  24255329.336    13817015.884 9  10758212.51849  24255329.775    24255341.3654
  21891785.748    -9399660.740 9  -7321905.59749  21891784.893    21891793.1474
  22385243.934    10194325.023 9   7930946.23649  22385244.298    22385252.0904
 99  5 20 19 30  0.0020000  0  8 30 17 04 05 06 08 10 24
  21326311.310   -10058812.762 9  -7767716.77649  21326311.502    21326317.9304
  25506651.992    -4322273.369 9  -2175839.21649  25506650.933    25506665.0724
  25374097.803    19726255.263 9  15355274.98249  25374099.197    25374109.1244
  21355956.764     2537518.738 9   1974591.42449  21355956.689    21355963.7934
  23117385.265    -9992314.149 9  -7785832.34749  23117385.447    23117393.8014
  24270745.047    13898024.935 9  10821336.22349  24270746.152    24270756.7264
  21886661.462    -9426588.967 9  -7342888.62249  21886660.660    21886668.4574
  22396863.132    10255383.666 9   7978524.36149  22396863.264    22396871.1134
 99  5 20 19 30 30.0020000  0  8 30 17 04 05 06 08 10 24
  21319676.486   -10093678.857 9  -7794885.16649  21319676.825    21319682.9984
  25487961.971    -4420488.639 9  -2252370.36249  25487961.182    25487975.6154
  25391025.888    19815211.670 9  15424591.57949  25391026.618    25391036.1954
  21363622.051     2577799.787 9   2005979.20849  21363621.782    21363629.4014
  23103936.186   -10062989.884 9  -7840904.29349  23103936.248    23103943.9604
  24286163.318    13979048.246 9  10884471.05549  24286162.859    24286174.4814
  21881638.268    -9452985.873 9  -7363457.62649  21881637.518    21881645.4134
  22408504.453    10316559.322 9   8026193.65449  22408504.415    22408512.7004
 99  5 20 19 31  0.0020000  0  8 30 17 04 05 06 08 10 24
  21313134.079   -10128059.193 9  -7821675.04249  21313134.424    21313140.7134
  25469281.157    -4518656.098 9  -2328864.27549  25469280.724    25469294.3654
  25407928.485    19904036.053 9  15493805.31249  25407928.977    25407939.8074
  21371363.625     2618481.881 9   2037679.49349  21371363.353    21371370.8624
  23090480.443   -10133700.194 9  -7896003.18649  23090480.063    23090488.6434
  24301583.005    14060078.221 9  10947611.03349  24301582.594    24301595.3734
  21876714.408    -9478861.269 9  -7383620.25749  21876713.666    21876721.3874
  22420164.231    10377831.634 9   8073938.26449  22420164.063    22420172.0794
 99  5 20 19 31 30.0020000  0  7 30 17 05 06 08 10 24
  21306681.463   -10161967.933 9  -7848097.44249  21306681.811    21306688.2114
  25450610.449    -4616769.298 9  -2405315.90449  25450609.020    25450622.9004
  21379181.270     2659563.422 9   2069691.03249  21379181.281    21379188.5004
  23077018.318   -10204443.313 9  -7951127.66049  23077017.973    23077026.6554
  24317002.820    14141109.103 9  11010751.73949  24317003.109    24317015.2604
  21871886.715    -9504231.152 9  -7403388.97949  21871885.928    21871893.7934
  22431838.329    10439179.180 9   8121741.49749  22431838.401    22431846.4674
 99  5 20 19 32  0.0020000  0  7 30 17 05 06 08 10 24
  21300318.882   -10195403.595 9  -7874151.21349  21300319.256    21300325.6784
  25431956.078    -4714797.998 9  -2481701.69149  25431954.494    25431968.3914
  21387078.184     2701061.525 9   2102027.16049  21387078.174    21387085.6984
  23063556.965   -10275182.975 9  -8006249.43349  23063557.112    23063565.0724
  24332426.586    14222161.039 9  11073908.85249  24332425.992    24332439.2614
  21867155.985    -9529091.351 9  -7422760.55049  21867155.473    21867163.1544
  22443524.397    10500589.328 9   8169593.50949  22443524.491    22443532.6884
 99  5 20 19 32 30.0020000  0  7 30 17 05 06 08 10 24
  21294039.500   -10228402.023 9  -7899864.28349  21294040.043    21294046.1384
  25413314.557    -4812757.451 9  -2558033.51249  25413313.459    25413327.2314
  21395051.413     2742960.944 9   2134675.99349  21395051.244    21395058.7014
  23050090.489   -10345949.487 9  -8061392.12049  23050090.674    23050098.9154
  24347849.253    14303208.179 9  11137062.24649  24347848.785    24347862.8724
  21862517.784    -9553465.319 9  -7441753.23649  21862517.114    21862524.7804
  22455211.845    10562007.367 9   8217451.66349  22455212.020    22455219.6644
 99  5 20 19 33  0.0020000  0  7 30 17 05 06 08 10 24
  21287853.293   -10260911.227 9  -7925196.13749  21287853.706    21287860.0144
  25394694.671    -4910603.949 9  -2634277.32049  25394693.470    25394708.6764
  21403109.483     2785305.976 9   2167672.05849  21403109.066    21403116.8224
  23036625.867   -10416706.592 9  -8116527.48749  23036626.186    23036634.6244
  24363277.757    14384285.809 9  11200239.36749  24363277.904    24363290.3854
  21857978.753    -9577318.154 9  -7460339.84049  21857978.227    21857985.9524
  22466910.220    10623482.353 9   8265354.19549  22466910.432    22466917.7034
 99  5 20 19 33 30.0020000  0  7 30 17 05 06 08 10 24
  21281756.435   -10292950.576 9  -7950161.87649  21281756.646    21281762.9874
  25376092.450    -5008358.542 9  -2710449.50949  25376091.887    25376106.5934
  21411246.299     2828065.271 9   2200990.93049  21411245.883    21411253.5624
  23023160.708   -10487466.948 9  -8171665.38349  23023160.767    23023168.8144
  24378705.284    14465356.474 9  11263411.09149  24378705.523    24378718.8254
  21853534.843    -9600671.101 9  -7478536.93449  21853534.223    21853541.8614
  22478616.584    10684999.640 9   8313289.69349  22478616.398    22478624.5804
 99  5 20 19 34  0.0020000  0  7 30 17 05 06 08 10 24
  21275754.907   -10324488.811 9  -7974737.13849  21275755.221    21275761.4414
  25357512.749    -5105995.402 9  -2786529.94949  25357511.890    25357526.7794
  21419467.675     2871268.781 9   2234655.94249  21419467.451    21419474.8224
  23009700.362   -10558202.091 9  -8226783.63249  23009699.906    23009708.4644
  24394136.829    14546449.427 9  11326600.17749  24394137.430    24394150.7874
  21849196.419    -9623470.005 9  -7496302.31049  21849195.986    21849203.4474
  22490339.608    10746604.576 9   8361293.47649  22490339.482    22490347.3704
 99  5 20 19 34 30.0020000  0  7 30 17 05 06 08 10 24
  21269838.906   -10355577.170 9  -7998961.83849  21269839.177    21269845.6414
  25338943.533    -5203577.887 9  -2862568.04449  25338942.505    25338957.0824
  21427763.870     2914865.124 9   2268627.06549  21427763.578    21427770.7324
  22996232.211   -10628977.461 9  -8281933.22749  22996231.970    22996239.7314
  24409566.123    14627528.058 9  11389778.09949  24409566.908    24409580.2274
  21844955.412    -9645756.534 9  -7513668.42349  21844954.703    21844962.2634
  22502075.623    10808277.203 9   8409350.01949  22502075.697    22502083.3064
 99  5 20 19 35  0.0020000  0  7 30 17 05 06 08 10 24
  21264015.410   -10386180.124 9  -8022808.30349  21264015.978    21264021.9374
  25320389.349    -5301080.788 9  -2938544.10549  25320388.530    25320402.9614
  21436138.736     2958875.039 9   2302920.44349  21436138.400    21436145.7154
  22982764.012   -10699753.103 9  -8337083.03049  22982763.674    22982772.1084
  24424997.742    14708621.267 9  11452967.33349  24424998.665    24425011.5084
  21840819.135    -9667492.637 9  -7530605.62949  21840818.136    21840826.3304
  22513835.959    10870077.522 9   8457506.06049  22513836.285    22513844.3864
 99  5 20 19 35 30.0020000  0  7 30 17 05 06 08 10 24
  21258281.362   -10416312.992 9  -8046288.47149  21258281.698    21258287.8774
  25301848.698    -5398513.768 9  -3014465.68349  25301847.865    25301861.2684
  21444588.741     3003279.984 9   2337521.63249  21444588.350    21444595.8534
  22969294.256   -10770537.330 9  -8392239.53449  22969294.029    22969302.1024
  24440430.261    14789718.819 9  11516159.98349  24440430.182    24440444.2184
  21836787.313    -9688679.668 9  -7547114.99549  21836786.677    21836794.3064
  22525617.803    10931991.190 9   8505750.42349  22525618.009    22525625.7454
 99  5 20 19 36  0.0020000  0  7 30 17 05 06 08 10 24
  21252635.094   -10445984.281 9  -8069408.96349  21252635.587    21252641.6864
  25283316.880    -5495897.539 9  -3090348.91549  25283315.925    25283328.9724
  21453111.048     3048065.035 9   2372419.00749  21453110.880    21453118.5154
  22955817.351   -10841358.956 9  -8447425.18349  22955817.488    22955824.1804
  24455862.352    14870813.479 9  11579350.37749  24455863.228    24455876.4514
  21832856.940    -9709333.994 9  -7563209.25849  21832856.098    21832863.9094
  22537414.216    10993981.186 9   8554054.26549  22537414.662    22537422.0994
 99  5 20 19 36 30.0020000  0  7 30 17 05 06 08 10 24
  21247081.930   -10475166.587 9  -8092148.42749  21247082.291    21247088.6064
  25264799.091    -5593209.276 9  -3166176.03049  25264798.254    25264811.8694
  21461706.340     3093233.291 9   2407614.97949  21461706.140    21461713.9974
  22942335.353   -10912207.437 9  -8502631.73249  22942335.402    22942342.7694
  24471294.350    14951907.830 9  11642540.51449  24471293.936    24471308.1854
  21829027.630    -9729456.828 9  -7578889.36949  21829026.909    21829035.0714
  22549225.393    11056048.567 9   8602418.40849  22549225.736    22549232.9284
 99  5 20 19 37  0.0020000  0  7 30 17 05 06 08 10 24
  21241623.045   -10503853.518 9  -8114501.88849  21241623.460    21241629.4824
  25246295.486    -5690445.547 9  -3241944.34249  25246294.644    25246308.0084
  21470371.622     3138769.311 9   2443097.51949  21470371.551    21470379.1864
  22928847.086   -10983088.621 9  -8557863.78049  22928846.900    22928854.2994
  24486719.079    15032965.143 9  11705701.76749  24486719.307    24486732.7554
  21825297.874    -9749056.930 9  -7594162.16549  21825296.921    21825305.0614
  22561044.636    11118158.832 9   8650815.97249  22561044.544    22561052.7534
 99  5 20 19 37 30.0020000  0  7 30 17 05 06 08 10 24
  21236264.878   -10532010.997 9  -8136442.79249  21236265.180    21236271.5154
  25227811.040    -5787580.881 9  -3317634.00749  25227809.321    25227823.6184
  21479114.259     3184711.872 9   2478896.85149  21479113.949    21479121.8974
  22915356.026   -11053984.620 9  -8613107.36749  22915355.819    22915363.3764
  24502140.432    15114004.489 9  11768849.04149  24502141.081    24502154.1914
  21821671.718    -9768112.470 9  -7609010.62649  21821670.602    21821678.9284
  22572873.994    11180322.312 9   8699254.99349  22572874.234    22572881.8324
 99  5 20 19 38  0.0020000  0  7 30 17 05 06 08 10 24
  21231003.393   -10559660.307 9  -8157987.71349  21231003.522    21231009.9894
  25209343.312    -5884627.885 9  -3393254.83649  25209341.986    25209354.8564
  21487933.622     3231057.371 9   2515010.16449  21487933.363    21487940.9694
  22901859.138   -11124910.803 9  -8668374.47149  22901859.043    22901867.2294
  24517554.167    15195002.077 9  11831963.75049  24517554.700    24517568.3254
  21818144.926    -9786645.772 9  -7623452.14649  21818144.143    21818152.1624
  22584712.748    11242535.088 9   8747732.43349  22584712.649    22584721.1854
 99  5 20 19 38 30.0020000  0  7 30 17 05 06 08 10 24
  21225841.103   -10586788.504 9  -8179126.57749  21225841.336    21225847.8114
  25190893.089    -5981581.002 9  -3468802.52149  25190891.978    25190906.2784
  21496832.211     3277819.576 9   2551448.18149  21496831.653    21496839.7564
  22888361.075   -11195843.160 9  -8723646.38749  22888360.768    22888369.2794
  24532960.545    15275960.974 9  11895048.31849  24532961.364    24532974.9964
  21814718.954    -9804649.418 9  -7637480.94849  21814718.055    21814726.0844
  22596568.303    11304836.092 9   8796278.62449  22596568.271    22596576.1664
 99  5 20 19 39  0.0020000  0  7 30 17 05 06 08 10 24
  21220774.439   -10613413.918 9  -8199873.65749  21220774.723    21220780.8774
  25172456.999    -6078462.566 9  -3544294.44849  25172455.642    25172468.9104
  21505809.866     3324997.317 9   2588209.98549  21505809.628    21505817.4294
  22874861.522   -11266783.365 9  -8778924.42549  22874861.233    22874869.9114
  24548359.504    15356880.612 9  11958102.28849  24548360.234    24548373.3784
  21811391.313    -9822136.221 9  -7651107.02549  21811390.718    21811398.6934
  22608436.288    11367202.670 9   8844875.90349  22608436.245    22608444.2504
 99  5 20 19 39 30.0020000  0  7 30 17 05 06 08 10 24
  21215798.224   -10639564.009 9  -8220250.36249  21215798.678    21215804.8134
  25154031.715    -6175287.962 9  -3619742.64649  25154029.857    25154044.4444
  21514864.082     3372577.211 9   2625285.15549  21514863.840    21514871.5774
  22861359.964   -11337734.149 9  -8834210.70949  22861360.170    22861367.9544
  24563750.872    15437761.127 9  12021125.77149  24563751.549    24563764.7054
  21808160.604    -9839113.775 9  -7664336.28049  21808159.855    21808167.5184
  22620316.814    11429634.593 9   8893524.10749  22620316.631    22620324.4794
 99  5 20 19 40  0.0020000  0  7 30 17 05 06 08 10 24
  21210913.393   -10665233.779 9  -8240252.78249  21210913.830    21210920.0254
  25135620.297    -6272039.440 9  -3695133.21049  25135619.153    25135632.8164
  21523995.194     3420560.995 9   2662675.04449  21523995.188    21524002.7294
  22847861.073   -11408671.525 9  -8889486.53649  22847861.415    22847868.9984
  24579139.238    15518626.946 9  12084137.81049  24579140.525    24579152.2594
  21805030.125    -9855564.393 9  -7677154.93949  21805029.422    21805037.3244
  22632212.130    11492145.018 9   8942233.47649  22632212.515    22632219.5414
 99  5 20 19 40 30.0020000  0  7 30 17 05 06 08 10 24
  21206118.915   -10690429.099 9  -8259885.50849  21206119.189    21206125.4054
  25117217.872    -6368742.064 9  -3770485.70149  25117217.622    25117230.5274
  21533197.343     3468918.044 9   2700355.79249  21533197.228    21533205.0574
  22834361.629   -11479611.750 9  -8944764.58949  22834361.431    22834369.0304
  24594520.519    15599455.541 9  12147120.84649  24594521.257    24594534.1734
  21801997.264    -9871502.206 9  -7689574.00449  21801996.032    21802004.6254
  22644111.502    11554676.602 9   8990959.33349  22644111.218    22644119.4564
 99  5 20 19 41  0.0020000  0  7 30 17 05 06 08 10 24
  21201418.390   -10715130.549 9  -8279133.40449  21201418.893    21201425.0964
  25098831.868    -6465360.269 9  -3845772.45949  25098831.441    25098845.3254
  21542474.328     3517668.490 9   2738343.08949  21542473.856    21542481.6704
  22820865.003   -11550536.467 9  -9000030.54849  22820864.714    22820872.2724
  24609897.652    15680261.834 9  12210086.51549  24609897.792    24609910.7034
  21799069.316    -9886888.382 9  -7701563.22449  21799068.379    21799076.5894
  22656016.085    11617235.576 9   9039706.53749  22656016.006    22656024.1944
 99  5 20 19 41 30.0020000  0  7 30 17 05 06 08 10 24
  21196809.547   -10739350.683 9  -8298006.24949  21196809.914    21196816.1644
  25080462.074    -6561894.642 9  -3920993.87149  25080461.778    25080474.8884
  21551824.616     3566804.686 9   2776630.96449  21551824.203    21551832.0124
  22807368.686   -11621459.817 9  -9055295.45549  22807368.807    22807375.9404
  24625266.621    15761025.522 9  12273018.96949  24625266.862    24625280.6244
  21796245.736    -9901725.900 9  -7713124.91349  21796244.814    21796253.1294
  22667927.796    11679832.144 9   9088483.03049  22667927.810    22667935.8304
 99  5 20 19 42  0.0020000  0  7 30 17 05 06 08 10 24
  21192295.615   -10763071.877 9  -8316490.30949  21192296.029    21192302.2174
  25062109.813    -6658335.107 9  -3996142.10649  25062109.293    25062122.3734
  21561250.880     3616339.936 9   2815229.79049  21561250.817    21561258.1614
  22793872.409   -11692383.190 9  -9110560.37849  22793872.241    22793879.8774
  24640628.708    15841752.627 9  12335922.91949  24640628.888    24640644.2324
  21793526.878    -9916013.397 9  -7724258.02049  21793526.116    21793534.1974
  22679844.711    11742455.795 9   9137280.62949  22679844.740    22679852.3924
 99  5 20 19 42 30.0020000  0  7 30 17 05 06 08 10 24
  21187875.423   -10786300.361 9  -8334590.43749  21187875.739    21187882.0794
  25043774.660    -6754687.480 9  -4071221.73349  25043774.376    25043787.3184
  21570750.311     3666259.450 9   2854128.03849  21570749.891    21570757.9844
  22780373.423   -11763321.301 9  -9165836.78749  22780373.096    22780380.4254
  24655977.682    15922411.430 9  12398773.63649  24655977.902    24655991.4504
  21790908.991    -9929770.769 9  -7734978.04449  21790908.268    21790916.0404
  22691764.697    11805095.854 9   9186091.00849  22691764.848    22691772.6904
 99  5 20 19 43  0.0020000  0  7 30 17 05 06 08 10 24
  21183552.978   -10809014.845 9  -8352290.05049  21183553.091    21183559.6294
  25025464.794    -6850907.665 9  -4146198.36249  25025464.132    25025476.9164
  21580329.163     3716596.721 9   2893351.80649  21580328.919    21580336.8024
  22766879.044   -11834234.621 9  -9221093.88349  22766879.347    22766886.3074
  24671319.976    16003033.907 9  12461596.01949  24671320.830    24671333.4914
  21788398.417    -9942964.495 9  -7745258.86249  21788397.776    21788405.6614
  22703699.757    11867814.918 9   9234962.95349  22703700.006    22703707.7464
 99  5 20 19 43 30.0020000  0  7 30 17 05 06 08 10 24
  21179324.277   -10831237.232 9  -8369606.20849  21179324.489    21179330.7334
  25007174.825    -6947021.087 9  -4221091.77249  25007174.813    25007187.7274
  21589982.498     3767325.144 9   2932880.37349  21589982.146    21589990.3014
  22753386.349   -11905139.314 9  -9276344.24749  22753386.199    22753393.8284
  24686651.535    16083600.077 9  12524374.55249  24686651.647    24686665.3324
  21785989.543    -9955623.366 9  -7755122.91849  21785988.914    21785996.8134
  22715644.935    11930586.462 9   9283875.79949  22715645.296    22715653.1504
 99  5 20 19 44  0.0020000  0  7 30 17 05 06 08 10 24
  21175186.206   -10852982.731 9  -8386550.77149  21175186.603    21175192.8654
  24988897.731    -7043067.536 9  -4295933.00349  24988897.336    24988910.2434
  21599701.792     3818399.809 9   2972678.73849  21599701.598    21599709.4884
  22739889.769   -11976063.967 9  -9331610.16349  22739889.452    22739896.8424
  24701966.488    16164080.001 9  12587085.86049  24701968.073    24701981.2504
  21783676.969    -9967775.908 9  -7764592.41949  21783676.105    21783684.3334
  22727590.200    11993359.017 9   9332789.42049  22727590.676    22727598.4864
 99  5 20 19 44 30.0020000  0  7 30 17 05 06 08 10 24
  21171151.932   -10874183.032 9  -8403070.49949  21171152.236    21171158.6064
  24970647.393    -7138975.393 9  -4370666.27749  24970647.201    24970659.3604
  21609500.775     3869893.291 9   3012803.45649  21609500.524    21609508.2854
  22726405.255   -12046925.017 9  -9386826.53349  22726404.757    22726412.7734
  24717276.594    16244532.620 9  12649775.92249  24717277.815    24717291.2604
  21781475.152    -9979346.481 9  -7773608.45149  21781474.309    21781482.3764
  22739551.936    12056217.689 9   9381770.15849  22739551.556    22739559.9074
 99  5 20 19 45  0.0020000  0  7 30 17 05 06 08 10 24
  21167217.019   -10894861.450 9  -8419183.56649  21167217.160    21167223.4834
  24952417.649    -7234772.332 9  -4445313.09849  24952415.952    24952429.0124
  21619377.097     3921793.180 9   3053244.85749  21619377.097    21619384.6974
  22712929.482   -12117740.006 9  -9442007.00949  22712929.116    22712937.5544
  24732579.752    16324950.775 9  12712439.12249  24732580.241    24732594.3294
  21779380.865    -9990351.887 9  -7782184.09249  21779379.989    21779388.4924
  22751526.463    12119144.344 9   9430803.86449  22751526.016    22751534.3714
 99  5 20 19 45 30.0020000  0  7 30 17 05 06 08 10 24
  21163381.260   -10915018.596 9  -8434890.45749  21163381.556    21163388.0144
  24934207.203    -7330466.464 9  -4519879.79549  24934205.898    24934220.1464
  21629328.605     3974088.106 9   3093994.08149  21629328.527    21629335.9494
  22699458.981   -12188527.648 9  -9497166.17349  22699458.692    22699466.9754
  24747875.500    16405330.479 9  12775072.31849  24747875.712    24747891.2384
  21777390.603   -10000810.513 9  -7790333.66849  21777389.697    21777397.7474
  22763510.568    12182121.633 9   9479877.02049  22763510.400    22763518.3974
 99  5 20 19 46  0.0020000  0  7 30 17 05 06 08 10 24
  21159644.711   -10934654.210 9  -8450190.95049  21159644.883    21159651.2394
  24916018.008    -7426052.067 9  -4594361.96949  24916017.070    24916031.1664
  21639356.404     4026784.334 9   3135056.01849  21639356.105    21639363.7254
  22685991.757   -12259298.400 9  -9552312.17849  22685991.595    22685999.4064
  24763163.177    16485667.784 9  12837672.47849  24763163.898    24763178.6144
  21775503.347   -10010727.601 9  -7798061.25849  21775502.323    21775510.4344
  22775506.133    12245158.904 9   9528996.91749  22775505.725    22775513.8104
 99  5 20 19 46 30.0020000  0  7 30 17 05 06 08 10 24
  21156005.489   -10953778.405 9  -8465092.93649  21156005.852    21156012.0524
  24897851.773    -7521516.072 9  -4668749.35949  24897850.637    24897863.8434
  21649464.273     4079901.633 9   3176446.05249  21649463.698    21649471.9004
  22672528.463   -12330048.521 9  -9607442.10549  22672528.065    22672535.6494
  24778443.665    16565964.774 9  12900241.24049  24778444.230    24778459.4154
  21773718.924   -10020104.694 9  -7805368.07749  21773718.348    21773726.1794
  22787518.896    12308286.190 9   9578186.96749  22787518.649    22787526.7094
 99  5 20 19 47  0.0020000  0  7 30 17 05 06 08 10 24
  21152464.742   -10972384.656 9  -8479591.32949  21152464.973    21152471.3564
  24879710.347    -7616849.575 9  -4743035.07249  24879708.906    24879721.4414
  21659650.504     4133430.471 9   3218156.76849  21659650.046    21659658.2444
  22659066.190   -12400792.755 9  -9662567.44949  22659066.095    22659073.6774
  24793718.494    16646232.080 9  12962786.84549  24793718.296    24793733.7214
  21772037.650   -10028940.413 9  -7812253.04249  21772037.292    21772044.5424
  22799546.717    12371492.300 9   9627438.43249  22799546.442    22799554.9354
 99  5 20 19 47 30.0020000  0  7 30 17 05 06 08 10 24
  21149027.026   -10990449.701 9  -8493668.00949  21149027.073    21149033.5544
  24861595.925    -7712041.080 9  -4817210.10949  24861594.516    24861607.0734
  21669916.029     4187375.919 9   3260192.11049  21669915.630    21669923.7524
  22645606.034   -12471525.759 9  -9717684.04649  22645605.743    22645613.2384
  24808987.734    16726470.443 9  13025309.93649  24808988.435    24809002.5224
  21770463.475   -10037212.860 9  -7818699.09649  21770462.782    21770470.4994
  22811589.344    12434776.922 9   9676751.07149  22811589.435    22811597.9124
 99  5 20 19 48  0.0020000  0  7 30 17 05 06 08 10 24
  21145696.466   -11007951.988 9  -8507306.17849  21145696.799    21145703.1414
  24843508.540    -7807090.013 9  -4891274.06949  24843507.228    24843519.8744
  21680263.441     4241751.462 9   3302562.60049  21680262.996    21680270.9984
  22632152.536   -12542224.528 9  -9772773.95249  22632152.767    22632160.1864
  24824250.028    16806673.212 9  13087805.27349  24824250.089    24824263.8044
  21769001.114   -10044897.720 9  -7824687.28949  21769000.335    21769008.2154
  22823648.230    12498146.683 9   9726130.05949  22823648.527    22823657.0184
 99  5 20 19 48 30.0020000  0  7 30 17 05 06 08 10 24
  21142467.947   -11024918.186 9  -8520526.61149  21142468.454    21142475.0684
  24825443.571    -7902021.901 9  -4965246.83249  24825443.503    24825455.5714
  21690683.091     4296506.660 9   3345228.92049  21690682.853    21690690.8584
  22618703.381   -12612900.250 9  -9827845.90549  22618703.507    22618710.9784
  24839497.648    16886798.285 9  13150240.05249  24839497.983    24839512.5574
  21767645.351   -10052022.139 9  -7830238.77949  21767644.463    21767652.5514
  22835713.946    12561552.579 9   9775537.20249  22835713.944    22835722.9384
 99  5 20 19 49  0.0020000  0  7 30 17 05 06 08 10 24
  21139348.087   -11041313.557 9  -8533302.24749  21139348.304    21139354.7654
  24807403.987    -7996820.009 9  -5039115.34049  24807402.563    24807415.5744
  21701174.783     4351640.303 9   3388190.13349  21701174.749    21701182.5334
  22605264.248   -12683523.641 9  -9882877.07649  22605263.812    22605271.3514
  24854732.988    16966858.869 9  13212624.61049  24854732.417    24854748.2864
  21766400.309   -10058564.861 9  -7835336.99349  21766399.665    21766407.6234
  22847785.819    12624990.250 9   9824969.09649  22847785.957    22847794.1984
 99  5 20 19 49 30.0020000  0  7 30 17 05 06 08 10 24
  21136330.261   -11057172.612 9  -8545659.97449  21136330.563    21136336.9404
  24789383.445    -8091517.717 9  -5112905.61649  24789382.248    24789394.8894
  21711733.869     4407128.370 9   3431427.50749  21711733.470    21711741.3944
  22591833.174   -12754104.372 9  -9937875.01049  22591833.079    22591840.8834
  24869947.656    17046811.455 9  13274924.98749  24869947.843    24869962.1514
  21765261.218   -10064550.711 9  -7840001.28049  21765260.634    21765268.2744
  22859859.824    12688439.768 9   9874410.22349  22859859.948    22859868.7234
 99  5 20 19 50  0.0020000  0  7 30 17 05 06 08 10 24
  21133412.267   -11072507.190 9  -8557609.01749  21133412.623    21133419.0294
  24771385.816    -8186095.089 9  -5186602.13249  24771385.257    24771397.5974
  21722360.680     4462972.302 9   3474942.17449  21722360.633    21722368.2894
  22578413.827   -12824623.577 9  -9992825.00049  22578413.889    22578421.5474
  24885142.764    17126661.761 9  13337145.67349  24885144.443    24885156.9224
  21764228.980   -10069975.631 9  -7844228.47649  21764228.358    21764235.9804
  22871940.029    12751921.371 9   9923876.34149  22871940.115    22871948.3804
 99  5 20 19 50 30.0020000  0  7 30 17 05 06 08 10 24
  21130584.273   -11087368.677 9  -8569189.41749  21130584.561    21130590.9374
  24753407.736    -8280570.338 9  -5260219.05149  24753406.763    24753418.9924
  21733049.463     4519141.884 9   3518710.60149  21733049.583    21733057.0824
  22565001.357   -12895106.306 9 -10047746.56649  22565001.265    22565008.7344
  24900316.085    17206396.468 9  13399276.25449  24900315.800    24900330.8214
  21763295.815   -10074879.554 9  -7848049.70449  21763295.284    21763302.6884
  22884021.630    12815410.313 9   9973348.18049  22884022.051    22884029.6814
 99  5 20 19 51  0.0020000  0  7 30 17 05 06 08 10 24
  21127848.449   -11101745.720 9  -8580392.32649  21127848.685    21127855.0214
  24735447.932    -8374949.430 9  -5333761.04849  24735446.047    24735458.7504
  21743805.606     4575665.854 9   3562755.18149  21743805.087    21743813.2924
  22551593.564   -12965564.474 9 -10102648.99949  22551593.317    22551601.4114
  24915469.929    17286031.090 9  13461328.81749  24915469.889    24915483.5534
  21762463.705   -10079252.193 9  -7851456.94049  21762463.330    21762470.6674
  22896107.456    12878920.817 9  10022836.82549  22896107.615    22896115.6044
 99  5 20 19 51 30.0020000  0  7 30 17 05 06 08 10 24
  21125209.417   -11115613.992 9  -8591198.79349  21125209.522    21125215.6914
  24717513.176    -8469194.682 9  -5407198.76049  24717510.663    24717524.3964
  21754637.147     4632585.832 9   3607108.32849  21754636.888    21754645.1784
  22538194.143   -13035978.648 9 -10157517.15949  22538194.153    22538201.7644
  24930609.924    17365591.120 9  13523323.30449  24930610.098    24930625.4544
  21761740.075   -10083054.857 9  -7854420.04449  21761738.912    21761746.7134
  22908204.330    12942489.626 9  10072370.89449  22908204.510    22908212.0644
 99  5 20 19 52  0.0020000  0  7 30 17 05 06 08 10 24
  21122671.237   -11128952.194 9  -8601592.21749  21122671.599    21122677.9664
  24699606.931    -8563291.195 9  -5480520.58149  24699605.589    24699618.5124
  21765546.293     4689913.424 9   3651779.10749  21765546.096    21765554.0874
  22524804.175   -13106343.455 9 -10212346.84349  22524804.043    22524811.5634
  24945738.007    17445088.613 9  13585269.03349  24945739.244    24945754.5724
  21761124.679   -10086288.361 9  -7856939.64849  21761124.007    21761131.5764
  22920312.653    13006119.031 9  10121952.19249  22920312.768    22920321.1974
 99  5 20 19 52 30.0020000  0  7 30 17 05 06 08 10 24
  21120227.929   -11141791.920 9  -8611597.22749  21120228.290    21120234.3064
  24681715.714    -8657309.088 9  -5553781.13949  24681714.515    24681727.1344
  21776523.341     4747597.981 9   3696728.03949  21776523.357    21776531.3524
  22511410.269   -13176728.444 9 -10267192.26049  22511410.395    22511417.5354
  24960843.079    17524463.714 9  13647119.39349  24960845.126    24960859.6434
  21760605.724   -10089015.421 9  -7859064.62449  21760605.067    21760612.6324
  22932418.267    13069734.350 9  10171522.50349  22932418.117    22932426.5134
 99  5 20 19 53  0.0020000  0  7 30 17 05 06 08 10 24
  21117897.548   -11154038.189 9  -8621139.78849  21117897.884    21117904.2194
  24663854.338    -8751169.651 9  -5626919.08149  24663853.060    24663866.7424
  21787582.418     4805713.862 9   3742013.06849  21787581.891    21787590.3174
  22498023.980   -13247073.518 9 -10322006.55849  22498023.642    22498031.2054
  24975935.862    17603773.802 9  13708919.07749  24975935.360    24975951.5344
  21760200.742   -10091143.754 9  -7860723.05449  21760200.167    21760207.7124
  22944535.011    13133408.200 9  10221138.42149  22944535.099    22944543.8994
 99  5 20 19 53 30.0020000  0  7 30 17 05 06 08 10 24
  21115675.326   -11165716.094 9  -8630239.47349  21115675.642    21115682.2324
  24646024.330    -8844865.684 9  -5699928.84149  24646024.882    24646036.4484
  21798719.139     4864237.827 9   3787616.08449  21798718.851    21798727.0094
  22484647.082   -13317369.136 9 -10376782.33049  22484646.993    22484654.6404
  24991012.275    17683000.856 9  13770654.04649  24991012.732    24991028.2114
  21759907.348   -10092685.895 9  -7861924.72049  21759907.030    21759914.4364
  22956662.484    13197138.177 9  10270798.06249  22956662.483    22956671.2844
 99  5 20 19 54  0.0020000  0  7 30 17 05 06 08 10 24
  21113557.734   -11176843.705 9  -8638910.35549  21113558.118    21113564.5674
  24628222.318    -8938416.399 9  -5772825.35149  24628222.366    24628234.6954
  21809929.099     4923146.088 9   3833518.53949  21809929.290    21809936.9744
  22471277.260   -13387627.769 9 -10431529.29149  22471277.328    22471285.0014
  25006070.369    17762132.035 9  13832314.33649  25006070.378    25006087.4794
  21759720.496   -10093668.096 9  -7862690.06549  21759719.690    21759727.5514
  22968796.292    13260901.270 9  10320483.53149  22968796.733    22968804.9924
 99  5 20 19 54 30.0020000  0  7 30 17 05 06 08 10 24
  21111547.886   -11187405.241 9  -8647140.14749  21111548.519    21111554.8974
  24610449.974    -9031812.996 9  -5845601.78549  24610449.590    24610461.7854
  21821214.945     4982453.169 9   3879731.76549  21821215.157    21821223.0414
  22457916.519   -13457839.088 9 -10486239.38049  22457916.628    22457924.0584
  25021114.596    17841188.841 9  13893916.64149  25021115.882    25021132.0244
  21759645.618   -10094061.598 9  -7862996.68349  21759644.921    21759652.4164
  22980939.923    13324716.554 9  10370209.64349  22980940.816    22980948.2394
 99  5 20 19 55  0.0020000  0  7 30 17 05 06 08 10 24
  21109644.167   -11197409.425 9  -8654935.63849  21109644.837    21109651.4644
  24592709.104    -9125043.375 9  -5918248.68649  24592708.232    24592721.2974
  21832576.973     5042160.453 9   3926256.83849  21832576.842    21832584.8244
  22444567.285   -13527990.083 9 -10540902.45449  22444567.050    22444574.6654
  25036146.249    17920177.745 9  13955466.04049  25036148.045    25036163.0864
  21759683.156   -10093864.469 9  -7862843.07449  21759682.185    21759690.2284
  22993097.446    13388604.192 9  10419992.15449  22993097.490    22993105.7084
 99  5 20 19 55 30.0020000  0  7 30 17 05 06 08 10 24
  21107847.253   -11206852.781 9  -8662294.12049  21107847.611    21107854.0764
  24574996.624    -9218122.356 9  -5990777.63449  24574995.385    24575008.2414
  21844011.741     5102250.271 9   3973079.98849  21844011.346    21844019.6724
  22431228.436   -13598086.383 9 -10595522.91749  22431228.564    22431235.1314
  25051163.920    17999094.374 9  14016959.15749  25051164.020    25051180.3624
  21759826.883   -10093109.246 9  -7862254.58049  21759826.086    21759833.9384
  23005265.078    13452546.080 9  10469816.93349  23005265.136    23005273.3644
 99  5 20 19 56  0.0020000  0  7 30 17 05 06 08 10 24
  21106159.262   -11215723.509 9  -8669206.39649  21106159.630    21106166.2314
  24557306.535    -9311084.577 9  -6063215.58449  24557306.311    24557317.6794
  21855515.476     5162702.282 9   4020185.35949  21855515.312    21855523.5854
  22417896.059   -13668148.782 9 -10650116.96249  22417895.804    22417902.7384
  25066165.503    18077927.163 9  14078386.87549  25066166.864    25066181.8504
  21760072.845   -10091816.565 9  -7861247.29749  21760071.856    21760079.7684
  23017438.611    13516518.384 9  10519665.40649  23017438.119    23017447.0714
 99  5 20 19 56 30.0020000  0  7 30 17 05 06 08 10 24
  21104579.603   -11224024.442 9  -8675674.67349  21104580.263    21104586.5804
  24539636.875    -9403939.306 9  -6135569.76949  24539636.963    24539647.6734
  21867085.900     5223504.922 9   4067563.95549  21867085.891    21867094.1814
  22404571.764   -13738168.494 9 -10704677.74049  22404571.918    22404578.5914
  25081147.766    18156658.385 9  14139735.47149  25081147.133    25081166.1524
  21760418.801   -10089998.107 9  -7859830.32049  21760417.996    21760425.7074
  23029616.898    13580515.780 9  10569533.45149  23029617.338    23029625.2374
 99  5 20 19 57  0.0020000  0  7 30 17 05 06 08 10 24
  21103108.536   -11231755.065 9  -8681698.56149  21103109.032    21103115.3984
  24521990.137    -9496673.171 9  -6207829.79749  24521988.541    24522001.2544
  21878721.616     5284650.542 9   4115209.80849  21878721.077    21878729.9114
  22391259.797   -13808123.110 9 -10759187.79649  22391259.634    22391266.8464
  25096106.732    18235266.642 9  14200988.24149  25096107.916    25096123.6744
  21760863.741   -10087659.842 9  -7858008.29849  21760863.008    21760870.4884
  23041799.528    13644535.748 9  10619419.06649  23041800.034    23041808.0064
 99  5 20 19 57 30.0020000  0  7 30 17 05 06 08 10 24
  21101746.285   -11238914.038 9  -8687277.00849  21101746.565    21101752.8874
  24504366.393    -9589285.016 9  -6279994.71149  24504365.091    24504376.7914
  21890423.049     5346141.612 9   4163124.83949  21890422.726    21890430.9184
  22377962.198   -13878001.933 9 -10813638.80049  22377961.889    22377969.4664
  25111041.192    18313745.239 9  14262140.00549  25111041.178    25111056.6624
  21761410.535   -10084786.450 9  -7855769.29249  21761409.829    21761417.4984
  23053984.472    13708566.821 9  10669313.34949  23053984.349    23053992.8874
 99  5 20 19 58  0.0020000  0  7 30 17 05 06 08 10 24
  21100490.524   -11245513.419 9  -8692419.40549  21100491.154    21100497.3574
  24486769.638    -9681754.400 9  -6352048.66849  24486767.514    24486781.8754
  21902195.343     5408005.303 9   4211330.22349  21902195.036    21902203.0274
  22364685.790   -13947769.575 9 -10868003.17049  22364685.700    22364692.9524
  25125954.276    18392113.144 9  14323205.50649  25125954.714    25125971.7764
  21762066.481   -10081339.670 9  -7853083.49949  21762065.925    21762073.0644
  23066175.997    13772632.913 9  10719234.91349  23066176.248    23066184.9494
 99  5 20 19 58 30.0020000  0  7 30 17 05 06 08 10 24
  21099328.578   -11251619.575 9  -8697177.47149  21099329.128    21099335.3944
  24469197.364    -9774095.354 9  -6424002.54749  24469197.127    24469208.6154
  21914033.774     5470216.058 9   4259806.06249  21914033.660    21914041.7714
  22351420.993   -14017476.418 9 -10922320.15949  22351420.933    22351428.4064
  25140838.359    18470328.787 9  14384152.34949  25140838.959    25140857.6604
  21762827.165   -10077342.542 9  -7849968.85149  21762826.769    21762834.1444
  23078365.353    13836687.529 9  10769147.54449  23078365.300    23078374.2354
 99  5 20 19 59  0.0020000  0  7 30 17 05 06 08 10 24
  21098263.047   -11257219.356 9  -8701540.96149  21098263.486    21098269.5524
  24451655.560    -9866277.372 9  -6495832.57149  24451653.572    24451667.1084
  21925944.306     5532806.126 9   4308577.45349  21925944.445    21925952.3214
  22338167.948   -14087121.280 9 -10976588.85149  22338167.738    22338174.9144
  25155698.997    18548423.347 9  14445004.81249  25155698.173    25155718.6484
  21763700.433   -10072753.579 9  -7846393.03749  21763699.704    21763707.2954
  23090555.601    13900747.491 9  10819064.33849  23090555.131    23090564.4864
 99  5 20 19 59 30.0020000  0  7 30 17 05 06 08 10 24
  21097295.686   -11262302.825 9  -8705502.13549  21097296.026    21097302.3754
  24434146.492    -9958287.507 9  -6567528.64349  24434145.903    24434158.9684
  21937931.106     5595796.458 9   4357660.72949  21937930.896    21937939.5174
  22324927.484   -14156700.022 9 -11030806.02349  22324927.224    22324934.6694
  25170543.451    18626429.716 9  14505788.55749  25170545.094    25170563.2504
  21764689.967   -10067553.464 9  -7842341.00049  21764689.049    21764696.8534
  23102750.820    13964833.867 9  10869001.70549  23102750.659    23102759.4424
 99  5 20 20  0  0.0020000  0  7 30 17 05 06 08 10 24
  21096421.184   -11266898.272 9  -8709083.02749  21096421.411    21096427.9904
  24416664.424   -10050155.807 9  -6639114.21749  24416663.805    24416675.2404
  21949986.267     5659146.242 9   4407024.10749  21949985.941    21949994.1794
  22311692.662   -14226249.608 9 -11085000.48249  22311692.886    22311699.8544
  25185365.547    18704318.071 9  14566480.32049  25185367.343    25185384.5764
  21765787.228   -10061787.112 9  -7837847.74349  21765786.260    21765794.1334
  23114945.891    14028919.835 9  10918938.75049  23114945.556    23114954.7024
 99  5 20 20  0 30.0020000  0  6 30 17 05 06 10 24
  21095647.572   -11270964.001 9  -8712251.16049  21095647.977    21095654.2484
  24399213.330   -10141861.780 9  -6710573.27949  24399213.276    24399225.0194
  21962112.510     5722869.914 9   4456678.82249  21962112.456    21962120.6154
  22298465.772   -14295757.552 9 -11139162.47749  22298465.773    22298473.0794
  21766994.473   -10055442.653 9  -7832904.00949  21766993.644    21767001.5134
  23127145.270    14093027.860 9  10968893.00049  23127144.861    23127154.1764
 99  5 20 20  1  0.0020000  0  6 30 17 05 06 10 24
  21094975.828   -11274494.397 9  -8715002.15049  21094976.292    21094982.5294
  24381784.553   -10233450.214 9  -6781940.73549  24381783.403    24381796.1994
  21974301.908     5786925.136 9   4506591.89149  21974301.927    21974310.1814
  22285245.351   -14365231.671 9 -11193298.12149  22285245.586    22285252.5444
  21768302.769   -10048567.420 9  -7827546.69049  21768302.028    21768309.9354
  23139345.648    14157141.454 9  11018851.55849  23139345.634    23139355.2314
 99  5 20 20  1 30.0020000  0  6 30 17 05 06 10 24
  21094409.922   -11277468.249 9  -8717319.47049  21094410.224    21094416.4594
  24364379.475   -10324915.351 9  -6853212.13249  24364378.502    24364390.0764
  21986554.241     5851310.958 9   4556762.56049  21986554.625    21986562.4084
  22272036.131   -14434646.601 9 -11247387.64249  22272035.920    22272043.4264
  21769709.943   -10041172.920 9  -7821784.74349  21769709.344    21769716.9914
  23151549.809    14221274.242 9  11068825.10449  23151549.376    23151558.3194
 99  5 20 20  2  0.0020000  0  6 30 17 05 06 10 24
  21093951.093   -11279879.686 9  -8719198.54549  21093951.451    21093957.8604
  24346996.501   -10416263.862 9  -6924392.66449  24346995.935    24347007.4794
  21998867.983     5916019.088 9   4607184.37649  21998867.821    21998876.0814
  22258836.219   -14504012.305 9 -11301438.79949  22258835.819    22258843.0314
  21771215.660   -10033260.829 9  -7815619.48249  21771214.902    21771222.7184
  23163754.199    14285408.769 9  11118799.98949  23163754.496    23163763.4994
 99  5 20 20  2 30.0020000  0  6 30 17 05 06 10 24
  21093600.763   -11281720.801 9  -8720633.21649  21093601.114    21093607.4814
  24329637.868   -10507484.423 9  -6995473.49549  24329637.173    24329649.3834
  22011244.104     5981055.801 9   4657862.23549  22011243.853    22011252.6314
  22245648.008   -14573316.357 9 -11355441.91849  22245647.709    22245655.1114
  21772822.019   -10024819.658 9  -7809041.95249  21772821.489    21772828.8004
  23175959.181    14349545.606 9  11168776.67549  23175959.377    23175968.2464
 99  5 20 20  3  0.0020000  0  6 30 17 05 06 10 24
  21093358.806   -11282992.455 9  -8721624.15149  21093359.241    21093365.5944
  24312306.380   -10598561.480 9  -7066442.49049  24312304.972    24312317.4844
  22023682.589     6046420.376 9   4708795.56549  22023682.392    22023690.8774
  22232474.153   -14642545.103 9 -11409386.36449  22232474.198    22232481.2134
  21774530.949   -10015839.180 9  -7802044.18649  21774530.156    21774537.7244
  23188165.552    14413690.568 9  11218759.67149  23188165.397    23188174.2904
 99  5 20 20  3 30.0020000  0  6 30 17 05 06 10 24
  21093223.446   -11283703.865 9  -8722178.53149  21093223.585    21093230.4934
  24295007.410   -10689466.235 9  -7137277.24849  24295006.137    24295018.5924
  22036187.330     6112132.879 9   4760000.00749  22036187.155    22036195.6434
  22219316.378   -14711690.017 9 -11463265.48149  22219316.337    22219323.6754
  21776349.162   -10006284.417 9  -7794598.92449  21776348.278    21776356.2484
  23200377.382    14477863.387 9  11268764.40949  23200377.983    23200386.8464
 99  5 20 20  4  0.0020000  0  6 30 17 05 06 10 24
  21093190.114   -11283878.894 9  -8722314.95749  21093190.368    21093197.1184
  24277739.204   -10780209.546 9  -7207986.20049  24277738.032    24277749.7854
  22048755.814     6178180.014 9   4811465.19649  22048755.594    22048764.1534
  22206173.061   -14780758.688 9 -11517085.19249  22206172.507    22206180.2474
  21778277.038    -9996153.013 9  -7786704.34049  21778276.273    21778284.1684
  23212592.005    14542051.815 9  11318781.28449  23212591.707    23212601.1234
 99  5 20 20  4 30.0020000  0  6 30 17 05 06 10 24
  21093255.819   -11283533.683 9  -8722045.99749  21093255.963    21093262.8824
  24260501.075   -10870793.867 9  -7278571.26549  24260500.295    24260512.2704
  22061386.929     6244556.557 9   4863187.06249  22061386.810    22061395.2764
  22193046.415   -14849739.419 9 -11570836.38649  22193046.424    22193053.7634
  21780314.963    -9985443.608 9  -7778359.36149  21780314.322    21780322.0314
  23224810.599    14606260.484 9  11368813.95249  23224811.278    23224819.5624
 99  5 20 20  5  0.0020000  0  6 30 17 05 06 10 24
  21093413.809   -11282703.316 9  -8721399.00049  21093414.343    21093420.6464
  24243286.487   -10961256.408 9  -7349061.42549  24243286.452    24243297.5474
  22074076.670     6311241.004 9   4915148.85349  22074076.485    22074084.6684
  22179929.295   -14918670.258 9 -11624548.69749  22179929.185    22179936.2774
  21782459.554    -9974173.968 9  -7769577.83749  21782459.097    21782466.6564
  23237027.849    14670462.666 9  11418841.55249  23237028.030    23237036.9834
 99  5 20 20  5 30.0020000  0  6 30 17 05 06 10 24
  21093668.602   -11281364.223 9  -8720355.58449  21093669.047    21093675.5784
  24226097.565   -11051583.813 9  -7419446.30049  24226096.442    24226109.1314
  22086831.744     6378268.835 9   4967378.21749  22086831.605    22086839.8614
  22166826.730   -14987524.626 9 -11678201.42149  22166826.485    22166833.7444
  21784713.192    -9962331.292 9  -7760349.79549  21784712.877    21784720.7004
  23249245.786    14734667.639 9  11468871.33449  23249245.592    23249255.7684
 99  5 20 20  6  0.0020000  0  6 30 17 05 06 10 24
  21094032.152   -11279453.686 9  -8718866.89149  21094032.545    21094039.1994
  24208941.358   -11141739.744 9  -7489697.54649  24208941.419    24208953.3584
  22099661.666     6445690.071 9   5019914.13449  22099661.553    22099669.6704
  22153749.446   -15056246.029 9 -11731750.53149  22153749.538    22153756.4804
  21787082.235    -9949881.963 9  -7750649.03849  21787081.627    21787089.3034
  23261470.943    14798910.932 9  11518930.97649  23261470.259    23261479.9254
 99  5 20 20  6 30.0020000  0  6 30 17 05 06 10 24
  21094502.374   -11276982.352 9  -8716941.21249  21094502.740    21094509.3964
  24191812.247   -11231754.250 9  -7559838.59849  24191811.727    24191823.5444
  22112559.537     6513468.342 9   5072728.25749  22112559.344    22112567.7104
  22140690.986   -15124868.438 9 -11785222.50849  22140690.879    22140698.2174
  21789558.465    -9936869.341 9  -7740509.35349  21789557.913    21789565.4574
  23273698.110    14863164.390 9  11568998.51449  23273697.684    23273707.4974
 99  5 20 20  7  0.0020000  0  6 30 17 05 06 10 24
  21095090.238   -11273893.239 9  -8714534.14649  21095090.453    21095097.0504
  24174720.202   -11321574.001 9  -7629827.90749  24174719.300    24174732.3494
  22125532.031     6581639.346 9   5125848.41649  22125531.393    22125540.5304
  22127659.622   -15193348.516 9 -11838583.57949  22127659.560    22127666.5524
  21792144.753    -9923278.354 9  -7729918.98749  21792143.953    21792151.6684
  23285934.493    14927466.647 9  11619104.09649  23285934.883    23285943.2914
 99  5 20 20  7 30.0020000  0  6 30 17 05 06 10 24
  21095795.245   -11270188.271 9  -8711647.18649  21095795.894    21095802.6384
  24157664.299   -11411203.067 9  -7699668.63949  24157663.987    24157676.1024
  22138575.196     6650181.789 9   5179257.99649  22138574.854    22138583.8074
  22114655.845   -15261683.718 9 -11891831.75149  22114655.792    22114663.2344
  21794834.662    -9909142.964 9  -7718904.41249  21794833.840    21794841.6444
  23298178.122    14991806.662 9  11669239.10249  23298178.647    23298186.9474
 99  5 20 20  8  0.0020000  0  6 30 17 05 06 10 24
  21096617.265   -11265868.882 9  -8708281.46349  21096617.745    21096624.4614
  24140646.057   -11500634.182 9  -7769355.11149  24140645.279    24140657.3434
  22151685.167     6719075.058 9   5232940.94749  22151684.778    22151694.1404
  22101677.350   -15329886.100 9 -11944976.43549  22101677.057    22101684.6304
  21797628.684    -9894460.247 9  -7707463.35749  21797627.846    21797635.8604
  23310428.435    15056182.474 9  11719401.99449  23310428.526    23310437.4794
 99  5 20 20  8 30.0020000  0  6 30 17 05 06 10 24
  21097555.822   -11260937.102 9  -8704438.55749  21097556.336    21097563.0914
  24123668.442   -11589851.436 9  -7838874.95749  24123668.062    24123678.6464
  22164860.322     6788311.058 9   5286890.95849  22164859.847    22164869.0934
  22088723.792   -15397957.495 9 -11998019.05649  22088723.685    22088730.9664
  21800527.070    -9879229.513 9  -7695595.26849  21800526.420    21800534.1904
  23322685.845    15120595.048 9  11769593.53449  23322686.020    23322694.6544
 99  5 20 20  9  0.0020000  0  6 30 17 05 06 10 24
  21098598.754   -11255456.977 9  -8700168.36349  21098599.284    21098605.9264
  24106725.192   -11678888.897 9  -7908254.70149  24106724.272    24106735.4254
  22178095.513     6857861.969 9   5341086.36149  22178095.354    22178104.6104
  22075786.844   -15465941.355 9 -12050993.46449  22075786.591    22075794.1224
  21803522.412    -9863489.147 9  -7683330.05549  21803521.286    21803529.2414
  23334940.637    15184994.256 9  11819774.67149  23334940.457    23334949.2214
 99  5 20 20  9 30.0020000  0  6 30 17 05 06 10 24
  21099741.473   -11249452.103 9  -8695489.27949  21099741.763    21099748.5484
  24089812.787   -11767763.750 9  -7977507.74249  24089811.151    24089824.0364
  22191389.052     6927719.147 9   5395520.40049  22191388.991    22191397.8434
  22062863.029   -15533856.364 9 -12103914.22149  22062862.838    22062870.0444
  21806615.366    -9847235.634 9  -7670664.99249  21806615.025    21806622.4104
  23347191.267    15249371.364 9  11869938.57149  23347191.056    23347200.2994
 99  5 20 20 10  0.0020000  0  6 30 17 05 06 10 24
  21100990.124   -11242890.650 9  -8690376.49349  21100990.398    21100997.0364
  24072937.530   -11856442.981 9  -8046608.36149  24072936.943    24072948.0574
  22204745.489     6997906.475 9   5450211.70949  22204745.734    22204754.5504
  22049957.107   -15601677.424 9 -12156761.76849  22049957.072    22049964.1164
  21809813.733    -9830428.703 9  -7657568.68149  21809812.791    21809820.6444
  23359444.638    15313763.288 9  11920114.01049  23359445.642    23359453.1624
 99  5 20 20 10 30.0020000  0  6 30 17 05 06 10 24
  21102335.637   -11235820.103 9  -8684867.01949  21102336.047    21102342.6404
  24056092.640   -11944962.970 9  -8115584.88849  24056091.934    24056104.4594
  22218156.547     7068381.488 9   5505127.18049  22218156.620    22218164.8224
  22037062.955   -15669436.788 9 -12209561.24549  22037062.969    22037070.1424
  21813110.394    -9813104.521 9  -7644069.32749  21813109.519    21813117.2964
  23371696.647    15378147.032 9  11970283.09649  23371696.391    23371706.2964
 99  5 20 20 11  0.0020000  0  6 30 17 05 06 10 24
  21103778.501   -11228238.181 9  -8678959.07049  21103779.008    21103785.4254
  24039279.321   -12033317.545 9  -8184432.51849  24039278.674    24039290.7154
  22231624.691     7139156.185 9   5560276.17749  22231624.976    22231633.0534
  22024181.708   -15737128.196 9 -12262307.76949  22024181.726    22024188.9204
  21816510.345    -9795237.515 9  -7630146.99049  21816509.315    21816517.0964
  23383950.452    15442540.913 9  12020460.06949  23383950.708    23383959.4424
 99  5 20 20 11 30.0020000  0  6 30 17 05 06 10 24
  21105329.008   -11220090.452 9  -8672610.22449  21105329.295    21105335.9484
  24022501.914   -12121483.981 9  -8253133.54949  24022501.029    24022512.5844
  22245151.863     7210241.139 9   5615666.93049  22245151.642    22245160.3704
  22011320.412   -15804714.919 9 -12314972.71649  22011320.360    22011327.3704
  21820021.920    -9776783.554 9  -7615767.28649  21820021.084    21820028.9564
  23396214.181    15506986.614 9  12070677.42649  23396214.378    23396222.3884
 99  5 20 20 12  0.0020000  0  6 30 17 05 06 10 24
  21106984.661   -11211390.132 9  -8665830.78949  21106985.228    21106991.6874
  24005755.537   -12209486.928 9  -8321707.17449  24005754.892    24005765.8264
  22258733.712     7281614.127 9   5671282.12349  22258733.439    22258742.4044
  21998476.602   -15872209.578 9 -12367565.92349  21998476.741    21998483.7014
  21823641.846    -9757760.739 9  -7600944.30949  21823640.988    21823648.9144
  23408482.782    15571458.252 9  12120914.99349  23408482.575    23408491.9774
 99  5 20 20 12 30.0010000  0  6 30 17 05 06 10 24
  21108746.967   -11202129.599 9  -8658614.83149  21108747.528    21108753.9774
  23989040.671   -12297324.701 9  -8390152.08649  23989039.873    23989051.4084
  22272374.863     7353298.662 9   5727140.07349  22272374.506    22272383.9334
  21985655.673   -15939584.246 9 -12420065.63749  21985655.547    21985662.4464
  21827372.453    -9738155.977 9  -7585667.88049  21827371.395    21827379.4074
  23420754.709    15635948.435 9  12171166.99749  23420754.459    23420763.9614
 99  5 20 20 13  0.0010000  0  6 30 17 05 06 10 24
  21110607.238   -11192353.873 9  -8650997.41449  21110607.411    21110614.0434
  23972340.336   -12385084.650 9  -8458536.36149  23972339.185    23972350.5644
  22286066.619     7425249.348 9   5783205.40949  22286066.357    22286075.5024
  21972845.885   -16006900.005 9 -12472519.43849  21972845.596    21972852.7424
  21831200.399    -9718039.820 9  -7569992.95449  21831199.655    21831207.3274
  23433016.400    15700384.380 9  12221376.76149  23433016.900    23433025.8134
 99  5 20 20 13 30.0010000  0  6 30 17 05 06 10 24
  21112584.599   -11181962.761 9  -8642900.48049  21112585.022    21112591.7184
  23955673.288   -12472670.571 9  -8526785.01749  23955672.523    23955684.3724
  22299826.372     7497557.323 9   5839549.16049  22299826.531    22299835.3574
  21960070.142   -16074036.343 9 -12524833.44249  21960070.120    21960077.1904
  21835139.727    -9697338.465 9  -7553862.03949  21835139.138    21835146.8344
  23445283.301    15764847.232 9  12271607.46149  23445283.388    23445292.2194
 99  5 20 20 14  0.0010000  0  6 30 17 05 06 10 24
  21114658.031   -11171067.286 9  -8634410.53849  21114658.446    21114665.1344
  23939020.843   -12560179.788 9  -8594973.90249  23939019.112    23939030.8474
  22313637.257     7570133.358 9   5896101.79549  22313637.011    22313646.3534
  21947309.562   -16141093.451 9 -12577085.69849  21947309.514    21947316.5954
  21839168.275    -9676168.306 9  -7537365.82049  21839167.869    21839175.2274
  23457533.284    15829220.607 9  12321768.46149  23457533.148    23457543.0044
 99  5 20 20 14 30.0010000  0  6 30 17 05 06 10 24
  21116832.557   -11159640.095 9  -8625506.26949  21116832.601    21116839.4394
  23922392.197   -12647563.249 9  -8663064.80949  23922390.164    23922401.8414
  22327503.724     7643001.410 9   5952881.96149  22327503.611    22327512.5014
  21934568.798   -16208046.659 9 -12629257.00349  21934568.754    21934575.8824
  21843292.275    -9654497.255 9  -7520479.29849  21843291.304    21843299.3674
  23469770.975    15893529.675 9  12371879.33549  23469772.385    23469779.4154
 99  5 20 20 15  0.0010000  0  6 30 17 05 06 10 24
  21119117.057   -11147634.567 9  -8616151.35649  21119117.379    21119124.3224
  23905801.370   -12734747.923 9  -8731000.81949  23905800.309    23905810.8224
  22341434.157     7716206.078 9   6009924.42949  22341434.307    22341442.9874
  21921854.909   -16274858.690 9 -12681318.30249  21921855.066    21921861.8774
  21847521.806    -9632270.664 9  -7503159.90149  21847521.076    21847528.7184
  23482008.174    15957835.816 9  12421987.94049  23482008.953    23482017.9314
 99  5 20 20 15 30.0010000  0  6 30 17 05 06 10 24
  21121496.861   -11135128.681 9  -8606406.55049  21121497.462    21121503.9124
  23889238.557   -12821784.642 9  -8798821.54249  23889238.035    23889247.9314
  22355416.102     7789680.910 9   6067177.41149  22355416.387    22355425.1864
  21909154.568   -16341599.581 9 -12733324.16649  21909154.538    21909161.2444
  21851847.745    -9609537.947 9  -7485446.12049  21851847.381    21851854.7364
  23494231.989    16022071.356 9  12472041.52749  23494232.241    23494241.3824
 99  5 20 20 16  0.0010000  0  6 30 17 05 06 10 24
  21123973.681   -11122113.500 9  -8596264.89049  21123974.377    21123980.8844
  23872707.470   -12908654.589 9  -8866512.28849  23872706.819    23872716.8974
  22369451.872     7863438.549 9   6124650.75549  22369452.250    22369461.1454
  21896466.889   -16408273.419 9 -12785277.77949  21896466.662    21896473.8874
  21856275.294    -9586271.636 9  -7467316.54549  21856274.776    21856282.3474
  23506445.219    16086252.243 9  12522052.53249  23506444.887    23506454.6984
 99  5 20 20 16 30.0010000  0  6 30 17 05 06 10 24
  21126549.681   -11108577.021 9  -8585717.02049  21126550.074    21126556.7344
  23856212.690   -12995334.341 9  -8934054.85549  23856212.298    23856222.8624
  22383543.259     7937488.562 9   6182351.92249  22383543.275    22383552.5264
  21883797.178   -16474852.888 9 -12837157.86049  21883797.132    21883803.8894
  21860809.567    -9562444.115 9  -7448749.66449  21860808.957    21860816.5544
  23518655.395    16150417.160 9  12572051.09449  23518655.793    23518664.9814
 99  5 20 20 17  0.0010000  0  6 30 17 05 06 10 24
  21129222.840   -11094529.686 9  -8574771.07949  21129223.113    21129229.8154
  23839748.506   -13081853.584 9  -9001472.37349  23839748.865    23839758.4484
  22397688.878     8011823.827 9   6240275.36649  22397688.713    22397697.9414
  21871146.254   -16541333.894 9 -12888961.21549  21871146.071    21871153.1484
  21865446.654    -9538076.378 9  -7429761.84149  21865445.937    21865453.7894
  23530863.606    16214571.027 9  12622041.05749  23530862.893    23530872.0784
 99  5 20 20 17 30.0010000  0  6 30 17 05 06 10 24
  21131990.070   -11079988.052 9  -8563439.97549  21131990.318    21131997.2004
  23823308.610   -13168245.654 9  -9068790.78149  23823308.727    23823319.2024
  22411879.084     8086393.108 9   6298381.15749  22411878.909    22411888.6984
  21858509.851   -16607738.471 9 -12940705.00649  21858509.789    21858516.7164
  21870178.941    -9513208.016 9  -7410383.91449  21870177.711    21870186.2514
  23543065.331    16278691.432 9  12672004.94149  23543064.356    23543073.3974
 99  5 20 20 18  0.0010000  0  6 30 17 05 06 10 24
  21134874.543   -11064830.143 9  -8551628.65749  21134874.741    21134881.5344
  23806915.709   -13254391.143 9  -9135917.05149  23806915.775    23806926.7084
  22426130.899     8161286.093 9   6356739.17449  22426131.102    22426140.0544
  21845909.640   -16673953.030 9 -12992300.74449  21845910.021    21845916.5634
  21875023.683    -9487748.384 9  -7390545.27049  21875023.077    21875030.7064
  23555284.253    16342901.852 9  12722038.95249  23555284.076    23555292.6204
 99  5 20 20 18 30.0010000  0  6 30 17 05 06 10 24
  21137865.179   -11049114.370 9  -8539382.63749  21137865.500    21137872.3374
  23790557.338   -13340356.583 9  -9202903.01449  23790556.940    23790567.9884
  22440433.150     8236444.063 9   6415303.68549  22440432.942    22440442.4724
  21833335.441   -16740031.317 9 -13043790.29449  21833335.466    21833341.9994
  21879967.121    -9461770.308 9  -7370302.63949  21879966.474    21879974.3344
  23567509.368    16407145.260 9  12772098.68449  23567509.673    23567518.9154
 99  5 20 20 19  0.0010000  0  6 30 17 05 06 10 24
  21140964.906   -11032824.981 9  -8526689.64849  21140965.354    21140972.0404
  23774232.758   -13426143.388 9  -9269749.76049  23774232.341    23774242.7984
  22454789.077     8311884.595 9   6474088.36149  22454788.953    22454798.4654
  21820786.474   -16805975.986 9 -13095175.72349  21820786.364    21820793.1604
  21885010.137    -9435268.904 9  -7349652.22449  21885009.553    21885017.2494
  23579738.971    16471412.144 9  12822176.69649  23579739.286    23579748.8654
 99  5 20 20 19 30.0010000  0  6 30 17 05 06 10 24
  21144169.564   -11015984.491 9  -8513567.23049  21144170.076    21144176.8194
  23757939.339   -13511765.531 9  -9336468.20549  23757938.561    23757948.5154
  22469195.213     8387589.190 9   6533078.80449  22469194.370    22469203.9374
  21808257.676   -16871814.903 9 -13146478.74849  21808257.737    21808264.5884
  21890149.195    -9408263.081 9  -7328608.75149  21890148.655    21890156.1684
  23591967.168    16535670.970 9  12872248.43449  23591967.910    23591975.5214
 99  5 20 20 20  0.0010000  0  6 30 17 05 06 10 24
  21147477.511   -10998601.680 9  -8500022.22449  21147478.016    21147484.6564
  23741677.968   -13597219.170 9  -9403055.36649  23741676.529    23741687.8134
  22483658.514     8463594.132 9   6592303.27849  22483657.977    22483667.7634
  21795752.652   -16937529.150 9 -13197684.62649  21795752.375    21795759.8154
  21895386.611    -9380740.726 9  -7307162.78949  21895385.850    21895393.7384
  23604193.168    16599918.220 9  12922311.15049  23604193.957    23604203.4294
 99  5 20 20 20 30.0010000  0  6 30 17 05 06 10 24
  21150873.227   -10980757.322 9  -8486117.57349  21150873.525    21150880.3594
  23725432.193   -13682591.411 9  -9469579.08449  23725430.746    23725442.1464
  22498168.533     8539844.475 9   6651718.98849  22498168.622    22498177.9814
  21783258.299   -17003187.481 9 -13248846.94249  21783258.374    21783265.2354
  21900710.194    -9352764.994 9  -7285363.54249  21900709.474    21900716.8304
  23616400.158    16664065.793 9  12972296.20149  23616400.486    23616409.1324
 99  5 20 20 21  0.0010000  0  6 30 17 05 06 10 24
  21154373.674   -10962362.555 9  -8471784.03049  21154373.962    21154380.6264
  23709218.035   -13767796.178 9  -9535972.32649  23709217.310    23709227.4134
  22512737.091     8616402.159 9   6711374.16549  22512737.246    22512746.5424
  21770790.587   -17068705.707 9 -13299900.08549  21770790.515    21770797.4644
  21906136.728    -9324248.711 9  -7263143.09249  21906136.437    21906143.7684
  23628603.920    16728196.610 9  13022268.19849  23628603.898    23628612.3324
 99  5 20 20 21 30.0010000  0  6 30 17 05 06 10 24
  21157972.723   -10943449.288 9  -8457046.46449  21157973.210    21157979.7404
  23693033.760   -13852845.069 9  -9602244.08649  23693032.955    23693043.2244
  22527353.684     8693212.202 9   6771225.98849  22527353.298    22527363.3494
  21758346.174   -17134101.808 9 -13350858.06449  21758346.100    21758352.9384
  21911658.416    -9295232.299 9  -7240532.92349  21911658.165    21911665.5264
  23640797.990    16792277.372 9  13072201.18249  23640797.866    23640806.8394
 99  5 20 20 22  0.0010000  0  6 30 17 05 06 10 24
  21161675.161   -10923992.898 9  -8441885.68549  21161675.827    21161682.2594
  23676885.072   -13937706.509 9  -9668369.78749  23676883.585    23676894.7734
  22542021.272     8770290.078 9   6831286.52149  22542021.513    22542030.8684
  21745931.082   -17199343.427 9 -13401695.66749  21745931.005    21745937.7124
  21917279.225    -9265695.089 9  -7217516.93649  21917278.494    21917286.5854
  23652986.718    16856329.856 9  13122112.12149  23652985.959    23652996.4784
 99  5 20 20 22 30.0010000  0  6 30 17 05 06 10 24
  21165486.613   -10903964.825 9  -8426279.44049  21165486.878    21165493.5804
  23660774.914   -14022364.669 9  -9734337.09949  23660774.027    23660785.3594
  22556739.026     8847631.180 9   6891552.16149  22556739.224    22556748.4404
  21733546.001   -17264427.525 9 -13452410.52949  21733545.829    21733552.8444
  21923001.383    -9235625.148 9  -7194085.84949  21923000.932    21923008.8194
  23665173.022    16920369.997 9  13172013.45749  23665173.271    23665183.6504
 99  5 20 20 23  0.0010000  0  6 30 17 05 06 10 24
  21169409.750   -10883348.768 9  -8410215.02149  21169410.022    21169416.7734
  23644711.762   -14106776.192 9  -9800112.23049  23644711.537    23644721.3994
  22571510.618     8925255.318 9   6952038.34549  22571511.078    22571520.2024
  21721196.995   -17329321.804 9 -13502977.48649  21721196.778    21721203.8564
  21928827.984    -9205006.258 9  -7170227.00249  21928827.609    21928834.9884
  23677360.977    16984417.633 9  13221920.62149  23677361.004    23677369.7214
 99  5 20 20 23 30.0010000  0  6 30 17 05 06 10 24
  21173439.086   -10862174.112 9  -8393715.33049  21173439.323    21173446.2144
  23628694.529   -14190947.338 9  -9865700.03849  23628693.566    23628703.7854
  22586337.429     9003169.832 9   7012750.79949  22586337.524    22586347.1724
  21708880.013   -17394048.084 9 -13553413.51849  21708880.015    21708887.0114
  21934755.522    -9173856.896 9  -7145954.79049  21934754.625    21934762.8094
  23689545.621    17048447.837 9  13271814.22749  23689546.128    23689554.8134
 99  5 20 20 24  0.0010000  0  6 30 17 05 06 10 24
  21177575.482   -10840437.000 9  -8376777.36649  21177575.889    21177582.7114
  23612719.612   -14274895.376 9  -9931114.00049  23612718.975    23612728.7584
  22601222.863     9081392.921 9   7073703.68549  22601223.179    22601232.7024
  21696595.245   -17458604.781 9 -13603717.42049  21696595.330    21696601.9844
  21940785.518    -9142168.735 9  -7121262.74849  21940784.711    21940792.6044
  23701728.574    17112469.218 9  13321700.93149  23701728.735    23701737.6504
 99  5 20 20 24 30.0010000  0  6 30 17 05 06 10 24
  21181817.599   -10818144.536 9  -8359406.65549  21181817.923    21181825.0644
  23596784.718   -14358633.421 9  -9996364.33749  23596783.627    23596794.8574
  22616166.049     9159919.736 9   7134893.24649  22616166.454    22616175.8324
  21684339.660   -17523008.288 9 -13653901.95349  21684339.484    21684346.2994
  21946917.060    -9109947.177 9  -7096155.06549  21946916.396    21946924.1394
  23713908.123    17176473.416 9  13371574.25049  23713908.223    23713917.6534
 99  5 20 20 25  0.0010000  0  6 30 17 05 06 10 24
  21186161.255   -10795318.964 9  -8341620.53249  21186161.556    21186168.6084
  23580886.991   -14442176.987 9 -10061463.09249  23580886.052    23580897.0834
  22631163.914     9238733.748 9   7196306.59649  22631163.901    22631174.1074
  21672111.893   -17587265.559 9 -13703972.52749  21672111.849    21672118.7684
  21953145.878    -9077214.640 9  -7070649.21449  21953145.004    21953152.9484
  23726082.448    17240450.250 9  13421426.25349  23726082.345    23726091.9194
 99  5 20 20 25 30.0010000  0  6 30 17 05 06 10 24
  21190607.407   -10771954.840 9  -8323414.76349  21190607.658    21190614.5684
  23565020.126   -14525556.726 9 -10126434.20049  23565018.517    23565029.7944
  22646211.861     9317810.394 9   7257924.59149  22646211.474    22646221.6364
  21659909.482   -17651389.753 9 -13753939.41349  21659909.577    21659916.3564
  21959469.393    -9043984.474 9  -7044755.59749  21959468.826    21959476.3304
  23738253.665    17304410.569 9  13471265.39049  23738253.619    23738263.7654
 99  5 20 20 26  0.0010000  0  6 30 17 05 06 10 24
  21195163.413   -10748012.754 9  -8304758.64049  21195163.813    21195170.7174
  23549187.371   -14608757.212 9 -10191265.65049  23549186.058    23549197.5824
  22661312.599     9397164.531 9   7319758.80449  22661312.290    22661321.9484
  21647740.408   -17715338.749 9 -13803769.77649  21647740.221    21647747.1204
  21965892.265    -9010232.407 9  -7018455.31149  21965891.700    21965899.1914
  23750430.265    17368399.036 9  13521126.44849  23750430.469    23750440.2744
 99  5 20 20 26 30.0010000  0  6 30 17 05 06 10 24
  21199815.807   -10723564.113 9  -8285707.79349  21199815.873    21199822.8904
  23533378.187   -14691834.089 9 -10256000.77449  23533376.772    23533387.4074
  22676452.491     9476724.704 9   7381753.56449  22676452.109    22676461.7994
  21635593.098   -17779173.208 9 -13853510.88849  21635592.901    21635599.5084
  21972402.955    -8976018.705 9  -6991795.31149  21972402.412    21972410.1604
  23762599.774    17432349.392 9  13570957.80849  23762599.764    23762610.1174
 99  5 20 20 27  0.0010000  0  6 30 17 05 06 10 24
  21204574.581   -10698556.660 9  -8266221.50949  21204574.868    21204582.0144
  23517603.496   -14774730.827 9 -10320595.52049  23517602.772    23517613.1874
  22691639.437     9556531.907 9   7443940.81049  22691639.265    22691649.0774
  21623479.234   -17842832.233 9 -13903115.29449  21623478.977    21623485.8944
  21979013.026    -8941282.804 9  -6964728.40349  21979012.386    21979020.0394
  23774771.441    17496311.304 9  13620798.17149  23774771.848    23774781.5564
 99  5 20 20 27 30.0010000  0  6 30 17 05 06 10 24
  21209439.535   -10672991.747 9  -8246300.84449  21209439.930    21209446.9434
  23501863.846   -14857442.505 9 -10385046.06049  23501863.369    23501873.9064
  22706874.977     9636594.522 9   7506327.08949  22706874.688    22706884.4584
  21611399.507   -17906311.341 9 -13952579.51149  21611399.380    21611406.2014
  21985724.506    -8906013.928 9  -6937246.18749  21985723.780    21985731.7644
  23786943.520    17560275.885 9  13670640.63949  23786943.542    23786953.7424
 99  5 20 20 28  0.0010000  0  6 30 17 05 06 10 24
  21214401.553   -10646916.174 9  -8225982.25849  21214401.765    21214408.7204
  23486156.847   -14939983.116 9 -10449363.28549  23486156.043    23486166.1534
  22722153.165     9716881.129 9   7568887.90849  22722152.771    22722163.2754
  21599347.680   -17969644.233 9 -14001929.78449  21599347.513    21599354.2314
  21992532.543    -8870237.612 9  -6909368.55849  21992531.587    21992539.6184
  23799105.147    17624185.024 9  13720439.90049  23799105.702    23799115.3304
 99  5 20 20 28 30.0010000  0  6 30 17 05 06 10 24
  21219463.738   -10620314.559 9  -8205253.77249  21219464.181    21219470.9784
  23470488.497   -15022319.751 9 -10513521.58549  23470488.739    23470498.6134
  22737477.161     9797408.045 9   7631635.96049  22737477.292    22737486.6944
  21587327.825   -18032808.707 9 -14051148.83149  21587327.454    21587334.8434
  21999442.213    -8833926.784 9  -6881074.43649  21999441.234    21999449.8164
  23811257.184    17688044.164 9  13770200.19349  23811256.530    23811266.4084
 99  5 20 20 29  0.0010000  0  6 30 17 05 06 10 24
  21224625.075   -10593191.959 9  -8184119.32249  21224625.378    21224632.4494
  23454859.673   -15104450.045 9 -10577519.10249  23454859.419    23454869.3844
  22752846.738     9878174.339 9   7694570.56049  22752847.172    22752856.9214
  21575339.576   -18095807.093 9 -14100238.46049  21575339.293    21575346.4014
  22006450.113    -8797099.617 9  -6852377.97149  22006449.182    22006457.6774
  23823401.425    17751862.591 9  13819928.77549  23823401.992    23823411.8654
 99  5 20 20 29 30.0010000  0  6 30 17 05 06 10 24
  21229884.361   -10565554.436 9  -8162583.63549  21229884.727    21229891.5664
  23439268.058   -15186384.382 9 -10641363.94749  23439268.022    23439276.0924
  22768260.360     9959172.480 9   7757685.80849  22768260.761    22768270.1784
  21563382.471   -18158641.806 9 -14149200.55749  21563382.551    21563389.1734
  22013551.792    -8759779.842 9  -6823297.65049  22013551.505    22013559.0664
  23835538.439    17815642.710 9  13869627.49749  23835538.010    23835549.2274
 99  5 20 20 30  0.0010000  0  6 30 17 05 06 10 24
  21235236.264   -10537429.696 9  -8140668.30449  21235236.532    21235243.5824
  23423705.717   -15268164.768 9 -10705088.79849  23423705.046    23423715.3254
  22783709.715    10040357.937 9   7820947.01949  22783710.026    22783719.3614
  21551449.154   -18221352.080 9 -14198065.68249  21551449.072    21551455.7684
  22020738.087    -8722016.261 9  -6793871.50149  22020737.411    22020745.1284
  23847663.134    17879358.490 9  13919276.08749  23847663.566    23847673.3554
 99  5 20 20 30 30.0010000  0  6 30 17 05 06 10 24
  21240685.542   -10508793.604 9  -8118354.51449  21240685.889    21240693.1254
  23408174.807   -15349779.449 9 -10768684.53449  23408173.878    23408184.0134
  22799201.596    10121767.470 9   7884382.83349  22799201.441    22799212.0074
  21539545.435   -18283906.761 9 -14246809.56849  21539545.363    21539552.1614
  22028012.409    -8683789.234 9  -6764084.22549  22028011.575    22028019.2214
  23859783.734    17943052.475 9  13968907.69349  23859783.995    23859794.0604
 99  5 20 20 31  0.0010000  0  6 30 17 05 06 10 24
  21246234.232   -10479635.326 9  -8095633.83049  21246234.658    21246241.5914
  23392676.551   -15431223.296 9 -10832147.17049  23392675.808    23392685.8664
  22814739.954    10203421.705 9   7948009.30449  22814740.224    22814749.6464
  21527674.277   -18346290.137 9 -14295419.97449  21527674.271    21527681.0334
  22035377.183    -8645087.572 9  -6733927.11149  22035376.576    22035383.8904
  23871903.659    18006742.047 9  14018535.84449  23871904.574    23871913.6064
 99  5 20 20 31 30.0010000  0  6 30 17 05 06 10 24
  21251873.934   -10449998.922 9  -8072540.57249  21251874.443    21251881.3834
  23377202.696   -15512539.247 9 -10895510.13649  23377202.080    23377212.7074
  22830316.466    10285276.230 9   8011791.86749  22830316.151    22830326.2664
  21515829.798   -18408533.570 9 -14343921.32549  21515829.681    21515836.3944
  22042827.327    -8605937.516 9  -6703420.59449  22042826.719    22042833.9544
  23884012.628    18070373.204 9  14068118.49749  23884013.432    23884022.7134
 99  5 20 20 32  0.0010000  0  6 30 17 05 06 10 24
  21257615.627   -10419826.319 9  -8049029.49749  21257616.039    21257623.1284
  23361765.917   -15593660.299 9 -10958721.23649  23361765.107    23361775.5594
  22845944.739    10367402.751 9   8075786.35349  22845944.752    22845955.2754
  21504023.838   -18470574.085 9 -14392264.57049  21504023.764    21504030.2594
  22050376.049    -8566268.547 9  -6672509.73849  22050375.373    22050382.9874
  23896122.135    18134007.456 9  14117703.56149  23896123.608    23896131.7424
 99  5 20 20 32 30.0010000  0  6 30 17 05 06 10 24
  21263446.305   -10389185.961 9  -8025153.94749  21263446.702    21263453.7984
  23346356.879   -15674634.977 9 -11021818.28649  23346355.504    23346366.7644
  22861614.114    10449745.399 9   8139949.25649  22861613.165    22861623.9924
  21492246.676   -18532463.399 9 -14440489.98949  21492246.507    21492253.1244
  22058016.573    -8526117.819 9  -6641223.47849  22058015.973    22058023.7314
  23908220.244    18197582.451 9  14167242.44449  23908220.803    23908228.5484
 99  5 20 20 33  0.0010000  0  6 30 17 05 06 10 24
  21269369.595   -10358058.921 9  -8000899.16449  21269370.181    21269377.1424
  23330981.191   -15755433.641 9 -11084778.18349  23330980.438    23330990.8484
  22877323.375    10532298.056 9   8204275.80149  22877322.769    22877334.3384
  21480501.867   -18594182.485 9 -14488582.76249  21480501.748    21480508.4174
  22065751.713    -8485469.427 9  -6609549.42449  22065750.679    22065758.9514
  23920308.580    18261106.826 9  14216741.88849  23920308.765    23920318.8194
 99  5 20 20 33 30.0010000  0  6 30 17 05 06 10 24
  21275384.809   -10326448.956 9  -7976268.08549  21275385.547    21275392.3754
  23315639.151   -15836055.626 9 -11147600.39849  23315638.529    23315648.8844
  22893066.314    10615027.635 9   8268740.19649  22893066.460    22893077.7614
  21468786.200   -18655748.632 9 -14536556.37049  21468785.979    21468792.6774
  22073574.966    -8444357.962 9  -6577514.54349  22073574.273    22073581.8244
  23932385.638    18324572.076 9  14266195.24949  23932385.754    23932394.5584
 99  5 20 20 34  0.0010000  0  6 30 17 05 06 10 24
  21281493.308   -10294349.090 9  -7951255.26049  21281493.698    21281500.7864
  23300330.730   -15916501.224 9 -11210285.17849  23300329.897    23300340.5324
  22908842.926    10697933.728 9   8333342.14949  22908842.408    22908854.1344
  21457097.091   -18717175.302 9 -14584421.28949  21457096.951    21457103.6344
  22081482.408    -8402804.630 9  -6545135.34049  22081481.688    22081489.8994
  23944449.751    18387970.095 9  14315596.19149  23944450.002    23944460.0544
 99  5 20 20 34 30.0010000  0  6 30 17 05 06 10 24
  21287702.834   -10261718.155 9  -7925828.61349  21287703.240    21287710.3444
  23285065.136   -15996722.779 9 -11272795.39549  23285064.106    23285074.9694
  22924657.986    10781041.484 9   8398101.22649  22924657.870    22924668.9634
  21445444.782   -18778408.705 9 -14632135.60849  21445444.648    21445451.2664
  22089481.031    -8360771.958 9  -6512382.63749  22089480.391    22089488.3604
  23956508.588    18451339.190 9  14364974.63649  23956509.034    23956517.4394
 99  5 20 20 35  0.0010000  0  6 30 17 05 06 10 24
  21294009.066   -10228578.836 9  -7900005.82549  21294009.584    21294016.5534
  23269835.870   -16076752.754 9 -11335156.31949  23269836.088    23269845.6904
  22940503.038    10864306.233 9   8462982.63749  22940503.520    22940513.2384
  21433823.814   -18839477.151 9 -14679721.39349  21433823.763    21433830.4444
  22097558.278    -8318325.624 9  -6479307.59749  22097557.609    22097565.5904
  23968555.992    18514646.933 9  14414305.27749  23968557.363    23968564.9744
 99  5 20 20 35 30.0010000  0  6 30 17 05 06 10 24
  21300420.150   -10194888.655 9  -7873753.79049  21300420.496    21300427.4934
  23254648.051   -16156564.695 9 -11397347.33849  23254647.283    23254657.8934
  22956387.138    10947776.508 9   8528024.18849  22956387.873    22956398.3814
  21422238.645   -18900357.420 9 -14727160.54549  21422238.463    21422245.0954
  22105720.186    -8275434.328 9  -6445885.83449  22105719.279    22105727.4434
  23980598.260    18577928.308 9  14463615.38649  23980598.557    23980607.1244
 99  5 20 20 36  0.0010000  0  6 30 17 05 06 10 24
  21306935.643   -10160649.886 9  -7847074.28849  21306935.945    21306943.1914
  23239501.623   -16236159.811 9 -11459369.41049  23239500.599    23239511.2774
  22972315.157    11031477.905 9   8593245.81849  22972315.577    22972325.5554
  21410694.373   -18961022.788 9 -14774432.24249  21410694.175    21410700.8634
  22113974.889    -8232055.457 9  -6412084.14149  22113973.944    22113981.7344
  23992636.213    18641187.312 9  14512908.04249  23992635.944    23992645.2264
 99  5 20 20 36 30.0010000  0  6 30 17 05 06 10 24
  21313551.435   -10125883.628 9  -7819983.75549  21313551.735    21313558.7544
  23224393.667   -16315552.454 9 -11521233.71949  23224392.977    23224402.3234
  22988284.091    11115393.614 9   8658634.46049  22988284.832    22988294.8174
  21399190.441   -19021476.317 9 -14821538.86249  21399190.299    21399196.9874
  22122322.584    -8188188.130 9  -6377901.84049  22122321.725    22122329.5244
  24004669.193    18704420.332 9  14562180.45649  24004667.844    24004678.4614
 99  5 20 20 37  0.0010000  0  6 30 17 05 06 10 24
  21320260.214   -10090628.982 9  -7792512.66449  21320260.431    21320267.4624
  23209314.612   -16394793.244 9 -11582979.70949  23209314.466    23209323.1114
  23004289.040    11199498.715 9   8724170.69149  23004289.252    23004299.2344
  21387716.381   -19081772.768 9 -14868523.08949  21387716.102    21387722.8524
  22130754.913    -8143876.429 9  -6343373.26449  22130753.868    22130762.2774
  24016688.181    18767580.914 9  14611396.39249  24016688.832    24016696.0404
 99  5 20 20 37 30.0010000  0  6 30 17 05 06 10 24
  21327062.548   -10054882.739 9  -7764658.51249  21327063.231    21327070.0244
  23194265.958   -16473874.677 9 -11644601.50949  23194265.154    23194275.0224
  23020335.106    11283820.865 9   8789876.03949  23020335.044    23020345.8684
  21376275.489   -19141895.062 9 -14915371.60349  21376275.243    21376282.0604
  22139279.694    -8099078.106 9  -6308465.52549  22139279.006    22139287.0804
  24028696.001    18830683.593 9  14660567.24149  24028694.831    24028705.9624
 99  5 20 20 38  0.0010000  0  6 30 17 05 06 10 24
  21333955.836   -10018658.959 9  -7736432.24249  21333956.269    21333963.0634
  23179246.741   -16552801.023 9 -11706102.44649  23179246.362    23179255.6884
  23036422.109    11368357.597 9   8855748.59149  23036422.357    23036433.0334
  21364871.329   -19201824.348 9 -14962069.72649  21364870.988    21364877.9554
  22147895.835    -8053800.133 9  -6273184.00849  22147895.401    22147903.1174
  24040692.167    18893724.007 9  14709689.55149  24040692.045    24040701.6684
 99  5 20 20 38 30.0010000  0  6 30 17 05 06 10 24
  21340949.480    -9981907.586 9  -7707794.87049  21340949.948    21340956.8814
  23164267.612   -16631517.189 9 -11767439.61449  23164267.291    23164276.2224
  23052556.762    11453144.407 9   8921815.99849  23052557.277    23052567.2084
  21353509.974   -19261528.260 9 -15008592.23549  21353509.933    21353516.7654
  22156606.901    -8008023.117 9  -6237513.64549  22156606.411    22156614.1194
  24052686.694    18956755.524 9  14758804.94049  24052686.682    24052697.7534
 99  5 20 20 39  0.0010000  0  6 30 17 05 06 10 24
  21348043.779    -9944626.728 9  -7678744.91749  21348044.057    21348051.1644
  23149329.371   -16710018.405 9 -11828609.27249  23149328.363    23149338.3654
  23068737.773    11538175.526 9   8988073.78049  23068737.975    23068747.9104
  21342192.833   -19321000.275 9 -15054934.03749  21342192.617    21342199.2224
  22165411.632    -7961753.986 9  -6201459.81549  22165411.255    22165419.3204
  24064680.118    19019781.688 9  14807916.15249  24064680.388    24064690.0024
 99  5 20 20 39 30.0010000  0  6 30 17 05 06 10 24
  21355226.594    -9906880.732 9  -7649332.51949  21355226.934    21355234.5214
  23134423.244   -16788349.520 9 -11889646.42849  23134421.843    23134432.3214
  23084950.027    11623371.049 9   9054459.67049  23084950.002    23084961.0574
  21330910.763   -19380287.763 9 -15101132.06149  21330910.678    21330917.4024
  22174298.495    -7915053.528 9  -6165069.87949  22174297.673    22174305.6214
  24076662.862    19082751.761 9  14856983.63249  24076663.333    24076672.4384
 99  5 20 20 40  0.0010000  0  7 30 17 05 06 23 10 24
  21362497.442    -9868671.454 9  -7619559.12249  21362497.801    21362505.2804
  23119551.101   -16866501.352 9 -11950543.88949  23119549.919    23119560.4794
  23101189.904    11708711.715 9   9120958.65949  23101189.339    23101201.2364
  21319663.520   -19439392.523 9 -15147187.68849  21319663.394    21319669.9074
  25051933.036    -1873650.141 9   -570264.11549  25051931.878    25051951.7894
  22183264.057    -7867939.421 9  -6128357.61549  22183262.847    22183270.9464
  24088635.130    19145666.019 9  14906007.63649  24088635.095    24088644.9644
 99  5 20 20 40 30.0010000  0  7 30 17 05 06 23 10 24
  21369869.741    -9829930.097 9  -7589371.12649  21369870.147    21369877.4444
  23104725.348   -16944410.223 9 -12011252.01049  23104724.612    23104734.5664
  23117466.428    11794245.182 9   9187607.86449  23117466.781    23117477.9644
  21308461.154   -19498260.992 9 -15193059.20349  21308461.019    21308467.6144
  25028910.864    -1994630.813 9   -664534.50049  25028909.107    25028929.1604
  22192319.930    -7820350.439 9  -6091275.32849  22192318.887    22192327.6144
  24100608.903    19208588.674 9  14955038.18949  24100609.795    24100618.7894
 99  5 20 20 41  0.0010000  0  7 30 17 05 06 23 10 24
  21377333.897    -9790706.175 9  -7558807.09349  21377334.439    21377341.7794
  23089934.620   -17022135.835 9 -12071817.33049  23089933.991    23089944.0214
  23133769.357    11879916.784 9   9254364.71249  23133768.985    23133781.1224
  21297294.534   -19556941.933 9 -15238784.58849  21297294.320    21297301.0724
  25005891.078    -2115599.212 9   -758795.29949  25005888.554    25005908.7814
  22201458.452    -7772327.020 9  -6053854.51549  22201457.821    22201465.9734
  24112575.186    19271470.852 9  15004037.20949  24112574.272    24112584.4624
 99  5 20 20 41 30.0010000  0  7 30 17 05 06 23 10 24
  21384892.110    -9750987.953 9  -7527857.89949  21384892.867    21384900.0274
  23075177.995   -17099682.783 9 -12132243.41449  23075177.157    23075186.7314
  23150101.159    11965739.973 9   9321239.67349  23150101.378    23150112.6014
  21286164.443   -19615430.598 9 -15284360.14849  21286164.345    21286170.8514
  24982873.447    -2236556.255 9   -853047.19449  24982871.808    24982891.4794
  22210681.567    -7723859.738 9  -6016087.84149  22210681.055    22210689.1024
  24124534.138    19334315.804 9  15053007.21649  24124533.863    24124545.0994
 99  5 20 20 42  0.0010000  0  7 30 17 05 06 23 10 24
  21392552.000    -9710735.936 9  -7496492.75749  21392552.594    21392559.5084
  23060458.669   -17177032.826 9 -12192516.11249  23060457.947    23060467.1064
  23166468.510    12051750.382 9   9388260.52549  23166468.188    23166479.8194
  21275075.577   -19673702.795 9 -15329767.03849  21275075.292    21275081.9804
  24959865.027    -2357466.472 9   -947262.66249  24959864.385    24959883.9464
  22219994.536    -7674919.632 9  -5977952.72849  22219993.808    22220002.0904
  24136492.929    19397159.261 9  15101976.06849  24136493.273    24136502.6034
 99  5 20 20 42 30.0010000  0  7 30 17 05 06 23 10 24
  21400310.297    -9669966.090 9  -7464724.11549  21400310.743    21400317.7644
  23045775.073   -17254195.131 9 -12252642.47049  23045774.083    23045784.1864
  23182869.993    12137940.141 9   9455421.13049  23182870.253    23182882.0584
  21264024.937   -19731774.034 9 -15375017.33249  21264024.882    21264031.4424
  24936866.234    -2478326.242 9  -1041438.80649  24936865.058    24936883.6074
  22229394.811    -7625520.955 9  -5939460.28149  22229394.161    22229402.3504
  24148449.290    19459989.492 9  15150934.58349  24148449.626    24148459.7894
 99  5 20 20 43  0.0010000  0  7 30 17 05 06 23 10 24
  21408165.065    -9628689.296 9  -7432560.44649  21408165.395    21408172.4994
  23031130.785   -17331150.433 9 -12312607.58049  23031129.701    23031139.7344
  23199306.019    12224311.134 9   9522722.95549  23199306.165    23199317.6244
  21253013.462   -19789639.736 9 -15420107.47349  21253013.295    21253020.1094
  24913879.111    -2599123.407 9  -1135566.17249  24913877.691    24913896.5994
  22238883.214    -7575658.912 9  -5900606.77149  22238882.952    22238890.5224
  24160401.834    19522800.778 9  15199878.36249  24160401.962    24160411.4974
 99  5 20 20 43 30.0010000  0  8 30 17 26 05 06 23 10 24
  21416115.900    -9586907.919 9  -7400003.59049  21416116.161    21416123.2444
  23016528.267   -17407886.229 9 -12372401.62449  23016527.470    23016537.5874
  24677084.452    -2995602.610 9  -2312757.91749  24677082.691    24677099.9964
  23215778.530    12310873.537 9   9590173.92149  23215779.520    23215790.6784
  21242044.425   -19847282.521 9 -15465023.90749  21242044.129    21242050.5974
  24890906.324    -2719844.979 9  -1229634.62849  24890905.735    24890923.3114
  22248460.634    -7525329.399 9  -5861388.99749  22248460.062    22248467.6304
  24172349.059    19585584.217 9  15248800.44349  24172349.051    24172359.2064
 99  5 20 20 44  0.0010000  0  8 30 17 26 05 06 23 10 24
  21424157.892    -9544646.677 9  -7367072.82849  21424158.304    21424165.5144
  23001968.617   -17484396.727 9 -12432020.10249  23001967.839    23001977.8744
  24658528.081    -3093114.501 9  -2388740.99349  24658527.457    24658543.1394
  23232283.546    12397606.328 9   9657757.66149  23232283.455    23232295.8474
  21231116.929   -19904706.959 9 -15509770.20449  21231116.844    21231123.2694
  24867948.586    -2840486.450 9  -1323640.65049  24867947.508    24867966.6314
  22258123.413    -7474551.392 9  -5821821.75349  22258122.642    22258130.7294
  24184288.641    19648327.299 9  15297691.09549  24184288.945    24184299.1384
 99  5 20 20 44 30.0010000  0  8 30 17 26 05 06 23 10 24
  21432284.908    -9501939.194 9  -7333794.33749  21432285.497    21432292.4604
  22987447.929   -17560703.019 9 -12491479.48149  22987447.781    22987457.2194
  24639969.048    -3190641.905 9  -2464736.16049  24639968.655    24639985.8934
  23248817.106    12484489.488 9   9725458.55749  23248817.788    23248829.0074
  21220229.480   -19961921.058 9 -15554352.59949  21220229.401    21220235.9744
  24845002.419    -2961068.066 9  -1417600.04249  24845000.644    24845019.5764
  22267866.143    -7423353.166 9  -5781927.05749  22267865.537    22267873.6774
  24196212.448    19710985.922 9  15346515.92249  24196212.561    24196223.3334
 99  5 20 20 45  0.0010000  0  8 30 17 26 05 06 23 10 24
  21440501.924    -9458759.168 9  -7300147.63049  21440502.449    21440509.5534
  22972966.115   -17636806.023 9 -12550780.44349  22972965.257    22972975.3884
  24621412.709    -3288156.816 9  -2540721.58949  24621413.360    24621428.8544
  23265385.912    12571557.957 9   9793303.85249  23265385.849    23265398.1334
  21209388.513   -20018890.665 9 -15598744.48849  21209388.816    21209395.0694
  24822072.306    -3081565.527 9  -1511493.85549  24822072.007    24822089.9674
  22277693.421    -7371711.007 9  -5741686.44849  22277692.704    22277700.8774
  24208124.749    19773584.100 9  15395293.62349  24208125.563    24208134.7794
 99  5 20 20 45 30.0010000  0  8 30 17 26 05 06 23 10 24
  21448807.094    -9415115.248 9  -7266139.44749  21448807.629    21448814.7644
  22958518.119   -17712731.161 9 -12609942.82249  22958517.839    22958527.3314
  24602857.443    -3385666.686 9  -2616703.07449  24602857.766    24602874.8744
  23281988.025    12658801.195 9   9861285.32049  23281987.605    23281999.7964
  21198594.469   -20075613.927 9 -15642944.41149  21198594.189    21198600.9454
  24799156.891    -3201986.610 9  -1605328.15349  24799154.912    24799174.3014
  22287601.274    -7319644.962 9  -5701115.53949  22287600.545    22287608.2614
  24220026.270    19836125.597 9  15444027.18549  24220026.964    24220035.7364
 99  5 20 20 46  0.0010000  0  8 30 17 26 05 06 23 10 24
  21457201.147    -9371005.082 9  -7231767.95349  21457201.249    21457208.5084
  22944104.948   -17788473.262 9 -12668962.56749  22944105.017    22944114.2924
  24584304.838    -3483161.027 9  -2692672.46449  24584301.602    24584321.1714
  23298623.395    12746219.507 9   9929403.21449  23298623.958    23298635.3184
  21187847.216   -20132090.848 9 -15686952.38349  21187847.229    21187853.7354
  24776257.262    -3322323.316 9  -1699096.67949  24776255.625    24776273.7064
  22297587.950    -7267164.859 9  -5660221.98749  22297587.561    22297594.9874
  24231918.139    19898616.302 9  15492721.18849  24231918.352    24231928.5964
 99  5 20 20 46 30.0010000  0  8 30 17 26 05 06 23 10 24
  21465685.882    -9326417.489 9  -7197024.43649  21465686.155    21465693.5344
  22929725.906   -17864035.549 9 -12727842.17749  22929725.591    22929735.2934
  24565752.929    -3580648.436 9  -2768636.35449  24565749.605    24565767.6604
  23315295.322    12833830.074 9   9997670.92149  23315295.657    23315305.9854
  21177147.154   -20188320.255 9 -15730767.48649  21177147.186    21177153.5784
  24753374.459    -3442570.751 9  -1792795.65449  24753373.396    24753391.0894
  22307656.035    -7214256.648 9  -5618994.84449  22307655.701    22307663.3924
  24243800.683    19961059.596 9  15541378.20949  24243801.076    24243809.9324
 99  5 20 20 47  0.0010000  0  8 30 17 26 05 06 23 10 24
  21474260.373    -9281358.134 9  -7161913.32349  21474260.729    21474268.1944
  22915380.467   -17939421.690 9 -12786584.53549  22915379.893    22915390.1114
  24547200.252    -3678139.625 9  -2844603.22149  24547198.448    24547217.0964
  23332000.347    12921614.564 9  10066074.13749  23332000.452    23332012.1224
  21166492.467   -20244311.297 9 -15774396.84849  21166492.532    21166498.9534
  24730508.532    -3562729.982 9  -1886425.89849  24730506.367    24730525.4234
  22317806.614    -7160915.408 9  -5577430.28649  22317806.134    22317814.0794
  24255674.877    20023459.015 9  15590001.08149  24255675.435    24255685.2854
 99  5 20 20 47 30.0010000  0  8 30 17 26 05 06 23 10 24
  21482924.130    -9235830.234 9  -7126437.10849  21482924.821    21482932.0834
  22901070.966   -18014618.646 9 -12845179.48649  22901070.169    22901080.3034
  24528645.552    -3775640.376 9  -2920577.57549  24528644.023    24528661.7264
  23348733.762    13009548.113 9  10134593.50749  23348733.578    23348746.1274
  21155882.032   -20300069.749 9 -15817844.96549  21155882.068    21155888.3984
  24707657.851    -3682809.143 9  -1979993.73049  24707654.896    24707675.4494
  22328038.456    -7107147.058 9  -5535532.90549  22328037.391    22328045.9064
  24267538.494    20085801.903 9  15638579.85649  24267537.533    24267547.7904
 99  5 20 20 48  0.0010000  0  8 30 17 26 05 06 23 10 24
  21491678.371    -9189826.450 9  -7090590.07849  21491679.000    21491686.0954
  22886797.757   -18089624.574 9 -12903625.57949  22886797.110    22886806.4404
  24510088.565    -3873151.715 9  -2996560.17149  24510087.470    24510105.4264
  23365493.386    13097619.979 9  10203220.64049  23365492.756    23365504.9874
  21145315.097   -20355599.489 9 -15861114.87149  21145314.923    21145321.4404
  24684820.510    -3802817.846 9  -2073506.68149  24684819.015    24684837.9484
  22338353.889    -7052939.389 9  -5493293.21249  22338353.430    22338361.3574
  24279390.278    20148083.138 9  15687110.64549  24279390.698    24279397.6134
 99  5 20 20 48 30.0010000  0  8 30 17 26 05 06 23 10 24
  21500521.731    -9143354.868 9  -7054378.53149  21500522.428    21500529.6264
  22872556.741   -18164460.578 9 -12961939.28049  22872555.829    22872565.3534
  24491526.942    -3970692.217 9  -3072565.47849  24491527.798    24491546.0384
  23382273.418    13185800.080 9  10271932.12649  23382272.949    23382284.3844
  21134790.116   -20410908.391 9 -15904212.69549  21134789.779    21134796.2434
  24661991.196    -3922783.391 9  -2166986.00149  24661989.400    24662008.4124
  22348750.897    -6998303.207 9  -5450719.60049  22348750.562    22348758.3464
  24291230.154    20210301.386 9  15735592.32149  24291230.161    24291239.3494
 99  5 20 20 49  0.0010000  0  8 30 17 26 05 06 23 10 24
  21509464.342    -9096361.706 9  -7017760.56249  21509464.907    21509472.0744
  22858361.166   -18239057.889 9 -13020066.96449  22858360.177    22858369.7394
  24472973.975    -4068189.695 9  -3148537.25049  24472974.662    24472991.9454
  23399080.296    13274120.055 9  10340752.59249  23399079.944    23399092.3074
  21124318.651   -20465936.098 9 -15947091.41349  21124318.539    21124325.1874
  24639179.390    -4042657.174 9  -2260393.81249  24639178.552    24639197.6334
  22359237.460    -6943196.351 9  -5407779.22049  22359236.822    22359244.1694
  24303070.029    20272519.813 9  15784074.16449  24303070.554    24303079.1994
 99  5 20 20 49 30.0010000  0  8 30 17 26 05 06 23 10 24
  21518486.453    -9048950.282 9  -6980816.67549  21518486.951    21518494.7314
  22844193.583   -18313508.205 9 -13078080.10749  22844192.824    22844202.3264
  24454414.420    -4165721.756 9  -3224535.99949  24454414.301    24454432.7334
  23415894.321    13362477.280 9  10409602.08449  23415894.344    23415906.4104
  21113880.064   -20520790.962 9 -15989835.44449  21113879.945    21113886.6544
  24616365.559    -4162543.362 9  -2353811.30349  24616365.365    24616383.0854
  22369792.147    -6887730.924 9  -5364559.42949  22369791.286    22369799.0204
  24314891.717    20334642.628 9  15832481.47549  24314891.731    24314901.3264
 99  5 20 20 50  0.0010000  0  8 30 17 26 05 06 23 10 24
  21527597.826    -9001070.301 9  -6943507.69549  21527598.424    21527605.8504
  22830067.195   -18387742.089 9 -13135924.61149  22830066.454    22830076.4444
  24435864.935    -4263200.532 9  -3300493.21249  24435864.853    24435883.1184
  23432728.730    13450941.710 9  10478535.12249  23432728.530    23432741.1124
  21103487.019   -20575406.674 9 -16032393.11649  21103486.920    21103493.5304
  24593563.070    -4282371.007 9  -2447183.16949  24593562.461    24593580.7264
  22380425.786    -6831850.969 9  -5321016.63349  22380424.954    22380433.3434
  24326707.115    20396733.874 9  15880864.18349  24326706.462    24326717.4674
 99  5 20 20 50 30.0010000  0  8 30 17 26 05 06 23 10 24
  21536800.790    -8952708.365 9  -6905823.17149  21536801.393    21536808.7204
  22815987.700   -18461729.804 9 -13193577.29749  22815986.731    22815996.4984
  24417333.451    -4360583.370 9  -3376375.68949  24417333.122    24417351.8034
  23449590.952    13539553.148 9  10547582.70349  23449591.406    23449603.3234
  21093143.109   -20629763.986 9 -16074749.44549  21093142.821    21093149.4764
  24570778.738    -4402102.771 9  -2540480.32649  24570778.324    24570795.5184
  22391138.978    -6775553.004 9  -5277148.12249  22391138.158    22391146.6274
  24338519.022    20458805.773 9  15929231.85349  24338519.154    24338529.5284
 99  5 20 20 51  0.0010000  0  8 30 17 26 05 06 23 10 24
  21546087.691    -8903905.726 9  -6867795.23449  21546088.124    21546095.6584
  22801949.511   -18535500.460 9 -13251060.84649  22801948.380    22801957.8954
  24398815.258    -4457897.851 9  -3452204.88049  24398816.291    24398831.9604
  23466478.492    13628296.906 9  10616733.37849  23466477.246    23466490.6704
  21082843.386   -20683889.121 9 -16116924.85649  21082843.151    21082849.9134
  24548011.841    -4521744.192 9  -2633707.10149  24548011.215    24548028.4994
  22401926.543    -6718863.772 9  -5232974.72549  22401925.410    22401934.1154
  24350319.485    20520817.248 9  15977552.40149  24350319.644    24350329.7704
 99  5 20 20 51 30.0010000  0  8 30 17 26 05 06 23 10 24
  21555457.122    -8854669.364 9  -6829429.33049  21555457.717    21555465.2234
  22787949.472   -18609071.008 9 -13308388.45049  22787949.481    22787958.0694
  24380307.710    -4555156.933 9  -3527990.90549  24380308.364    24380324.1504
  23483395.491    13717195.254 9  10686004.51249  23483396.213    23483408.7794
  21072590.358   -20737768.948 9 -16158909.11849  21072590.249    21072596.8324
  24525267.658    -4641264.104 9  -2726839.16549  24525266.741    24525284.7264
  22412788.231    -6661785.043 9  -5188497.83249  22412787.190    22412795.8074
  24362108.292    20582767.427 9  16025825.18949  24362108.623    24362118.8364
 99  5 20 20 52  0.0010000  0  8 30 17 26 05 06 23 10 24
  21564911.977    -8804984.024 9  -6790713.56849  21564912.512    21564919.9724
  22773988.714   -18682435.547 9 -13365555.54249  22773988.476    22773997.4674
  24361809.568    -4652366.066 9  -3603737.99849  24361809.670    24361824.8414
  23500345.735    13806267.680 9  10755411.29149  23500346.299    23500359.4834
  21062390.011   -20791372.126 9 -16200677.80249  21062389.691    21062396.2964
  24502552.200    -4760634.581 9  -2819854.80949  24502551.257    24502568.4974
  22423726.718    -6604302.827 9  -5143706.52249  22423725.358    22423734.0134
  24373888.428    20644671.835 9  16074062.32649  24373888.548    24373899.2134
 99  5 20 20 52 30.0010000  0  8 30 17 26 05 06 23 10 24
  21574455.063    -8754835.207 9  -6751636.65649  21574455.775    21574463.1264
  22760066.089   -18755600.161 9 -13422566.84249  22760065.754    22760074.7494
  24343316.515    -4749547.934 9  -3679463.89149  24343316.073    24343331.1704
  23517330.427    13895521.205 9  10824959.18849  23517330.561    23517343.2504
  21052243.413   -20844692.609 9 -16242226.21449  21052243.605    21052249.7244
  24479867.959    -4879840.947 9  -2912742.55949  24479866.261    24479884.2884
  22434743.554    -6546408.889 9  -5098594.40049  22434742.941    22434751.5424
  24385662.966    20706547.304 9  16122276.91649  24385662.567    24385672.8184
 99  5 20 20 53  0.0010000  0  8 30 17 26 05 06 23 10 24
  21584079.639    -8704258.084 9  -6712225.99749  21584080.132    21584087.7524
  22746171.507   -18828616.760 9 -13479462.80449  22746170.764    22746179.4824
  24324820.104    -4846746.095 9  -3755202.45449  24324819.478    24324834.5554
  23534341.541    13984913.327 9  10894615.06449  23534341.684    23534355.6464
  21042144.602   -20897762.798 9 -16283579.59149  21042144.796    21042150.9804
  24457207.502    -4998921.459 9  -3005532.23449  24457205.849    24457223.2124
  22445832.445    -6488136.316 9  -5053187.23049  22445831.184    22445840.0154
  24397427.861    20768372.326 9  16170452.18149  24397427.263    24397437.8194
 99  5 20 20 53 30.0010000  0  8 30 17 26 05 06 23 10 24
  21593795.656    -8653200.887 9  -6672441.26449  21593796.346    21593803.8604
  22732314.534   -18901434.703 9 -13536203.97049  22732313.517    22732322.6284
  24306332.289    -4943898.010 9  -3830904.98249  24306332.026    24306346.4104
  23551383.242    14074466.142 9  10964396.15849  23551383.447    23551397.1094
  21032098.601   -20950555.012 9 -16324716.36549  21032098.571    21032104.8414
  24434576.504    -5117846.899 9  -3098201.09449  24434575.745    24434592.1324
  22457000.125    -6429449.263 9  -5007457.10349  22457000.102    22457008.0754
  24409191.630    20830191.584 9  16218622.94649  24409190.489    24409202.1454
 99  5 20 20 54  0.0010000  0  8 30 17 26 05 06 23 10 24
  21603597.709    -8601690.828 9  -6632303.64749  21603598.330    21603606.0754
  22718489.236   -18974085.732 9 -13592815.08149  22718488.198    22718497.8814
  24287851.191    -5041016.510 9  -3906581.50549  24287850.901    24287864.0334
  23568446.116    14164129.920 9  11034263.72749  23568446.554    23568459.8344
  21022096.044   -21003118.896 9 -16365675.21649  21022095.996    21022102.2994
  24411964.483    -5236672.628 9  -3190792.24549  24411963.359    24411980.1374
  22468241.646    -6370374.811 9  -4961425.09549  22468240.851    22468249.3904
  24420947.805    20891972.288 9  16266763.67849  24420946.640    24420957.6954
 99  5 20 20 54 30.0010000  0  8 30 17 26 05 06 23 10 24
  21613488.800    -8549713.745 9  -6591802.11649  21613489.113    21613496.9684
  22704698.756   -19046554.217 9 -13649283.95549  22704697.895    22704707.2234
  24269382.000    -5138073.047 9  -3982209.70449  24269382.006    24269394.8474
  23585532.303    14253916.204 9  11104226.74849  23585533.675    23585545.1164
  21012137.875   -21055449.387 9 -16406452.21149  21012137.550    21012144.3264
  24389371.802    -5355396.068 9  -3283303.70449  24389370.640    24389386.2774
  22479558.168    -6310906.883 9  -4915086.48749  22479558.016    22479565.6854
  24432698.229    20953721.523 9  16314879.89049  24432698.355    24432708.9494
 99  5 20 20 55  0.0010000  0  8 30 17 26 05 06 23 10 24
  21623467.753    -8497274.899 9  -6550940.76449  21623468.334    21623475.7834
  22690945.993   -19118824.804 9 -13705598.63149  22690945.275    22690954.6534
  24250927.983    -5235048.617 9  -4057774.81949  24250927.562    24250940.5844
  23602636.858    14343799.580 9  11174265.42149  23602637.434    23602650.2594
  21002223.767   -21107547.911 9 -16447048.45049  21002223.473    21002230.0884
  24366796.710    -5474029.558 9  -3375745.06649  24366795.459    24366810.8314
  22490949.948    -6251043.436 9  -4868439.68449  22490948.420    22490957.3754
  24444439.962    21015424.451 9  16362960.01449  24444440.566    24444450.9994
 99  5 20 20 55 30.0010000  0  8 30 17 26 05 06 23 10 24
  21633532.006    -8444387.110 9  -6509729.58449  21633532.397    21633540.0184
  22677232.973   -19190887.045 9 -13761750.95549  22677232.289    22677241.4894
  24232490.098    -5331939.712 9  -4133274.11649  24232489.756    24232503.1144
  23619757.281    14433766.602 9  11244369.23949  23619757.922    23619771.4004
  20992354.532   -21159410.819 9 -16487461.09349  20992354.246    20992360.9214
  24344238.109    -5592575.235 9  -3468117.99349  24344237.965    24344251.7854
  22502417.010    -6190783.953 9  -4821484.27649  22502416.201    22502424.3034
  24456173.353    21077081.879 9  16411004.70349  24456174.143    24456183.6984
 99  5 20 20 56  0.0010000  0  8 30 17 26 05 06 23 10 24
  21643678.046    -8391069.200 9  -6468183.25249  21643678.543    21643686.2244
  22663558.533   -19262746.826 9 -13817745.51349  22663558.035    22663566.6594
  24214065.437    -5428760.846 9  -4208718.88549  24214064.302    24214078.7374
  23636897.505    14523836.885 9  11314553.54549  23636897.536    23636910.7204
  20982534.059   -21211017.350 9 -16527673.96649  20982533.974    20982540.4774
  24321698.027    -5711023.337 9  -3560414.89749  24321697.139    24321712.3934
  22513957.752    -6130136.681 9  -4774226.71649  22513957.192    22513964.8184
  24467896.425    21138685.832 9  16459007.72549  24467897.437    24467906.7674
 99  5 20 20 56 30.0010000  0  8 30 17 26 05 06 23 10 24
  21653903.812    -8337332.984 9  -6426310.96349  21653903.984    21653911.8784
  22649926.078   -19334385.955 9 -13873568.13849  22649925.663    22649934.7554
  24195654.623    -5525507.645 9  -4284105.74349  24195653.148    24195670.2164
  23654057.717    14614012.264 9  11384819.72449  23654057.267    23654070.4064
  20972764.387   -21262357.157 9 -16567679.00149  20972764.457    20972770.8424
  24299180.709    -5829350.551 9  -3652617.59049  24299179.188    24299195.6324
  22525569.581    -6069116.218 9  -4726678.34449  22525569.083    22525577.2274
  24479607.932    21200228.755 9  16506963.17149  24479607.301    24479617.8444
 99  5 20 20 57  0.0010000  0  8 30 17 26 05 06 23 10 24
  21664207.835    -8283185.370 9  -6384118.10749  21664208.600    21664216.3634
  22636336.660   -19405798.170 9 -13929213.94049  22636336.101    22636344.8474
  24177260.931    -5622165.062 9  -4359422.96449  24177260.581    24177275.8184
  23671238.793    14704297.218 9  11455171.30449  23671239.452    23671251.4774
  20963048.747   -21313413.381 9 -16607463.05949  20963048.753    20963055.2034
  24276692.932    -5947523.033 9  -3744699.72849  24276692.056    24276706.7794
  22537253.391    -6007717.698 9  -4678835.38749  22537252.924    22537260.5564
  24491311.510    21261731.613 9  16554887.38549  24491310.149    24491322.9604
 99  5 20 20 57 30.0010000  0  8 30 17 26 05 06 23 10 24
  21674589.753    -8228628.200 9  -6341606.11649  21674590.143    21674598.0154
  22622788.122   -19476996.078 9 -13984692.75049  22622787.370    22622796.4864
  24158885.366    -5718727.151 9  -4434665.86449  24158884.682    24158899.9204
  23688443.652    14794708.495 9  11525621.28949  23688442.473    23688457.1834
  20953388.557   -21364178.005 9 -16647019.89749  20953388.451    20953395.0154
  24254236.886    -6065528.979 9  -3836652.07349  24254235.952    24254250.9294
  22549006.447    -5945954.904 9  -4630708.56949  22549006.048    22549013.6414
  24503007.279    21323194.045 9  16602780.11549  24503005.682    24503018.6314
 99  5 20 20 58  0.0010000  0  8 30 17 26 05 06 23 10 24
  21685043.979    -8173690.918 9  -6298797.93249  21685044.056    21685051.9024
  22609274.348   -19548011.111 9 -14040029.05349  22609273.686    22609282.6784
  24140521.407    -5815229.166 9  -4509861.96249  24140521.255    24140536.8924
  23705665.982    14885211.655 9  11596142.87849  23705665.849    23705678.7914
  20943779.463   -21414674.020 9 -16686367.43549  20943779.443    20943785.8134
  24231807.069    -6183397.034 9  -3928496.98449  24231805.870    24231821.7584
  22560822.968    -5883859.440 9  -4582322.53049  22560822.937    22560830.1164
  24514685.061    21384562.370 9  16650599.51349  24514684.817    24514695.2794
 99  5 20 20 58 30.0010000  0  8 30 17 26 05 06 23 10 24
  21695584.766    -8118298.889 9  -6255635.41049  21695585.209    21695593.1234
  22595807.754   -19618777.933 9 -14095171.95149  22595807.398    22595816.8234
  24122180.375    -5911609.355 9  -4584963.13149  24122178.214    24122195.4884
  23722912.908    14975844.171 9  11666765.24949  23722912.789    23722926.8174
  20934232.451   -21464843.796 9 -16725460.76049  20934232.163    20934238.9274
  24209411.242    -6301085.759 9  -4020202.16349  24209409.455    24209426.1434
  22572716.916    -5821356.554 9  -4533619.03749  22572716.154    22572724.1024
  24526358.188    21445906.101 9  16698399.79549  24526358.765    24526369.5864
 99  5 20 20 59  0.0010000  0  8 30 17 26 05 06 23 10 24
  21706209.985    -8062463.064 9  -6212127.06449  21706210.363    21706218.3734
  22582380.191   -19689340.451 9 -14150155.64749  22582379.244    22582388.9334
  24103856.118    -6007900.838 9  -4659995.15949  24103853.370    24103871.2104
  23740179.336    15066578.734 9  11737467.13549  23740178.796    23740193.1124
  20924746.013   -21514695.174 9 -16764305.97749  20924745.500    20924752.4034
  24187039.730    -6418647.679 9  -4111808.53949  24187037.053    24187053.9144
  22584687.275    -5758452.161 9  -4484602.66149  22584686.867    22584694.3754
  24538021.722    21507198.998 9  16746160.42449  24538023.600    24538033.3434
 99  5 20 20 59 30.0010000  0  8 30 17 26 05 06 23 10 24
  21716918.209    -8006191.287 9  -6168279.01549  21716918.710    21716926.5864
  22568987.632   -19759717.962 9 -14204995.19349  22568986.736    22568996.3034
  24085545.404    -6104121.484 9  -4734972.01249  24085545.164    24085561.2194
  23757460.390    15157391.020 9  11808229.58849  23757460.362    23757474.3424
  20915317.031   -21564244.997 9 -16802916.21849  20915317.267    20915323.3604
  24164684.839    -6536121.739 9  -4203346.44049  24164682.458    24164698.8204
  22596734.674    -5695143.747 9  -4435271.46849  22596733.667    22596741.8684
  24549669.682    21568408.340 9  16793855.97749  24549668.468    24549680.7634
 99  5 20 21  0  0.0010000  0  8 30 17 26 05 06 23 10 24
  21727708.487    -7949488.791 9  -6124095.35149  21727709.110    21727716.7284
  22555631.063   -19829906.815 9 -14259687.74149  22555631.012    22555639.7594
  24067248.629    -6200270.135 9  -4809892.75549  24067249.940    24067265.2944
  23774754.527    15248272.013 9  11879045.56849  23774754.970    23774769.4674
  20905943.701   -21613502.571 9 -16841298.73649  20905943.716    20905949.9334
  24142346.167    -6653510.097 9  -4294817.55849  24142344.323    24142361.2574
  22608859.183    -5631429.145 9  -4385623.77049  22608859.013    22608867.0814
  24561302.634    21629539.322 9  16841490.44449  24561302.664    24561312.9134
 99  5 20 21  0 30.0010000  0  8 30 17 26 05 06 23 10 24
  21738577.042    -7892374.543 9  -6079590.84549  21738577.786    21738585.3374
  22542305.320   -19899934.318 9 -14314254.55449  22542304.577    22542313.6834
  24048965.199    -6296350.950 9  -4884760.62349  24048966.227    24048980.6644
  23792059.409    15339208.098 9  11949904.49549  23792058.780    23792074.0354
  20896618.113   -21662508.883 9 -16879485.45749  20896618.282    20896624.3464
  24120021.234    -6770826.541 9  -4386232.61249  24120019.528    24120036.1784
  22621053.530    -5567347.689 9  -4335690.21449  22621052.921    22621060.9734
  24572919.656    21690585.960 9  16889059.17049  24572920.671    24572928.9094
 99  5 20 21  1  0.0010000  0  8 30 17 26 05 06 23 10 24
  21749519.667    -7834871.167 9  -6034783.12149  21749520.390    21749528.0894
  22529007.228   -19969816.266 9 -14368707.94649  22529006.803    22529014.8694
  24030696.785    -6392353.622 9  -4959567.59049  24030697.414    24030712.0274
  23809374.041    15430195.967 9  12020803.75549  23809373.444    23809388.1134
  20887337.029   -21711281.440 9 -16917490.04149  20887336.858    20887343.1244
  24097713.494    -6888051.234 9  -4477576.18349  24097712.001    24097728.6754
  22633311.679    -5502931.269 9  -4285495.64549  22633311.045    22633319.1604
  24584518.880    21751539.146 9  16936555.10649  24584518.562    24584530.5484
 99  5 20 21  1 30.0010000  0  8 30 17 26 05 06 23 10 24
  21760542.266    -7776947.414 9  -5989647.82549  21760542.710    21760550.4554
  22515748.345   -20039492.521 9 -14423001.06449  22515747.283    22515755.7624
  24012453.617    -6488223.775 9  -5034271.28849  24012453.844    24012467.5754
  23826707.224    15521281.591 9  12091779.19449  23826707.264    23826722.3474
  20878104.881   -21759796.446 9 -16955293.93549  20878104.629    20878111.2014
  24075437.492    -7005109.930 9  -4568790.38949  24075434.813    24075452.6274
  22645638.311    -5438154.644 9  -4235020.40049  22645637.671    22645646.1414
  24596110.823    21812454.482 9  16984021.53249  24596110.877    24596121.0564
 99  5 20 21  2  0.0010000  0  8 30 17 26 05 06 23 10 24
  21771648.952    -7718581.658 9  -5944168.12349  21771649.151    21771657.3324
  22502534.614   -20108930.367 9 -14477108.41349  22502533.450    22502543.0034
  23994239.961    -6583937.961 9  -5108853.46249  23994239.773    23994254.0044
  23844065.578    15612499.783 9  12162857.91349  23844066.057    23844080.7964
  20868929.678   -21808012.334 9 -16992864.75349  20868929.541    20868935.8204
  24053201.815    -7121956.452 9  -4659839.24349  24053201.335    24053217.4384
  22658033.950    -5373015.162 9  -4184262.41749  22658033.400    22658041.5194
  24607702.917    21873370.545 9  17031488.54349  24607703.761    24607713.8054
 99  5 20 21  2 30.0010000  0  8 30 17 26 05 06 23 10 24
  21782831.058    -7659820.053 9  -5898379.96149  21782831.679    21782839.3484
  22489357.608   -20178175.302 9 -14531065.44849  22489356.882    22489365.8704
  23976047.500    -6679539.704 9  -5183348.00249  23976047.708    23976061.0734
  23861440.326    15703803.705 9  12234003.43549  23861441.428    23861456.2434
  20859804.836   -21855963.718 9 -17030229.45949  20859804.848    20859811.2464
  24031000.353    -7238626.197 9  -4750750.38849  24030998.976    24031014.1154
  22670489.139    -5307562.791 9  -4133260.59849  22670488.787    22670496.8014
  24619287.894    21934249.508 9  17078926.63349  24619288.431    24619297.8484
 99  5 20 21  3  0.0010000  0  8 30 17 26 05 06 23 10 24
  21794098.717    -7600608.663 9  -5852241.32149  21794099.259    21794107.1484
  22476227.647   -20247173.195 9 -14584829.97649  22476226.452    22476235.5934
  23957883.218    -6774993.100 9  -5257726.96149  23957882.473    23957896.1514
  23878838.477    15795229.752 9  12305244.10449  23878838.834    23878853.3284
  20850743.787   -21903579.736 9 -17067332.84949  20850743.681    20850750.5194
  24008841.847    -7355068.794 9  -4841484.50949  24008841.165    24008856.2284
  22683016.931    -5241729.821 9  -4081962.22949  22683016.245    22683024.4724
  24630875.782    21995144.126 9  17126376.91649  24630876.009    24630885.7154
 99  5 20 21  3 30.0010000  0  8 30 17 26 05 06 23 10 24
  21805446.782    -7540974.586 9  -5805773.32649  21805447.093    21805454.9204
  22463141.528   -20315940.407 9 -14638414.74749  22463140.931    22463149.4554
  23939740.548    -6870332.014 9  -5332016.72749  23939739.573    23939752.7784
  23896254.121    15886747.852 9  12376556.49649  23896255.007    23896269.3024
  20841744.299   -21950872.600 9 -17104184.43149  20841744.331    20841750.8934
  23986720.250    -7471317.334 9  -4932067.44249  23986719.150    23986735.0624
  22695613.515    -5175534.104 9  -4030381.20649  22695612.864    22695621.0904
  24642461.172    22056025.760 9  17173817.09249  24642460.290    24642471.4204
 99  5 20 21  4  0.0010000  0  8 30 17 26 05 06 23 10 24
  21816873.029    -7480929.459 9  -5758985.02549  21816873.353    21816881.3954
  22450095.459   -20384497.688 9 -14691835.95149  22450095.462    22450103.4894
  23921618.646    -6965561.525 9  -5406221.23849  23921617.419    23921630.8074
  23913681.850    15978328.453 9  12447917.58649  23913682.902    23913697.2494
  20832805.980   -21997843.755 9 -17140785.32749  20832805.749    20832812.2574
  23964631.115    -7587395.138 9  -5022517.32449  23964629.452    23964644.0944
  22708276.338    -5108990.291 9  -3978528.92449  22708274.958    22708284.0874
  24654039.236    22116869.264 9  17221227.54549  24654038.904    24654050.3194
 99  5 20 21  4 30.0010000  0  8 30 17 26 05 06 23 10 24
  21828382.932    -7420444.817 9  -5711854.26049  21828383.465    21828391.6624
  22437092.236   -20452829.988 9 -14745081.82949  22437092.054    22437100.7294
  23903524.388    -7060645.562 9  -5480312.41249  23903523.115    23903535.4554
  23931123.480    16069982.418 9  12519335.84549  23931124.347    23931138.3134
  20823928.355   -22044495.834 9 -17177137.59849  20823928.564    20823934.8674
  23942577.231    -7703286.787 9  -5112822.15649  23942576.479    23942591.6984
  22721010.222    -5042073.175 9  -3926385.76349  22721009.932    22721016.8714
  24665611.378    22177681.937 9  17268613.97049  24665610.713    24665622.6714
 99  5 20 21  5  0.0010000  0  8 30 17 26 05 06 23 10 24
  21839975.304    -7359526.838 9  -5664385.81649  21839975.959    21839983.8454
  22424130.962   -20520942.393 9 -14798156.36549  22424130.408    22424139.6014
  23885457.750    -7155584.957 9  -5554290.85549  23885456.722    23885468.4644
  23948579.021    16161709.800 9  12590811.31649  23948579.793    23948593.2364
  20815112.496   -22090823.701 9 -17213237.23349  20815112.448    20815118.6824
  23920557.641    -7819000.272 9  -5202988.15049  23920557.113    23920571.6544
  22733813.522    -4974791.866 9  -3873958.81049  22733812.389    22733821.2954
  24677174.834    22238447.215 9  17315963.44049  24677175.477    24677185.7664
 99  5 20 21  5 30.0010000  0  8 30 17 26 05 06 23 10 24
  21851648.228    -7298185.937 9  -5616587.83149  21851648.708    21851656.8254
  22411213.794   -20588823.172 9 -14851050.40249  22411213.610    22411221.9454
  23867425.299    -7250343.570 9  -5628128.42449  23867423.816    23867437.1314
  23966049.934    16253517.861 9  12662349.66049  23966050.528    23966064.6274
  20806360.190   -22136817.387 9 -17249076.46449  20806360.097    20806366.6794
  23898574.637    -7934521.322 9  -5293004.20649  23898573.242    23898588.4424
  22746683.595    -4907159.473 9  -3821258.28349  22746682.689    22746690.5044
  24688727.931    22299157.442 9  17363270.05149  24688728.759    24688738.9084
 99  5 20 21  6  0.0010000  0  9 30 17 26 05 06 22 23 10 24
  21863401.615    -7236422.321 9  -5568460.46349  21863402.431    21863409.8884
  22398336.144   -20656495.928 9 -14903782.33849  22398335.665    22398344.5244
  23849428.792    -7344914.651 9  -5701819.88849  23849427.485    23849440.4004
  23983537.406    16345412.628 9  12733955.55949  23983537.782    23983551.9684
  20797669.411   -22182487.575 9 -17284663.61749  20797669.083    20797675.6914
  24755214.023    -3350876.589 9  -1610314.90849  24755213.942    24755223.7824
  23876628.144    -8049849.707 9  -5382870.12049  23876627.205    23876641.5934
  22759617.847    -4839189.447 9  -3768294.66249  22759617.265    22759624.7164
  24700270.631    22359812.684 9  17410533.79049  24700270.019    24700282.6054
 99  5 20 21  6 30.0010000  0  9 30 17 26 05 06 22 23 10 24
  21875223.856    -7174296.607 9  -5520050.92949  21875224.237    21875232.4544
  22385488.774   -20724008.781 9 -14956389.67149  22385487.999    22385496.7064
  23831455.668    -7439361.883 9  -5775414.84649  23831454.837    23831468.6404
  24001033.445    16437351.759 9  12805596.01149  24001033.430    24001047.7494
  20789032.648   -22227873.769 9 -17320029.47649  20789032.572    20789039.2344
  24737489.114    -3444021.495 9  -1682895.33349  24737489.432    24737499.7414
  23854709.131    -8165035.075 9  -5472624.60049  23854708.509    23854722.9154
  22772606.492    -4770934.117 9  -3715108.75349  22772606.013    22772614.0134
  24711794.516    22420370.051 9  17457721.25549  24711792.692    24711804.3694
 99  5 20 21  7  0.0010000  0  9 30 17 26 05 06 22 23 10 24
  21887116.694    -7111799.736 9  -5471352.18849  21887117.274    21887125.1204
  22372679.122   -20791322.918 9 -15008842.18149  22372678.497    22372687.1764
  23813513.591    -7533646.934 9  -5848883.43249  23813513.038    23813527.3534
  24018542.326    16529358.796 9  12877289.37949  24018542.869    24018556.9224
  20780460.658   -22272919.842 9 -17355130.30849  20780460.756    20780467.3404
  24719830.406    -3536819.144 9  -1755205.17149  24719828.749    24719839.4884
  23832824.962    -8280036.105 9  -5562235.44549  23832823.989    23832837.6734
  22785655.793    -4702359.505 9  -3661674.04749  22785655.109    22785663.4364
  24723307.737    22480874.194 9  17504867.26249  24723307.151    24723318.1724
 99  5 20 21  7 30.0010000  0  9 30 17 26 05 06 22 23 10 24
  21899076.226    -7048952.317 9  -5422380.29449  21899076.265    21899085.0674
  22359903.007   -20858461.585 9 -15061157.94649  22359902.362    22359910.8414
  23795599.072    -7627786.106 9  -5922238.38149  23795597.860    23795613.0544
  24036057.433    16621399.298 9  12949008.82049  24036058.663    24036072.1464
  20771948.675   -22317650.913 9 -17389985.68349  20771948.749    20771955.0034
  24702238.718    -3629261.811 9  -1827238.40749  24702236.058    24702246.8094
  23810973.591    -8394865.626 9  -5651712.65749  23810971.637    23810985.5654
  22798765.628    -4633466.738 9  -3607991.43049  22798764.704    22798773.1824
  24734810.325    22541322.101 9  17551969.42749  24734808.568    24734821.4554
 99  5 20 21  8  0.0010000  0  9 30 17 26 05 06 22 23 10 24
  21911110.493    -6985712.203 9  -5373102.40249  21911111.043    21911119.2294
  22347163.812   -20925406.236 9 -15113322.52149  22347162.801    22347171.5664
  23777713.224    -7721775.781 9  -5995476.85349  23777712.782    23777727.2794
  24053583.227    16713495.406 9  13020771.59149  24053584.140    24053597.0384
  20763502.319   -22362036.887 9 -17424572.15249  20763502.276    20763508.5964
  24684719.159    -3721323.649 9  -1898974.89249  24684717.206    24684728.8604
  23789158.866    -8509500.380 9  -5741038.09049  23789157.929    23789171.5644
  22811943.787    -4564214.953 9  -3554029.05249  22811943.190    22811951.6954
  24746311.079    22601759.859 9  17599063.70249  24746310.646    24746323.3594
 99  5 20 21  8 30.0000000  0  9 30 17 26 05 06 22 23 10 24
  21923201.638    -6922173.369 9  -5323591.74749  21923202.213    21923210.3624
  22334452.950   -20992201.911 9 -15165371.02249  22334452.141    22334460.8714
  23759845.094    -7815672.474 9  -6068642.84949  23759845.002    23759858.8034
  24071101.397    16805551.771 9  13092503.39449  24071102.572    24071115.6624
  20755109.078   -22406143.920 9 -17458941.26349  20755109.017    20755115.3134
  24667258.753    -3813076.347 9  -1970470.43449  24667257.713    24667270.1424
  23767369.235    -8624003.536 9  -5830261.00349  23767368.383    23767381.5154
  22825177.867    -4494669.152 9  -3499837.57349  22825176.839    22825186.0994
  24757795.849    22662113.269 9  17646092.27249  24757796.204    24757807.0214
 99  5 20 21  9  0.0000000  0  9 30 17 26 05 06 22 23 10 24
  21935372.072    -6858218.059 9  -5273756.55349  21935372.797    21935380.7954
  22321790.071   -21058745.598 9 -15217223.17649  22321789.297    22321798.6694
  23742018.664    -7909351.052 9  -6141638.89149  23742018.892    23742032.5534
  24088636.376    16897696.580 9  13164304.10349  24088637.134    24088651.4674
  20746784.886   -22449887.909 9 -17493027.48249  20746784.860    20746791.1334
  24649876.030    -3904422.181 9  -2041648.98949  24649875.806    24649888.2364
  23745622.973    -8738279.084 9  -5919306.55349  23745621.798    23745636.8704
  22838488.432    -4424721.805 9  -3445333.19849  22838487.684    22838496.5044
  24769286.589    22722496.361 9  17693143.97149  24769287.129    24769297.5864
 99  5 20 21  9 30.0000000  0  9 30 17 26 05 06 22 23 10 24
  21947619.110    -6793859.974 9  -5223607.51449  21947619.829    21947628.0144
  22309172.099   -21125053.527 9 -15268891.61449  22309171.452    22309180.3944
  23724228.707    -8002837.315 9  -6214485.07149  23724228.398    23724242.2884
  24106187.403    16989926.326 9  13236170.99849  24106188.393    24106202.5304
  20738523.960   -22493299.253 9 -17526854.49549  20738523.839    20738530.1394
  24632566.451    -3995385.214 9  -2112529.23549  24632565.969    24632577.2314
  23723916.311    -8852346.717 9  -6008190.09049  23723915.775    23723929.2814
  22851868.764    -4354407.800 9  -3390543.11749  22851867.661    22851876.4544
  24780778.625    22782886.350 9  17740201.04549  24780779.553    24780788.7104
 99  5 20 21 10  0.0000000  0  9 30 17 26 05 06 22 23 10 24
  21959926.730    -6729183.134 9  -5173210.09549  21959927.059    21959935.9444
  22296588.625   -21191179.804 9 -15320418.51849  22296587.783    22296597.1764
  23706464.095    -8096189.729 9  -6287226.95149  23706462.518    23706477.6174
  24123744.823    17082189.988 9  13308064.32749  24123744.599    24123760.7824
  20730312.417   -22536451.383 9 -17560479.52749  20730312.283    20730318.5824
  24615313.776    -4086048.780 9  -2183176.16649  24615313.663    24615324.0964
  23702237.037    -8966272.372 9  -6096962.99349  23702235.564    23702250.5744
  22865301.538    -4283818.185 9  -3335538.27449  22865300.372    22865309.4674
  24792255.461    22843196.453 9  17787195.88049  24792256.028    24792266.5304
 99  5 20 21 10 30.0000000  0  9 30 17 26 05 06 22 23 10 24
  21972310.473    -6664106.593 9  -5122501.23149  21972310.856    21972319.3194
  22284057.149   -21257032.464 9 -15371732.20849  22284056.279    22284065.1154
  23688743.312    -8189311.474 9  -6359789.10749  23688742.685    23688756.1594
  24141326.341    17174580.634 9  13380056.60249  24141326.527    24141343.6764
  20722163.247   -22579275.442 9 -17593848.92849  20722162.965    20722169.3734
  24598135.522    -4176320.757 9  -2253517.93249  24598136.305    24598146.4064
  23680599.419    -9079977.204 9  -6185563.84149  23680598.823    23680612.6984
  22878800.428    -4212880.634 9  -3280262.30849  22878799.727    22878807.6064
  24803729.910    22903493.861 9  17834180.80949  24803730.015    24803740.2654
 99  5 20 21 11  0.0000000  0  9 30 17 26 05 06 22 23 10 24
  21984771.243    -6598624.781 9  -5071476.58349  21984771.639    21984780.5314
  22271571.376   -21322645.073 9 -15422858.84849  22271570.642    22271579.0664
  23671057.860    -8282247.654 9  -6432206.66849  23671055.619    23671070.5164
  24158929.919    17267086.964 9  13452139.01149  24158929.801    24158945.2804
  20714074.279   -22621783.017 9 -17626971.71849  20714074.175    20714080.5554
  24581028.670    -4266217.697 9  -2323567.44149  24581027.689    24581039.7064
  23659002.385    -9193470.637 9  -6273999.96349  23659000.635    23659014.8904
  22892361.338    -4141617.942 9  -3224732.99049  22892361.588    22892369.1414
  24815196.993    22963753.922 9  17881136.63749  24815197.886    24815207.9554
 99  5 20 21 11 30.0000000  0  9 30 17 26 05 06 22 23 10 24
  21997307.986    -6532744.328 9  -5020141.29749  21997308.600    21997317.3204
  22259131.737   -21388015.462 9 -15473796.74849  22259131.084    22259139.9934
  23653405.906    -8375007.459 9  -6504486.77549  23653405.998    23653418.9914
  24176549.359    17359676.201 9  13524286.03349  24176548.334    24176564.4174
  20706049.335   -22663954.431 9 -17659832.56149  20706049.150    20706055.9874
  24563993.540    -4355737.580 9  -2393323.14349  24563993.541    24564004.9874
  23637450.508    -9306724.375 9  -6362249.29949  23637448.735    23637463.5024
  22905987.048    -4070014.437 9  -3168938.10549  22905984.937    22905995.8934
  24826654.565    23023963.293 9  17928052.98949  24826654.725    24826664.3844
 99  5 20 21 12  0.0000000  0  9 30 17 26 05 06 22 23 10 24
  22009917.276    -6466482.817 9  -4968509.08549  22009918.291    22009926.6624
  22246730.550   -21453184.246 9 -15524577.54849  22246730.169    22246738.8004
  23635785.816    -8467601.377 9  -6576637.67249  23635785.366    23635797.7094
  24194175.306    17452299.440 9  13596459.52549  24194175.471    24194191.8694
  20698084.715   -22705808.782 9 -17692446.34149  20698084.714    20698090.9214
  24547028.047    -4444892.760 9  -2462794.67449  24547027.836    24547040.1564
  23615939.660    -9419762.766 9  -6450330.84049  23615938.086    23615952.5604
  22919674.425    -3998086.154 9  -3112890.14249  22919673.370    22919682.6944
  24838095.954    23084087.771 9  17974903.17249  24838096.454    24838106.5804
 99  5 20 21 12 30.0000000  0  9 30 17 26 05 06 22 23 10 24
  22022603.744    -6399815.286 9  -4916560.48749  22022604.218    22022613.1294
  22234368.664   -21518145.949 9 -15575196.97549  22234368.017    22234376.9834
  23618201.029    -8560009.436 9  -6648643.71449  23618202.119    23618213.7634
  24211806.843    17544952.804 9  13668656.51249  24211807.285    24211823.6624
  20690186.267   -22747315.488 9 -17724789.22949  20690186.292    20690192.5784
  24530137.408    -4533654.838 9  -2531959.90249  24530137.799    24530147.8624
  23594474.772    -9532559.966 9  -6538224.43949  23594474.145    23594487.2584
  22933427.017    -3925815.874 9  -3056575.68649  22933426.379    22933434.9284
  24849528.158    23144164.212 9  18021715.89649  24849528.290    24849539.3364
 99  5 20 21 13  0.0000000  0  9 30 17 26 05 06 22 23 10 24
  22035349.256    -6332837.784 9  -4864370.35549  22035349.835    22035358.3094
  22222030.964   -21582980.649 9 -15625717.44849  22222030.029    22222039.4144
  23600640.106    -8652293.193 9  -6720552.89349  23600641.086    23600652.2474
  24229427.291    17637547.576 9  13740807.83849  24229427.856    24229444.2334
  20682344.462   -22788524.571 9 -17756900.20749  20682344.291    20682350.7774
  24513309.010    -4622088.861 9  -2600869.49849  24513309.039    24513319.6164
  23573045.548    -9645169.905 9  -6625972.12449  23573044.261    23573057.7914
  22947229.754    -3853281.860 9  -3000055.72949  22947228.554    22947238.8264
  24860940.197    23204133.445 9  18068445.08949  24860940.879    24860950.9514
 99  5 20 21 13 30.0000000  0  9 30 17 26 05 06 22 23 10 24
  22048149.752    -6265570.815 9  -4811954.66849  22048150.283    22048158.3734
  22209719.014   -21647679.916 9 -15676132.39749  22209718.032    22209726.7984
  23583108.023    -8744424.691 9  -6792343.42949  23583108.654    23583120.8874
  24247035.327    17730077.514 9  13812908.62349  24247035.537    24247053.9974
  20674558.735   -22829438.437 9 -17788781.14649  20674558.741    20674565.0264
  24496545.640    -4710181.463 9  -2669513.06649  24496544.645    24496555.4724
  23551648.917    -9757608.479 9  -6713586.28949  23551647.384    23551661.3144
  22961079.493    -3780501.827 9  -2943344.07549  22961079.176    22961087.4494
  24872332.896    23264001.646 9  18115095.58449  24872332.662    24872343.7254
 99  5 20 21 14  0.0000000  0  9 30 17 26 05 06 22 23 10 24
  22061023.216    -6197920.952 9  -4759240.61649  22061023.551    22061032.1204
  22197450.094   -21712152.924 9 -15726371.04549  22197449.296    22197458.6234
  23565623.074    -8836309.079 9  -6863941.41849  23565624.158    23565635.4414
  24264652.301    17822653.501 9  13885045.28349  24264651.881    24264669.1534
  20666846.850   -22869964.860 9 -17820360.17549  20666846.940    20666853.2904
  24479865.511    -4797834.394 9  -2737813.99349  24479864.522    24479876.3474
  23530297.775    -9869807.730 9  -6801013.98049  23530297.304    23530310.4414
  22974988.116    -3707412.404 9  -2886391.33149  22974987.957    22974996.0714
  24883727.267    23323879.273 9  18161753.42249  24883726.425    24883738.3974
 99  5 20 21 14 30.0000000  0  9 30 17 26 05 06 22 23 10 24
  22073956.475    -6129956.736 9  -4706281.61049  22073956.958    22073965.4794
  22185216.883   -21776438.783 9 -15776463.85049  22185216.144    22185225.1114
  23548171.660    -8928016.623 9  -6935401.63049  23548170.960    23548184.1264
  24282269.667    17915232.437 9  13957184.26649  24282270.264    24282286.4834
  20659200.394   -22910147.393 9 -17851671.23449  20659200.523    20659206.8204
  24463254.934    -4885121.456 9  -2805829.84349  24463254.311    24463266.7374
  23508982.625    -9981818.739 9  -6888294.95949  23508981.671    23508995.1644
  22988943.029    -3634079.253 9  -2829248.66449  22988942.516    22988950.9524
  24895112.759    23383710.551 9  18208375.13049  24895113.651    24895122.9174
 99  5 20 21 15  0.0000000  0  8 30 17 26 05 06 22 23 10
  22086960.732    -6061618.889 9  -4653031.47849  22086961.385    22086970.3784
  22173029.216   -21840486.246 9 -15826370.90249  22173028.712    22173037.2834
  23530763.521    -9019495.513 9  -7006683.65349  23530763.152    23530776.2704
  24299899.132    18007876.092 9  14029373.68449  24299898.151    24299917.1924
  20651629.164   -22949934.558 9 -17882674.22549  20651629.175    20651635.5014
  24446724.344    -4971990.204 9  -2873519.77449  24446724.355    24446735.6384
  23487711.578   -10093597.192 9  -6975394.72349  23487710.556    23487724.1754
  23002956.266    -3560439.601 9  -2771867.19049  23002956.375    23002964.2424
 99  5 20 21 15 30.0000000  0  8 30 17 26 05 06 22 23 10
  22100025.503    -5992963.675 9  -4599534.03949  22100026.040    22100034.8404
  22160873.153   -21904366.832 9 -15876147.92249  22160872.667    22160881.0584
  23513386.167    -9110812.197 9  -7077839.32349  23513385.922    23513399.6114
  24317528.726    18100520.372 9  14101563.57249  24317530.084    24317546.3744
  20644116.665   -22989413.149 9 -17913436.76549  20644116.466    20644123.0644
  24430257.482    -5058525.260 9  -2940949.64449  24430256.905    24430268.0524
  23466470.277   -10205219.953 9  -7062373.18449  23466469.151    23466482.3504
  23017016.295    -3486554.332 9  -2714294.31449  23017015.532    23017024.3764
 99  5 20 21 16  0.0000000  0  8 30 17 26 05 06 22 23 10
  22113158.271    -5923951.095 9  -4545758.13449  22113158.959    22113167.5904
  22148755.248   -21968046.150 9 -15925768.11149  22148754.366    22148763.4824
  23496047.471    -9201925.882 9  -7148836.79449  23496046.675    23496059.0214
  24335165.900    18193204.621 9  14173784.59149  24335166.635    24335185.6234
  20636671.758   -23028536.387 9 -17943922.41449  20636671.749    20636678.1054
  24413858.276    -5144702.520 9  -3008100.70049  24413857.208    24413869.8674
  23445268.548   -10316634.811 9  -7149189.63449  23445267.199    23445282.3284
  23031133.245    -3412369.456 9  -2656487.97449  23031132.309    23031142.1954
 99  5 20 21 16 30.0000000  0  8 30 17 26 05 06 22 23 10
  22126358.271    -5854585.294 9  -4491706.99749  22126358.851    22126367.6914
  22136674.755   -22031528.519 9 -15975234.82649  22136673.840    22136682.4214
  23478751.324    -9292816.591 9  -7219660.49749  23478750.389    23478762.0534
  24352805.851    18285902.657 9  14246016.34249  24352806.573    24352825.4314
  20629293.495   -23067309.198 9 -17974134.99249  20629293.527    20629299.7954
  24397527.951    -5230520.577 9  -3074971.88849  24397528.862    24397539.1804
  23424109.880   -10427822.466 9  -7235829.07249  23424108.627    23424121.5034
  23045311.027    -3337865.018 9  -2598432.62749  23045310.034    23045318.2784
 99  5 20 21 17  0.0000000  0  8 30 17 26 05 06 22 23 10
  22139630.085    -5784842.810 9  -4437362.33849  22139630.813    22139639.1134
  22124637.663   -22094783.665 9 -16024524.49449  22124636.933    22124645.2554
  23461507.820    -9383430.893 9  -7290268.80349  23461506.957    23461517.7784
  24370451.232    18378629.253 9  14318270.39449  24370452.327    24370471.3344
  20621984.566   -23105717.805 9 -18004063.78249  20621984.647    20621990.9484
  24381275.297    -5315930.629 9  -3141525.13749  24381276.124    24381286.6124
  23402998.962   -10538759.849 9  -7322273.48049  23402998.171    23403009.8724
  23059553.742    -3263018.849 9  -2540111.00249  23059552.244    23059561.8324
 99  5 20 21 17 30.0000000  0  8 30 17 26 05 06 22 23 10
  22152966.110    -5714762.413 9  -4382754.37249  22152966.540    22152975.7004
  22112640.890   -22157827.032 9 -16073649.12549  22112640.528    22112648.3714
  23444312.447    -9473792.212 9  -7360679.99149  23444311.431    23444322.2074
  24388096.091    18471352.120 9  14390521.52349  24388096.402    24388116.8064
  20614741.808   -23143778.834 9 -18033721.72349  20614741.841    20614748.0564
  24365096.888    -5400949.656 9  -3207773.68349  24365096.655    24365107.1934
  23381932.482   -10649464.155 9  -7408536.27949  23381931.755    23381943.5764
  23073852.141    -3187880.405 9  -2481561.62549  23073851.595    23073859.5704
 99  5 20 21 18  0.0000000  0  8 30 17 26 05 06 22 23 10
  22166369.696    -5644326.527 9  -4327869.40249  22166370.141    22166379.3814
  22100689.917   -22220630.096 9 -16122586.52649  22100689.301    22100697.3614
  23427166.868    -9563892.197 9  -7430887.54649  23427167.200    23427177.9394
  24405741.918    18564080.888 9  14462777.23449  24405741.797    24405762.1434
  20607572.041   -23181456.381 9 -18063080.85649  20607571.705    20607578.1744
  24349000.475    -5485536.746 9  -3273685.63849  24348999.149    24349010.9424
  23360913.838   -10759917.333 9  -7494603.40449  23360911.717    23360924.8144
  23088207.671    -3112441.201 9  -2422777.89949  23088207.517    23088217.0184
 99  5 20 21 18 30.0000000  0  8 30 17 26 05 06 22 23 10
  22179838.512    -5573547.793 9  -4272717.29249  22179838.557    22179848.4734
  22088781.133   -22283210.938 9 -16171350.76949  22088780.555    22088788.7644
  23410067.729    -9653748.822 9  -7500905.49349  23410066.828    23410077.8514
  24423384.653    18656793.432 9  14535020.31749  24423386.711    24423405.4704
  20600470.558   -23218774.643 9 -18092160.02149  20600470.581    20600476.8604
  24332986.749    -5569687.952 9  -3339257.93249  24332985.854    24332997.3164
  23339938.841   -10870140.036 9  -7580490.93049  23339937.547    23339949.7844
  23102615.386    -3036728.559 9  -2363781.10949  23102615.032    23102623.0614
 99  5 20 21 19  0.0000000  0  8 30 17 26 05 06 22 23 10
  22193367.816    -5502450.588 9  -4217317.01949  22193368.011    22193377.5084
  22076911.336   -22345586.690 9 -16219955.18149  22076910.123    22076918.7784
  23393007.655    -9743399.265 9  -7570762.75549  23393006.838    23393018.7474
  24441024.576    18749490.108 9  14607251.00249  24441026.529    24441045.2394
  20593435.232   -23255745.598 9 -18120968.55449  20593435.231    20593441.6314
  24317052.224    -5653425.936 9  -3404508.27149  24317052.785    24317061.4744
  23319002.584   -10980159.786 9  -7666220.33749  23319001.091    23319013.9234
  23117066.921    -2960785.036 9  -2304604.40049  23117066.948    23117075.5494
 99  5 20 21 19 30.0000000  0  8 30 17 26 05 06 22 23 10
  22206970.903    -5430966.212 9  -4161615.06649  22206971.903    22206980.6644
  22065089.338   -22407710.981 9 -16268363.66049  22065088.737    22065097.2594
  23375997.378    -9832787.581 9  -7640415.77049  23375995.925    23376008.9174
  24458673.778    18842235.293 9  14679519.51549  24458675.221    24458694.8044
  20586478.251   -23292304.904 9 -18149456.32849  20586478.188    20586484.6034
  24301205.414    -5736702.986 9  -3469399.42149  24301205.995    24301214.1434
  23298119.845   -11089898.171 9  -7751730.48049  23298118.448    23298130.5724
  23131577.072    -2884533.572 9  -2245187.74349  23131576.213    23131585.2954
 99  5 20 21 20  0.0000000  0  8 30 17 26 05 06 22 23 10
  22220637.966    -5359145.895 9  -4105651.33749  22220638.422    22220647.4174
  22053305.122   -22469637.225 9 -16316617.82349  22053304.825    22053313.1664
  23359029.755    -9921950.406 9  -7709893.08149  23359029.321    23359042.0734
  24476323.266    18934981.288 9  14751788.64149  24476325.233    24476343.3004
  20579587.971   -23328513.613 9 -18177670.90549  20579587.908    20579594.2554
  24285435.343    -5819575.634 9  -3533975.43349  24285435.053    24285444.3814
  23277281.099   -11199405.227 9  -7837060.38749  23277279.665    23277292.4044
  23146141.517    -2807997.516 9  -2185549.32249  23146141.180    23146150.3724
 99  5 20 21 20 30.0000000  0  8 30 17 26 05 06 22 23 10
  22234365.431    -5287008.407 9  -4049440.46749  22234365.859    22234374.9024
  22041555.466   -22531382.266 9 -16364730.79049  22041555.269    22041563.4864
  23342106.773   -10010880.031 9  -7779188.69049  23342106.036    23342119.3744
  24493973.412    19027730.645 9  14824060.37449  24493975.184    24493994.0264
  20572762.257   -23364383.338 9 -18205621.34349  20572762.203    20572768.4494
  24269737.583    -5902069.109 9  -3598256.01049  24269737.440    24269746.0944
  23256487.612   -11308674.409 9  -7922204.94649  23256486.539    23256498.8584
  23160758.065    -2731186.766 9  -2125696.86649  23160757.861    23160767.0004
 99  5 20 21 21  0.0000000  0  8 30 17 26 05 06 22 23 10
  22248163.157    -5214500.952 9  -3992941.31449  22248164.466    22248173.1754
  22029854.586   -22592871.392 9 -16412644.33149  22029853.890    22029862.1954
  23325243.044   -10099498.632 9  -7848241.92249  23325243.010    23325255.4114
  24511638.415    19120558.027 9  14896392.93649  24511640.185    24511658.8644
  20566016.751   -23399830.992 9 -18233242.88549  20566016.573    20566022.9444
  24254122.483    -5984127.303 9  -3662197.42049  24254123.020    24254130.6844
  23235755.144   -11417623.326 9  -8007099.94649  23235754.632    23235766.3254
  23175439.388    -2654036.442 9  -2065579.79549  23175439.507    23175448.2734
 99  5 20 21 21 30.0000000  0  8 30 17 26 05 06 22 23 10
  22262015.143    -5141709.303 9  -3936220.70049  22262015.897    22262024.8194
  22018187.567   -22654181.721 9 -16460418.55349  22018187.106    22018194.8714
  23308426.059   -10187871.962 9  -7917104.04149  23308425.823    23308437.5984
  24529302.089    19213377.569 9  14968719.38949  24529302.847    24529321.9804
  20559336.346   -23434936.508 9 -18260597.83049  20559335.998    20559342.5574
  24238576.883    -6065820.603 9  -3725854.50349  24238576.653    24238585.8794
  23215071.065   -11526318.222 9  -8091797.02149  23215069.702    23215082.3554
  23190170.801    -2576622.354 9  -2005257.20449  23190170.589    23190178.7414
 99  5 20 21 22  0.0000000  0  8 30 17 26 05 06 22 23 10
  22275913.242    -5068675.384 9  -3879311.30149  22275913.946    22275923.3144
  22006550.172   -22715336.578 9 -16508071.62649  22006549.523    22006557.2964
  23291649.975   -10276030.036 9  -7985798.41849  23291649.886    23291661.7204
  24546957.880    19306156.268 9  15041014.02749  24546959.124    24546977.0414
  20552718.871   -23469711.587 9 -18287695.28949  20552718.919    20552725.2204
  24223097.934    -6147162.962 9  -3789238.11349  24223096.569    24223106.8854
  23194426.626   -11634804.509 9  -8176331.55249  23194425.363    23194437.1414
  23204941.440    -2499003.288 9  -1944774.87349  23204940.914    23204949.9044
 99  5 20 21 22 30.0000000  0  8 30 17 26 05 06 22 23 10
  22289867.716    -4995344.922 9  -3822170.84249  22289868.205    22289877.6194
  21994954.563   -22776271.731 9 -16555553.49949  21994953.820    21994961.6234
  23274925.912   -10363915.325 9  -8054280.24049  23274925.784    23274936.7334
  24564616.312    19398948.780 9  15113319.43649  24564617.409    24564636.2114
  20546177.829   -23504085.534 9 -18314480.18349  20546177.717    20546183.9664
  24207699.960    -6228080.177 9  -3852290.43849  24207697.730    24207708.9004
  23173834.176   -11743017.371 9  -8260653.03549  23173833.159    23173844.0434
  23219758.154    -2421142.147 9  -1884103.93149  23219758.336    23219767.3844
 99  5 20 21 23  0.0000000  0  8 30 17 26 05 06 22 23 10
  22303883.582    -4921691.949 9  -3764779.07249  22303883.892    22303893.0544
  21983405.606   -22836961.940 9 -16602844.50549  21983405.035    21983413.0334
  23258255.877   -10451516.760 9  -8122540.87649  23258255.645    23258267.2234
  24582278.268    19491759.286 9  15185638.84449  24582280.431    24582296.7374
  20539717.008   -23538037.290 9 -18340936.09749  20539716.980    20539723.2164
  24192389.466    -6308537.415 9  -3914984.34349  24192388.318    24192396.7554
  23153296.880   -11850940.342 9  -8344748.62349  23153295.817    23153307.7014
  23234624.745    -2343018.238 9  -1823228.22249  23234624.444    23234633.8424
 99  5 20 21 23 30.0000000  0  8 30 17 26 05 06 22 23 10
  22317948.307    -4847781.546 9  -3707186.70849  22317948.776    22317958.5884
  21971887.903   -22897487.984 9 -16650007.58149  21971887.069    21971895.4944
  23241626.014   -10538907.248 9  -8190637.13749  23241626.367    23241636.4044
  24599927.698    19584504.318 9  15257907.25349  24599929.363    24599946.2424
  20533321.057   -23571648.411 9 -18367126.57649  20533320.848    20533327.0554
  24177155.036    -6388593.906 9  -3977365.96049  24177154.574    24177163.3324
  23132798.845   -11958657.402 9  -8428683.76749  23132797.957    23132809.3804
  23249529.363    -2264694.300 9  -1762196.64349  23249528.267    23249537.6984
 99  5 20 21 24  0.0000000  0  8 30 17 26 05 06 22 23 10
  22332066.144    -4773592.092 9  -3649376.91049  22332066.602    22332075.8754
  21960405.374   -22957829.049 9 -16697026.52549  21960404.478    21960412.3884
  23225041.515   -10626059.624 9  -8258547.86149  23225041.788    23225051.4094
  24617567.100    19677197.451 9  15330135.21849  24617568.282    24617585.4174
  20526994.358   -23604895.516 9 -18393033.40549  20526994.088    20527000.5814
  24162001.585    -6468225.468 9  -4039416.47549  24162001.325    24162010.6624
  23112342.838   -12066153.641 9  -8512446.86349  23112342.128    23112353.4654
  23264478.858    -2186134.200 9  -1700981.05949  23264477.657    23264486.9484
 99  5 20 21 24 30.0000000  0  8 30 17 26 05 06 22 23 10
  22346237.038    -4699124.240 9  -3591350.16749  22346237.941    22346246.9394
  21948956.050   -23017994.960 9 -16743908.99149  21948954.745    21948963.3034
  23208502.392   -10712972.847 9  -8326272.23449  23208502.088    23208512.9254
  24635194.391    19769826.612 9  15402313.35849  24635195.599    24635213.3014
  20520732.811   -23637799.918 9 -18418673.19849  20520732.742    20520738.8714
  24146925.333    -6547451.072 9  -4101150.65649  24146922.813    24146935.4234
  23091933.152   -12173406.939 9  -8596020.64249  23091931.868    23091944.2194
  23279474.873    -2107330.859 9  -1639575.95049  23279475.135    23279482.6754
 99  5 20 21 25  0.0000000  0  8 30 17 26 05 06 22 23 10
  22360460.383    -4624380.861 9  -3533108.74849  22360461.025    22360470.6374
  21937537.536   -23077998.688 9 -16790665.07849  21937536.819    21937544.7224
  23192009.186   -10799644.552 9  -8393808.41849  23192008.976    23192019.4994
  24652807.799    19862383.063 9  15474434.86049  24652809.695    24652825.5234
  20514534.960   -23670369.794 9 -18444052.32649  20514534.983    20514541.1984
  24131926.488    -6626267.534 9  -4162566.00149  24131924.107    24131935.7764
  23071569.467   -12280418.411 9  -8679405.99449  23071568.705    23071580.5094
  23294517.452    -2028282.190 9  -1577979.65849  23294516.892    23294525.1954
 99  5 20 21 25 30.0000000  0  8 30 17 26 05 06 22 23 10
  22374739.608    -4549343.584 9  -3474638.29449  22374740.679    22374749.6044
  21926154.885   -23137814.574 9 -16837274.80149  21926154.029    21926162.5564
  23175569.800   -10886032.492 9  -8461123.46649  23175569.257    23175579.6024
  24670413.310    19954898.416 9  15546524.32149  24670415.247    24670430.8964
  20508406.078   -23702577.255 9 -18469149.05249  20508405.936    20508412.3304
  24117011.150    -6704646.657 9  -4223640.58749  24117010.811    24117020.6504
  23051255.656   -12387167.381 9  -8762586.79349  23051254.978    23051266.2864
  23309609.552    -1948973.008 9  -1516180.35349  23309608.414    23309617.6194
 99  5 20 21 26  0.0000000  0  8 30 17 26 05 06 22 23 10
  22389081.302    -4473977.642 9  -3415911.75749  22389081.701    22389091.0264
  21914815.811   -23197401.646 9 -16883706.23149  21914815.459    21914823.3084
  23159192.748   -10972093.180 9  -8528183.54249  23159191.955    23159202.6874
  24688018.328    20047411.205 9  15618611.82749  24688020.349    24688035.1034
  20502355.225   -23734374.464 9 -18493926.09849  20502354.955    20502361.4134
  24102187.953    -6782543.893 9  -4284339.69849  24102186.733    24102197.4504
  23031002.506   -12493597.277 9  -8845518.97049  23031002.079    23031013.4264
  23324754.935    -1869383.941 9  -1454162.97549  23324754.439    23324762.9244
 99  5 20 21 26 30.0000000  0  8 30 17 26 05 06 22 23 10
  22403486.807    -4398277.012 9  -3356924.43449  22403487.538    22403497.1634
  21903520.372   -23256759.293 9 -16929958.89149  21903519.639    21903528.1544
  23142877.723   -11057827.662 9  -8594989.44149  23142876.770    23142888.6304
  24705623.008    20139922.556 9  15690698.17149  24705624.462    24705640.2454
  20496383.229   -23765757.707 9 -18518380.57449  20496383.269    20496389.6124
  24087457.069    -6859954.831 9  -4344659.87549  24087456.941    24087467.2484
  23010809.940   -12599708.563 9  -8928202.86249  23010808.958    23010821.7434
  23339949.197    -1789537.301 9  -1391944.88749  23339948.370    23339957.4374
 99  5 20 21 27  0.0000000  0  8 30 17 26 05 06 22 23 10
  22417960.285    -4322219.657 9  -3297659.13449  22417960.949    22417970.8504
  21892275.326   -23315851.887 9 -16976005.01849  21892274.784    21892282.9614
  23126632.182   -11143197.463 9  -8661511.15149  23126631.946    23126642.8114
  24723235.058    20232472.220 9  15762814.37449  24723236.520    24723252.1994
  20490498.363   -23796682.680 9 -18542477.95449  20490498.283    20490504.7334
  24072826.190    -6936840.857 9  -4404571.02649  24072824.370    24072835.3544
  22990678.651   -12705498.007 9  -9010635.98049  22990677.505    22990689.9504
  23355196.122    -1709414.564 9  -1329511.66749  23355195.635    23355204.6414
 99  5 20 21 27 30.0000000  0  8 30 17 26 05 06 22 23 10
  22432502.206    -4245802.161 9  -3238113.20949  22432502.771    22432512.3684
  21881080.233   -23374682.016 9 -17021846.63949  21881079.484    21881088.0254
  23110456.202   -11228202.682 9  -8727748.79749  23110455.624    23110466.5304
  24740855.502    20325065.562 9  15834964.65449  24740855.922    24740873.1024
  20484701.048   -23827147.782 9 -18566216.99449  20484700.807    20484707.3814
  24058290.594    -7013224.975 9  -4464091.09349  24058289.323    24058299.9484
  22970607.943   -12810969.547 9  -9092821.39049  22970608.169    22970618.5854
  23370493.305    -1629027.792 9  -1266872.70049  23370492.964    23370502.6834
 99  5 20 21 28  0.0000000  0  8 30 17 26 05 06 22 23 10
  22447118.818    -4168992.386 9  -3178261.61749  22447119.213    22447129.4214
  21869941.066   -23433218.775 9 -17067459.66549  21869940.455    21869948.6744
  23094356.885   -11312804.705 9  -8793672.26349  23094356.380    23094367.1484
  24758489.011    20417727.385 9  15907168.29149  24758493.072    24758506.8884
  20478997.610   -23857119.514 9 -18589571.59749  20478997.435    20479003.9094
  24043856.102    -7089078.961 9  -4523198.04449  24043855.036    24043865.4614
  22950605.836   -12916081.154 9  -9174726.33049  22950604.307    22950616.6474
  23385848.087    -1548337.657 9  -1203997.34349  23385847.195    23385856.5034
 99  5 20 21 28 30.0000000  0  8 30 17 26 05 06 22 23 10
  22461796.398    -4091862.296 9  -3118160.42849  22461797.111    22461807.2494
  21858845.793   -23491525.142 9 -17112893.16349  21858845.436    21858852.9184
  23078320.996   -11397072.975 9  -8859335.65149  23078319.582    23078331.0304
  24776122.029    20510387.206 9  15979370.37949  24776122.907    24776138.4634
  20473376.240   -23886659.973 9 -18612590.12849  20473376.237    20473382.5994
  24029507.663    -7164481.384 9  -4581953.14549  24029507.268    24029516.6284
  22930658.141   -13020905.828 9  -9256407.68649  22930656.537    22930668.4094
  23401249.626    -1467402.449 9  -1140931.02549  23401249.422    23401257.8024
 99  5 20 21 29  0.0000000  0  8 30 17 26 05 06 22 23 10
  22476538.527    -4014392.623 9  -3057794.64249  22476539.585    22476548.6154
  21847801.974   -23549560.887 9 -17158115.78949  21847801.142    21847809.2664
  23062355.547   -11480971.305 9  -8924710.81349  23062355.304    23062366.0274
  24793761.630    20603080.468 9  16051598.54749  24793765.453    24793776.7134
  20467844.648   -23915728.780 9 -18635241.14149  20467844.706    20467850.5124
  24015250.261    -7239405.232 9  -4640335.32349  24015248.689    24015259.8874
  22910775.466   -13125388.656 9  -9337822.66149  22910774.661    22910785.8334
  23416706.491    -1386176.991 9  -1077638.52549  23416706.931    23416715.4734
 99  5 20 21 29 30.0000000  0  8 30 17 26 05 06 22 23 10
  22491341.801    -3936601.209 9  -2997178.14949  22491342.378    22491351.9594
  21836809.869   -23607324.801 9 -17203126.59849  21836809.311    21836817.6294
  23046456.807   -11564519.345 9  -8989813.00349  23046456.230    23046467.4064
  24811400.809    20695772.265 9  16123825.54249  24811401.224    24811419.8104
  20462400.290   -23944339.304 9 -18657535.05649  20462400.205    20462406.4954
  24001082.406    -7313856.325 9  -4698349.09649  24001080.348    24001091.9704
  22890959.457   -13229521.882 9  -9418965.21249  22890958.349    22890970.3044
  23432218.884    -1304658.876 9  -1014117.99749  23432217.893    23432226.9354
 99  5 20 21 30  0.0000000  0  8 30 17 26 05 06 22 23 10
  22506189.905    -3858574.757 9  -2936378.50649  22506190.379    22506200.7454
  21825858.984   -23664871.889 9 -17247968.45149  21825858.073    21825866.5164
  23030610.510   -11647790.988 9  -9054699.82749  23030609.381    23030620.7504
  24829023.915    20788379.982 9  16195987.05249  24829023.325    24829038.9534
  20457031.792   -23972551.076 9 -18679518.25349  20457031.762    20457037.8594
  23986994.471    -7387888.805 9  -4756036.70549  23986994.030    23987003.5574
  22871198.054   -13333367.521 9  -9499883.66649  22871197.649    22871208.7364
  23447775.816    -1222906.867 9   -950415.20149  23447775.533    23447783.6164
 99  5 20 21 30 30.0000000  0  7 30 17 26 06 22 23 10
  22521086.667    -3780292.555 9  -2875379.57549  22521087.216    22521096.8344
  21814956.910   -23722162.198 9 -17292610.22749  21814956.000    21814964.1614
  23014821.675   -11730760.747 9  -9119351.42649  23014821.800    23014832.3784
  20451744.381   -24000336.634 9 -18701169.33949  20451744.322    20451750.5344
  23972994.225    -7461461.431 9  -4813365.97649  23972994.201    23973002.6154
  22851497.288   -13436894.530 9  -9580553.84249  22851495.589    22851507.9104
  23463382.351    -1140894.610 9   -886509.61849  23463381.439    23463390.4834
 99  5 20 21 31  0.0000000  0  7 30 17 26 06 22 23 10
  22536042.076    -3701701.911 9  -2814140.31349  22536043.232    22536052.5384
  21804113.497   -23779144.326 9 -17337011.85749  21804113.107    21804121.1344
  22999102.339   -11813365.348 9  -9183718.50249  22999102.213    22999113.4594
  20446545.474   -24027657.463 9 -18722458.29949  20446545.561    20446551.9474
  23959092.459    -7534515.207 9  -4870290.95749  23959091.416    23959100.7154
  22831866.548   -13540053.963 9  -9660937.58949  22831866.078    22831876.6344
  23479045.604    -1058583.648 9   -822371.27049  23479044.666    23479054.1034
 99  5 20 21 31 30.0000000  0  7 30 17 26 06 22 23 10
  22551056.046    -3622803.288 9  -2752661.06249  22551056.419    22551066.7654
  21793322.762   -23835849.834 9 -17381197.93449  21793322.227    21793330.1994
  22983451.173   -11895612.552 9  -9247807.08449  22983451.428    22983461.5834
  20441431.888   -24054529.488 9 -18743397.54649  20441432.061    20441438.1944
  23945287.197    -7607061.026 9  -4926820.11549  23945285.943    23945297.2104
  22812300.035   -13642876.189 9  -9741058.58349  22812299.314    22812310.3824
  23494759.794     -976005.365 9   -758024.62749  23494759.936    23494768.3584
 99  5 20 21 32  0.0000000  0  7 30 17 26 06 22 23 10
  22566102.590    -3543734.087 9  -2691048.89749  22566102.942    22566113.7264
  21782552.767   -23892446.627 9 -17425299.28849  21782552.333    21782560.2864
  22967845.968   -11977617.815 9  -9311707.11449  22967845.192    22967855.4864
  20436377.761   -24081089.338 9 -18764093.52749  20436377.530    20436383.9314
  23931552.271    -7679237.992 9  -4983061.87649  23931552.211    23931561.9434
  22792770.417   -13745503.381 9  -9821027.59349  22792768.705    22792780.6824
  23510496.864     -893307.154 9   -693584.50549  23510497.781    23510505.4224
 99  5 20 21 32 30.0000000  0  7 30 17 26 06 22 23 10
  22581190.703    -3464446.141 9  -2629266.29349  22581191.586    22581201.6144
  21771807.882   -23948911.670 9 -17469297.98849  21771807.381    21771815.2404
  22952297.105   -12059327.243 9  -9375376.64949  22952296.516    22952306.2104
  20431389.584   -24107302.365 9 -18784519.26949  20431389.433    20431395.4334
  23917895.871    -7751003.793 9  -5038983.24649  23917895.436    23917905.6634
  22773286.142   -13847892.661 9  -9900811.23849  22773285.343    22773297.2324
  23526263.120     -810455.345 9   -629024.72049  23526262.308    23526271.2364
 99  5 20 21 33  0.0000000  0  7 30 17 26 06 22 23 10
  22596316.992    -3384958.134 9  -2567327.80749  22596317.405    22596327.6344
  21761079.794   -24005287.942 9 -17513227.50149  21761079.608    21761087.2814
  22936799.139   -12140768.615 9  -9438837.30049  22936798.565    22936808.5744
  20426465.850   -24133176.530 9 -18804680.95649  20426465.612    20426472.0304
  23904310.859    -7822394.595 9  -5094612.40749  23904310.370    23904319.4814
  22753840.318   -13950080.164 9  -9980437.64449  22753839.395    22753850.9844
  23542051.918     -727484.670 9   -564372.29249  23542051.087    23542061.4484
 99  5 20 21 33 30.0000000  0  7 30 17 26 06 22 23 10
  22611508.271    -3305127.976 9  -2505122.71149  22611509.028    22611519.4314
  21750397.075   -24061426.519 9 -17556971.80249  21750396.594    21750404.2004
  22921382.742   -12221781.285 9  -9501963.90449  22921382.247    22921392.8134
  20421637.014   -24158552.076 9 -18824454.11549  20421636.855    20421643.2194
  23890829.366    -7893240.631 9  -5149817.07749  23890828.494    23890838.5184
  22734463.099   -14051907.756 9 -10059783.60649  22734461.979    22734473.2004
  23557896.189     -644222.927 9   -499493.08449  23557895.838    23557905.0464
 99  5 20 21 34  0.0000000  0  7 30 17 26 06 22 23 10
  22626759.296    -3224983.961 9  -2442673.05349  22626759.950    22626769.9274
  21739760.409   -24117322.736 9 -17600527.24349  21739759.478    21739767.4834
  22906045.806   -12302376.661 9  -9564765.34649  22906045.345    22906055.3414
  20416900.083   -24183444.720 9 -18843850.99049  20416899.924    20416906.3424
  23877452.106    -7963536.936 9  -5204593.38949  23877450.975    23877460.2484
  22715153.639   -14153379.339 9 -10138852.15449  22715153.127    22715163.0464
  23573794.932     -560674.037 9   -434390.11349  23573794.102    23573803.1334
 99  5 20 21 34 30.0000000  0  7 30 17 26 06 22 23 10
  22642064.869    -3144553.578 9  -2380000.25549  22642065.404    22642075.9874
  21729167.527   -24172988.138 9 -17643902.82849  21729166.611    21729174.5484
  22890778.669   -12382605.315 9  -9627281.03249  22890778.474    22890789.3814
  20412250.231   -24207879.880 9 -18862891.38749  20412250.353    20412256.4144
  23864173.189    -8033317.660 9  -5258967.95449  23864172.327    23864183.1544
  22695906.896   -14254520.658 9 -10217663.35249  22695905.582    22695917.2234
  23589739.601     -476883.906 9   -369099.16649  23589738.684    23589748.1124
 99  5 20 21 35  0.0000000  0  7 30 17 26 06 22 23 10
  22657418.475    -3063870.661 9  -2317130.67149  22657419.095    22657429.5204
  21718614.597   -24228443.518 9 -17687114.76449  21718613.377    21718621.8104
  22875576.869   -12462490.402 9  -9689529.00449  22875576.088    22875587.4014
  20407682.866   -24231881.687 9 -18881594.10049  20407682.925    20407689.1584
  23850988.365    -8102604.419 9  -5312957.60549  23850987.485    23850997.2144
  22676719.053   -14355352.186 9 -10296233.15549  22676718.235    22676729.5964
  23605723.574     -392886.931 9   -303647.04649  23605722.538    23605732.5804
 99  5 20 21 35 30.0000000  0  7 30 17 26 06 22 23 10
  22672822.723    -2982921.253 9  -2254053.43749  22672823.211    22672833.9054
  21708108.697   -24283651.859 9 -17730134.19949  21708107.810    21708115.5764
  22860447.711   -12541994.155 9  -9751479.84049  22860447.362    22860457.2634
  20403200.462   -24255436.911 9 -18899948.82149  20403200.458    20403206.7354
  23837902.857    -8171368.503 9  -5366539.97449  23837901.664    23837911.1114
  22657600.118   -14455821.460 9 -10374520.69649  22657599.210    22657610.0934
  23621752.442     -308654.498 9   -238011.43449  23621752.021    23621761.4184
 99  5 20 21 36  0.0000000  0  7 30 17 26 06 22 23 10
  22688258.553    -2901806.845 9  -2190847.64349  22688259.555    22688270.0294
  21697631.094   -24338712.293 9 -17773038.38049  21697630.693    21697638.4114
  22845370.918   -12621223.253 9  -9813216.64049  22845371.698    22845380.6374
  20398785.464   -24278638.163 9 -18918027.72949  20398785.475    20398791.3914
  23824893.022    -8239734.094 9  -5419811.82049  23824891.781    23824902.7284
  22638532.640   -14556020.997 9 -10452598.05849  22638531.811    22638542.4894
  23637803.817     -224304.391 9   -172284.14749  23637802.999    23637812.4594
 99  5 20 21 36 30.0000000  0  7 30 17 26 06 22 23 10
  22703724.973    -2820531.357 9  -2127516.31949  22703726.567    22703735.7004
  21687179.616   -24393635.841 9 -17815835.89249  21687178.938    21687186.6494
  22830349.044   -12700163.684 9  -9874728.49349  22830348.289    22830358.7484
  20394437.751   -24301485.591 9 -18935830.92649  20394437.735    20394444.0324
  23811956.270    -8307716.669 9  -5472785.23549  23811956.635    23811966.7464
  22619516.409   -14655951.603 9 -10530465.86449  22619515.795    22619525.3044
  23653875.214     -139848.273 9   -106474.25349  23653875.233    23653884.2144
 99  5 20 21 37  0.0000000  0  7 30 17 26 06 22 23 10
  22719226.900    -2739069.393 9  -2064039.69549  22719227.816    22719237.8684
  21676760.672   -24448387.255 9 -17858499.27649  21676759.592    21676767.7244
  22815392.659   -12778759.882 9  -9935972.11349  22815391.913    22815401.9934
  20390162.059   -24323954.779 9 -18953339.38949  20390161.945    20390168.3134
  23799100.960    -8375272.443 9  -5525426.05449  23799100.366    23799111.5924
  22600557.778   -14755579.388 9 -10608097.69849  22600556.620    22600566.9914
  23669974.917      -55244.002 9    -40548.91049  23669973.908    23669983.2104
 99  5 20 21 37 30.0000000  0  7 30 17 26 06 22 23 10
  22734759.750    -2657445.153 9  -2000436.63349  22734760.543    22734771.3754
  21666371.300   -24502983.177 9 -17901041.51049  21666370.824    21666378.6824
  22800496.591   -12857038.072 9  -9996967.92049  22800495.735    22800506.4604
  20385953.590   -24346070.459 9 -18970572.39449  20385953.458    20385959.8414
  23786319.093    -8442441.974 9  -5577765.90749  23786318.564    23786329.2384
  22581649.737   -14854940.844 9 -10685521.99449  22581648.530    22581659.6844
  23686097.993       29482.916 9     25471.98749  23686096.447    23686105.6154
 99  5 20 21 38  0.0000000  0  7 30 17 26 06 22 23 10
  22750324.776    -2575651.229 9  -1936701.33049  22750326.007    22750335.5734
  21656011.229   -24557425.591 9 -17943464.12849  21656011.075    21656018.1054
  22785662.511   -12934989.998 9 -10057709.52549  22785662.454    22785673.2064
  20381814.536   -24367821.631 9 -18987521.37149  20381814.463    20381820.7774
  23773613.554    -8509211.017 9  -5629793.69749  23773613.150    23773623.5174
  22562790.528   -14954045.729 9 -10762746.37849  22562789.636    22562800.4784
  23702243.522      114329.135 9     91585.86749  23702242.369    23702252.8074
 99  5 20 21 38 30.0000000  0  7 30 17 26 06 22 23 10
  22765928.075    -2493656.345 9  -1872809.44849  22765928.406    22765939.3524
  21645685.274   -24611689.242 9 -17985747.44249  21645684.724    21645691.9934
  22770896.012   -13012587.060 9 -10118174.59849  22770895.247    22770905.4504
  20377749.653   -24389182.788 9 -19004166.43649  20377749.518    20377755.4744
  23760993.462    -8575531.291 9  -5681471.78649  23760992.457    23761002.7754
  22543984.293   -15052872.402 9 -10839753.97249  22543982.666    22543994.7564
  23718416.309      199317.054 9    157810.15949  23718415.573    23718425.5964
 99  5 20 21 39  0.0000000  0  7 30 17 26 06 22 23 10
  22781554.029    -2411542.066 9  -1808824.55249  22781554.488    22781565.0054
  21635376.843   -24665860.470 9 -18027958.74549  21635375.851    21635383.5044
  22756178.674   -13089926.194 9 -10178438.68549  22756178.825    22756188.5504
  20373744.210   -24410231.455 9 -19020567.99549  20373743.901    20373750.1644
  23748444.002    -8641479.838 9  -5732860.24749  23748443.924    23748452.4974
  22525214.765   -15151506.128 9 -10916611.21149  22525213.739    22525224.5474
  23734601.370      284370.095 9    224085.18849  23734600.168    23734610.6264
 99  5 20 21 39 30.0000000  0  7 30 17 26 06 22 23 10
  22797209.515    -2329272.481 9  -1744718.62949  22797210.250    22797220.6784
  21625091.217   -24719911.102 9 -18070076.07849  21625090.391    21625098.0744
  22741515.787   -13166979.508 9 -10238480.06849  22741515.137    22741526.0584
  20369806.345   -24430924.819 9 -19036692.71449  20369806.187    20369812.2444
  23735972.160    -8707020.024 9  -5783930.48849  23735971.749    23735981.5474
  22506489.944   -15249905.420 9 -10993285.77949  22506489.272    22506499.6784
  23750804.152      369517.057 9    290433.41349  23750803.201    23750813.7674
 99  5 20 21 40  0.0000000  0  7 30 17 26 06 22 23 10
  22812896.965    -2246834.712 9  -1680481.64949  22812897.700    22812908.3574
  21614828.553   -24773841.508 9 -18112099.72949  21614828.226    21614835.6184
  22726910.806   -13243728.928 9 -10298284.62849  22726911.257    22726921.0414
  20365938.771   -24451248.722 9 -19052529.53149  20365938.804    20365945.0894
  23723585.245    -8772113.259 9  -5834652.44749  23723584.714    23723594.9084
  22487814.959   -15348041.862 9 -11069755.53549  22487813.461    22487824.8584
  23767027.042      454768.776 9    356863.27049  23767026.560    23767036.5704
 99  5 20 21 40 30.0000000  0  7 30 17 26 06 22 23 10
  22828620.198    -2164209.792 9  -1616098.83349  22828620.945    22828632.2224
  21604593.309   -24827628.352 9 -18154011.50949  21604592.532    21604600.5164
  22712366.389   -13320160.412 9 -10357841.45149  22712366.226    22712375.9824
  20362144.963   -24471185.562 9 -19068064.73849  20362144.870    20362151.1774
  23711285.253    -8836749.216 9  -5885018.09249  23711284.349    23711295.3984
  22469195.063   -15445888.746 9 -11145999.67149  22469193.891    22469204.3164
  23783274.855      540150.523 9    423394.44549  23783273.932    23783283.2174
 99  5 20 21 41  0.0000000  0  7 30 17 26 06 22 23 10
  22844379.042    -2081397.913 9  -1551570.34049  22844379.835    22844390.9434
  21594388.352   -24881255.841 9 -18195799.12549  21594387.686    21594395.4234
  22697884.779   -13396261.728 9 -10417141.00049  22697884.122    22697894.8264
  20358425.213   -24490733.066 9 -19083296.56949  20358425.076    20358431.4204
  23699072.788    -8900925.225 9  -5935025.32249  23699071.674    23699082.2534
  22450632.166   -15543436.284 9 -11222010.54249  22450631.371    22450641.2044
  23799549.747      625676.049 9    490037.64949  23799549.035    23799559.7894
 99  5 20 21 41 30.0000000  0  7 30 17 26 06 22 23 10
  22860170.325    -1998414.896 9  -1486908.50249  22860171.732    22860182.4014
  21584214.862   -24934717.341 9 -18237457.39849  21584214.080    21584221.7874
  22683466.513   -13472029.701 9 -10476180.78949  22683466.413    22683475.6524
  20354780.223   -24509887.719 9 -19098222.28249  20354780.199    20354786.5674
  23686945.629    -8964653.789 9  -5984683.92949  23686944.350    23686955.0974
  22432127.404   -15640678.014 9 -11297783.13049  22432126.862    22432137.2174
  23815848.967      711328.757 9    556779.95649  23815849.081    23815858.6774
 99  5 20 21 42  0.0000000  0  7 30 17 26 06 22 23 10
  22875997.971    -1915241.147 9  -1422098.03949  22875999.725    22876009.9814
  21574081.028   -24987970.889 9 -18278953.63949  21574080.585    21574087.9524
  22669119.198   -13547424.493 9 -10534929.81249  22669119.305    22669128.9984
  20351217.007   -24528612.516 9 -19112813.04549  20351216.896    20351223.5034
  23674910.048    -9027899.326 9  -6033966.12249  23674909.451    23674920.3594
  22413686.313   -15737586.642 9 -11373296.16749  22413686.028    22413696.1214
  23832178.239      797139.564 9    623645.44949  23832177.787    23832188.2534
 99  5 20 21 42 30.0000000  0  7 30 17 26 06 22 23 10
  22891862.924    -1831871.242 9  -1357134.74549  22891863.812    22891874.8184
  21563992.528   -25040986.428 9 -18320264.40249  21563991.939    21563999.5604
  22654848.654   -13622415.114 9 -10593363.88649  22654848.105    22654858.7394
  20347740.307   -24546882.352 9 -19127049.29049  20347740.293    20347746.6934
  23662969.544    -9090646.120 9  -6082859.70949  23662968.328    23662979.2054
  22395309.412   -15834157.450 9 -11448545.97549  22395308.990    22395318.5854
  23848540.822      883124.365 9    690646.55449  23848540.579    23848550.2404
 99  5 20 21 43  0.0000000  0  7 30 17 26 06 22 23 10
  22907762.939    -1748316.840 9  -1292027.69749  22907764.175    22907774.8354
  21553950.971   -25093755.082 9 -18361382.79949  21553950.061    21553957.9334
  22640659.571   -13696977.878 9 -10651464.58149  22640658.388    22640669.9654
  20344352.410   -24564685.926 9 -19140922.22149  20344352.428    20344358.8634
  23651126.761    -9152880.330 9  -6131353.87949  23651125.357    23651137.4154
  22376997.297   -15930387.927 9 -11523530.58649  22376996.678    22377006.9184
  23864936.350      969282.495 9    757782.70649  23864935.479    23864945.0654
 99  5 20 21 43 30.0000000  0  7 30 17 26 06 22 23 10
  22923695.510    -1664591.913 9  -1226787.76249  22923695.356    22923708.3834
  21543952.224   -25146298.151 9 -18402325.41849  21543951.653    21543959.7474
  22626552.064   -13771111.595 9 -10709230.95849  22626551.924    22626562.7904
  20341053.245   -24582023.434 9 -19154431.96749  20341053.452    20341059.7894
  23639380.039    -9214610.690 9  -6179455.42749  23639379.878    23639389.2074
  22358747.244   -16026292.052 9 -11598260.90349  22358746.482    22358756.9404
  23881360.965     1055594.340 9    825038.62149  23881360.718    23881369.1744
 99  5 20 21 44  0.0000000  0  7 30 17 26 06 22 23 10
  22939659.367    -1580701.822 9  -1161419.12149  22939660.773    22939671.9794
  21533991.132   -25198643.376 9 -18443113.87649  21533990.209    21533998.3764
  22612526.732   -13844814.194 9 -10766661.38149  22612526.674    22612537.2304
  20337839.122   -24598913.800 9 -19167593.29149  20337838.927    20337845.4434
  23627730.631    -9275829.928 9  -6227158.70949  23627729.913    23627740.2084
  22340555.738   -16121888.603 9 -11672751.56449  22340554.656    22340564.5084
  23897814.751     1142059.612 9    892414.10349  23897813.358    23897823.3264
 99  5 20 21 44 30.0000000  0  7 30 17 26 06 22 23 10
  22955653.672    -1496652.069 9  -1095926.10049  22955654.971    22955666.3284
  21524062.932   -25250815.935 9 -18483767.78849  21524062.462    21524070.3954
  22598579.809   -13918105.163 9 -10823771.05749  22598580.208    22598589.9564
  20334707.647   -24615369.832 9 -19180416.18349  20334707.685    20334713.8634
  23616173.598    -9336562.444 9  -6274482.73149  23616173.154    23616182.7514
  22322421.683   -16217182.826 9 -11747006.63649  22322420.690    22322430.7824
  23914296.137     1228670.177 9    959902.80649  23914294.958    23914305.6534
 99  5 20 21 45  0.0000000  0  7 30 17 26 06 22 23 10
  22971683.290    -1412417.627 9  -1030289.12849  22971683.944    22971696.1684
  21514168.375   -25302812.216 9 -18524284.33049  21514167.572    21514175.2884
  22584712.344   -13990979.173 9 -10880555.83649  22584712.769    22584722.2034
  20331661.123   -24631379.624 9 -19192891.35149  20331660.924    20331667.2434
  23604709.607    -9396806.239 9  -6321425.90749  23604710.109    23604717.7864
  22304351.662   -16312140.595 9 -11820999.55049  22304350.759    22304361.2154
  23930808.811     1315445.667 9   1027520.01549  23930807.647    23930819.6164
 99  5 20 21 45 30.0000000  0  7 30 17 26 06 22 23 10
  22987889.401    -1327254.350 9   -963928.41649  22987890.575    22987902.7104
  21504445.455   -25353905.887 9 -18564097.55949  21504444.673    21504453.0554
  22571063.010   -14062706.550 9 -10936447.15949  22571063.368    22571072.1594
  20328836.521   -24646222.931 9 -19204457.59849  20328836.609    20328842.8154
  23593479.812    -9455819.957 9  -6367410.61049  23593479.794    23593489.1144
  22286487.105   -16406018.677 9 -11894151.16249  22286486.486    22286496.5204
  23947492.569     1403119.509 9   1095837.21449  23947492.086    23947501.9274
